<?xml version="1.0" encoding="UTF-8" standalone="no" ?>
<gpx xmlns="http://www.topografix.com/GPX/1/1" xmlns:xsi="http://www.w3.org/2001/XMLSchema-instance" xsi:schemaLocation="http://www.topografix.com/GPX/1/1 http://www.topografix.com/GPX/1/1/gpx.xsd" version="1.1" creator="VisuGPX - https://www.visugpx.com">
  <metadata>
    <name>Rando Equestre 15-10-2014</name>
    <desc><![CDATA[Autour de Royaucourt]]></desc>
  </metadata>
  <trk>
    <name><![CDATA[15/10/2014 9:22]]></name>
    <desc><![CDATA[]]></desc>
    <trkseg>
      <trkpt lat="49.52903" lon="3.56862">
        <ele>92</ele>
        <time>2014-10-15T07:22:53.543Z</time>
      </trkpt>
      <trkpt lat="49.52888" lon="3.56871">
        <ele>102</ele>
        <time>2014-10-15T07:23:12.650Z</time>
      </trkpt>
      <trkpt lat="49.52884" lon="3.56883">
        <ele>119.2</ele>
        <time>2014-10-15T07:23:22.094Z</time>
      </trkpt>
      <trkpt lat="49.52883" lon="3.56883">
        <ele>121.3</ele>
        <time>2014-10-15T07:23:23.090Z</time>
      </trkpt>
      <trkpt lat="49.52885" lon="3.56875">
        <ele>122.4</ele>
        <time>2014-10-15T07:24:00.181Z</time>
      </trkpt>
      <trkpt lat="49.52885" lon="3.56876">
        <ele>122.4</ele>
        <time>2014-10-15T07:24:01.196Z</time>
      </trkpt>
      <trkpt lat="49.52884" lon="3.56875">
        <ele>122.2</ele>
        <time>2014-10-15T07:24:04.111Z</time>
      </trkpt>
      <trkpt lat="49.52884" lon="3.56873">
        <ele>122.2</ele>
        <time>2014-10-15T07:24:05.124Z</time>
      </trkpt>
      <trkpt lat="49.52877" lon="3.56865">
        <ele>122.7</ele>
        <time>2014-10-15T07:24:14.148Z</time>
      </trkpt>
      <trkpt lat="49.52876" lon="3.56865">
        <ele>122.5</ele>
        <time>2014-10-15T07:24:15.154Z</time>
      </trkpt>
      <trkpt lat="49.52874" lon="3.56865">
        <ele>122.4</ele>
        <time>2014-10-15T07:24:17.165Z</time>
      </trkpt>
      <trkpt lat="49.52874" lon="3.56864">
        <ele>122.3</ele>
        <time>2014-10-15T07:24:18.185Z</time>
      </trkpt>
      <trkpt lat="49.52874" lon="3.56864">
        <ele>122.3</ele>
        <time>2014-10-15T07:24:18.953Z</time>
      </trkpt>
      <trkpt lat="49.52874" lon="3.56864">
        <ele>122.2</ele>
        <time>2014-10-15T07:24:19.230Z</time>
      </trkpt>
      <trkpt lat="49.52873" lon="3.56864">
        <ele>122.3</ele>
        <time>2014-10-15T07:24:20.103Z</time>
      </trkpt>
      <trkpt lat="49.52873" lon="3.56863">
        <ele>122.3</ele>
        <time>2014-10-15T07:24:21.116Z</time>
      </trkpt>
      <trkpt lat="49.52872" lon="3.56863">
        <ele>122</ele>
        <time>2014-10-15T07:24:22.136Z</time>
      </trkpt>
      <trkpt lat="49.52864" lon="3.56857">
        <ele>121</ele>
        <time>2014-10-15T07:24:31.225Z</time>
      </trkpt>
      <trkpt lat="49.52863" lon="3.56856">
        <ele>121</ele>
        <time>2014-10-15T07:24:32.105Z</time>
      </trkpt>
      <trkpt lat="49.52855" lon="3.56852">
        <ele>121.2</ele>
        <time>2014-10-15T07:24:38.172Z</time>
      </trkpt>
      <trkpt lat="49.52853" lon="3.56851">
        <ele>121.2</ele>
        <time>2014-10-15T07:24:39.178Z</time>
      </trkpt>
      <trkpt lat="49.52846" lon="3.56847">
        <ele>120.7</ele>
        <time>2014-10-15T07:24:45.137Z</time>
      </trkpt>
      <trkpt lat="49.52845" lon="3.56846">
        <ele>120.7</ele>
        <time>2014-10-15T07:24:46.142Z</time>
      </trkpt>
      <trkpt lat="49.52838" lon="3.5684">
        <ele>120.6</ele>
        <time>2014-10-15T07:24:55.144Z</time>
      </trkpt>
      <trkpt lat="49.52837" lon="3.5684">
        <ele>120.5</ele>
        <time>2014-10-15T07:24:56.148Z</time>
      </trkpt>
      <trkpt lat="49.52829" lon="3.56836">
        <ele>120.8</ele>
        <time>2014-10-15T07:25:02.217Z</time>
      </trkpt>
      <trkpt lat="49.52827" lon="3.56835">
        <ele>121</ele>
        <time>2014-10-15T07:25:03.114Z</time>
      </trkpt>
      <trkpt lat="49.52819" lon="3.56832">
        <ele>123.2</ele>
        <time>2014-10-15T07:25:09.181Z</time>
      </trkpt>
      <trkpt lat="49.52818" lon="3.56831">
        <ele>123.7</ele>
        <time>2014-10-15T07:25:10.191Z</time>
      </trkpt>
      <trkpt lat="49.52814" lon="3.5682">
        <ele>123.6</ele>
        <time>2014-10-15T07:25:17.563Z</time>
      </trkpt>
      <trkpt lat="49.52815" lon="3.56817">
        <ele>122.4</ele>
        <time>2014-10-15T07:25:18.186Z</time>
      </trkpt>
      <trkpt lat="49.52817" lon="3.56804">
        <ele>120.4</ele>
        <time>2014-10-15T07:25:25.153Z</time>
      </trkpt>
      <trkpt lat="49.52818" lon="3.56803">
        <ele>120.4</ele>
        <time>2014-10-15T07:25:26.151Z</time>
      </trkpt>
      <trkpt lat="49.5282" lon="3.56791">
        <ele>119.8</ele>
        <time>2014-10-15T07:25:32.852Z</time>
      </trkpt>
      <trkpt lat="49.5282" lon="3.56789">
        <ele>119.6</ele>
        <time>2014-10-15T07:25:33.110Z</time>
      </trkpt>
      <trkpt lat="49.52823" lon="3.56776">
        <ele>118.9</ele>
        <time>2014-10-15T07:25:40.151Z</time>
      </trkpt>
      <trkpt lat="49.52823" lon="3.56774">
        <ele>118.8</ele>
        <time>2014-10-15T07:25:41.156Z</time>
      </trkpt>
      <trkpt lat="49.52827" lon="3.56763">
        <ele>118.1</ele>
        <time>2014-10-15T07:25:48.115Z</time>
      </trkpt>
      <trkpt lat="49.52827" lon="3.56761">
        <ele>117.8</ele>
        <time>2014-10-15T07:25:49.158Z</time>
      </trkpt>
      <trkpt lat="49.5283" lon="3.56748">
        <ele>117.3</ele>
        <time>2014-10-15T07:25:57.142Z</time>
      </trkpt>
      <trkpt lat="49.5283" lon="3.56746">
        <ele>117.2</ele>
        <time>2014-10-15T07:25:57.227Z</time>
      </trkpt>
      <trkpt lat="49.52832" lon="3.56735">
        <ele>117.5</ele>
        <time>2014-10-15T07:26:03.175Z</time>
      </trkpt>
      <trkpt lat="49.52833" lon="3.56733">
        <ele>117.6</ele>
        <time>2014-10-15T07:26:04.180Z</time>
      </trkpt>
      <trkpt lat="49.52835" lon="3.56722">
        <ele>117.1</ele>
        <time>2014-10-15T07:26:10.110Z</time>
      </trkpt>
      <trkpt lat="49.52836" lon="3.5672">
        <ele>117.1</ele>
        <time>2014-10-15T07:26:11.118Z</time>
      </trkpt>
      <trkpt lat="49.52839" lon="3.56708">
        <ele>116.5</ele>
        <time>2014-10-15T07:26:17.244Z</time>
      </trkpt>
      <trkpt lat="49.52839" lon="3.56706">
        <ele>116.4</ele>
        <time>2014-10-15T07:26:18.189Z</time>
      </trkpt>
      <trkpt lat="49.52842" lon="3.56695">
        <ele>116</ele>
        <time>2014-10-15T07:26:24.132Z</time>
      </trkpt>
      <trkpt lat="49.52843" lon="3.56694">
        <ele>116.1</ele>
        <time>2014-10-15T07:26:25.159Z</time>
      </trkpt>
      <trkpt lat="49.52845" lon="3.56682">
        <ele>116.2</ele>
        <time>2014-10-15T07:26:31.201Z</time>
      </trkpt>
      <trkpt lat="49.52845" lon="3.5668">
        <ele>116.3</ele>
        <time>2014-10-15T07:26:32.106Z</time>
      </trkpt>
      <trkpt lat="49.52848" lon="3.56668">
        <ele>116.1</ele>
        <time>2014-10-15T07:26:39.182Z</time>
      </trkpt>
      <trkpt lat="49.52848" lon="3.56666">
        <ele>116.4</ele>
        <time>2014-10-15T07:26:40.187Z</time>
      </trkpt>
      <trkpt lat="49.52852" lon="3.56654">
        <ele>117.3</ele>
        <time>2014-10-15T07:26:47.124Z</time>
      </trkpt>
      <trkpt lat="49.52852" lon="3.56652">
        <ele>117.4</ele>
        <time>2014-10-15T07:26:48.127Z</time>
      </trkpt>
      <trkpt lat="49.52854" lon="3.56639">
        <ele>117.7</ele>
        <time>2014-10-15T07:26:55.168Z</time>
      </trkpt>
      <trkpt lat="49.52855" lon="3.56637">
        <ele>117.7</ele>
        <time>2014-10-15T07:26:56.169Z</time>
      </trkpt>
      <trkpt lat="49.52856" lon="3.56625">
        <ele>117.3</ele>
        <time>2014-10-15T07:27:03.879Z</time>
      </trkpt>
      <trkpt lat="49.52857" lon="3.56623">
        <ele>117.3</ele>
        <time>2014-10-15T07:27:04.153Z</time>
      </trkpt>
      <trkpt lat="49.52858" lon="3.56611">
        <ele>117.9</ele>
        <time>2014-10-15T07:27:10.129Z</time>
      </trkpt>
      <trkpt lat="49.52858" lon="3.56609">
        <ele>117.8</ele>
        <time>2014-10-15T07:27:11.127Z</time>
      </trkpt>
      <trkpt lat="49.52859" lon="3.56597">
        <ele>118.1</ele>
        <time>2014-10-15T07:27:17.484Z</time>
      </trkpt>
      <trkpt lat="49.52859" lon="3.56595">
        <ele>118.3</ele>
        <time>2014-10-15T07:27:18.123Z</time>
      </trkpt>
      <trkpt lat="49.5286" lon="3.56582">
        <ele>118.6</ele>
        <time>2014-10-15T07:27:26.171Z</time>
      </trkpt>
      <trkpt lat="49.5286" lon="3.56581">
        <ele>118.6</ele>
        <time>2014-10-15T07:27:27.173Z</time>
      </trkpt>
      <trkpt lat="49.52861" lon="3.56568">
        <ele>119.1</ele>
        <time>2014-10-15T07:27:35.131Z</time>
      </trkpt>
      <trkpt lat="49.5286" lon="3.56566">
        <ele>119.4</ele>
        <time>2014-10-15T07:27:36.152Z</time>
      </trkpt>
      <trkpt lat="49.52862" lon="3.56553">
        <ele>118.9</ele>
        <time>2014-10-15T07:27:43.156Z</time>
      </trkpt>
      <trkpt lat="49.52862" lon="3.5655">
        <ele>118.7</ele>
        <time>2014-10-15T07:27:44.161Z</time>
      </trkpt>
      <trkpt lat="49.5286" lon="3.56538">
        <ele>119.3</ele>
        <time>2014-10-15T07:27:49.198Z</time>
      </trkpt>
      <trkpt lat="49.5286" lon="3.56536">
        <ele>119.2</ele>
        <time>2014-10-15T07:27:50.203Z</time>
      </trkpt>
      <trkpt lat="49.52858" lon="3.56523">
        <ele>120.7</ele>
        <time>2014-10-15T07:27:56.158Z</time>
      </trkpt>
      <trkpt lat="49.52858" lon="3.56521">
        <ele>120.7</ele>
        <time>2014-10-15T07:27:57.165Z</time>
      </trkpt>
      <trkpt lat="49.52856" lon="3.56509">
        <ele>121.6</ele>
        <time>2014-10-15T07:28:02.211Z</time>
      </trkpt>
      <trkpt lat="49.52856" lon="3.56507">
        <ele>121.9</ele>
        <time>2014-10-15T07:28:03.131Z</time>
      </trkpt>
      <trkpt lat="49.52854" lon="3.56494">
        <ele>123.3</ele>
        <time>2014-10-15T07:28:10.193Z</time>
      </trkpt>
      <trkpt lat="49.52854" lon="3.56492">
        <ele>123.4</ele>
        <time>2014-10-15T07:28:11.198Z</time>
      </trkpt>
      <trkpt lat="49.52852" lon="3.56479">
        <ele>125</ele>
        <time>2014-10-15T07:28:19.196Z</time>
      </trkpt>
      <trkpt lat="49.52852" lon="3.56478">
        <ele>125.1</ele>
        <time>2014-10-15T07:28:20.200Z</time>
      </trkpt>
      <trkpt lat="49.52852" lon="3.56464">
        <ele>124.4</ele>
        <time>2014-10-15T07:28:25.143Z</time>
      </trkpt>
      <trkpt lat="49.52852" lon="3.5646">
        <ele>124</ele>
        <time>2014-10-15T07:28:26.161Z</time>
      </trkpt>
      <trkpt lat="49.52853" lon="3.56448">
        <ele>123.2</ele>
        <time>2014-10-15T07:28:30.185Z</time>
      </trkpt>
      <trkpt lat="49.52853" lon="3.56446">
        <ele>123.2</ele>
        <time>2014-10-15T07:28:31.192Z</time>
      </trkpt>
      <trkpt lat="49.52854" lon="3.56433">
        <ele>123.8</ele>
        <time>2014-10-15T07:28:36.127Z</time>
      </trkpt>
      <trkpt lat="49.52854" lon="3.56431">
        <ele>124</ele>
        <time>2014-10-15T07:28:37.173Z</time>
      </trkpt>
      <trkpt lat="49.52854" lon="3.56418">
        <ele>123.9</ele>
        <time>2014-10-15T07:28:43.206Z</time>
      </trkpt>
      <trkpt lat="49.52854" lon="3.56416">
        <ele>123.7</ele>
        <time>2014-10-15T07:28:44.125Z</time>
      </trkpt>
      <trkpt lat="49.52853" lon="3.56403">
        <ele>124.7</ele>
        <time>2014-10-15T07:28:49.429Z</time>
      </trkpt>
      <trkpt lat="49.52852" lon="3.56401">
        <ele>124.8</ele>
        <time>2014-10-15T07:28:50.186Z</time>
      </trkpt>
      <trkpt lat="49.52851" lon="3.56389">
        <ele>125.6</ele>
        <time>2014-10-15T07:28:55.151Z</time>
      </trkpt>
      <trkpt lat="49.5285" lon="3.56387">
        <ele>125.7</ele>
        <time>2014-10-15T07:28:56.153Z</time>
      </trkpt>
      <trkpt lat="49.52848" lon="3.56374">
        <ele>126.2</ele>
        <time>2014-10-15T07:29:01.204Z</time>
      </trkpt>
      <trkpt lat="49.52848" lon="3.56372">
        <ele>126.5</ele>
        <time>2014-10-15T07:29:02.208Z</time>
      </trkpt>
      <trkpt lat="49.52848" lon="3.56361">
        <ele>128.2</ele>
        <time>2014-10-15T07:29:07.177Z</time>
      </trkpt>
      <trkpt lat="49.52848" lon="3.56357">
        <ele>128.2</ele>
        <time>2014-10-15T07:29:08.175Z</time>
      </trkpt>
      <trkpt lat="49.5285" lon="3.56345">
        <ele>128</ele>
        <time>2014-10-15T07:29:13.749Z</time>
      </trkpt>
      <trkpt lat="49.5285" lon="3.56343">
        <ele>127.9</ele>
        <time>2014-10-15T07:29:14.130Z</time>
      </trkpt>
      <trkpt lat="49.52852" lon="3.5633">
        <ele>126.9</ele>
        <time>2014-10-15T07:29:20.170Z</time>
      </trkpt>
      <trkpt lat="49.52852" lon="3.56329">
        <ele>126.8</ele>
        <time>2014-10-15T07:29:21.190Z</time>
      </trkpt>
      <trkpt lat="49.52854" lon="3.56317">
        <ele>126.6</ele>
        <time>2014-10-15T07:29:27.127Z</time>
      </trkpt>
      <trkpt lat="49.52854" lon="3.56315">
        <ele>126.6</ele>
        <time>2014-10-15T07:29:28.127Z</time>
      </trkpt>
      <trkpt lat="49.52855" lon="3.56301">
        <ele>126</ele>
        <time>2014-10-15T07:29:34.182Z</time>
      </trkpt>
      <trkpt lat="49.52856" lon="3.56299">
        <ele>126</ele>
        <time>2014-10-15T07:29:35.187Z</time>
      </trkpt>
      <trkpt lat="49.5286" lon="3.56288">
        <ele>125</ele>
        <time>2014-10-15T07:29:41.121Z</time>
      </trkpt>
      <trkpt lat="49.5286" lon="3.56286">
        <ele>124.8</ele>
        <time>2014-10-15T07:29:42.121Z</time>
      </trkpt>
      <trkpt lat="49.52863" lon="3.56274">
        <ele>123.7</ele>
        <time>2014-10-15T07:29:48.666Z</time>
      </trkpt>
      <trkpt lat="49.52863" lon="3.56272">
        <ele>123.6</ele>
        <time>2014-10-15T07:29:49.154Z</time>
      </trkpt>
      <trkpt lat="49.52867" lon="3.5626">
        <ele>122.8</ele>
        <time>2014-10-15T07:29:55.153Z</time>
      </trkpt>
      <trkpt lat="49.52867" lon="3.56258">
        <ele>122.5</ele>
        <time>2014-10-15T07:29:56.163Z</time>
      </trkpt>
      <trkpt lat="49.52869" lon="3.56246">
        <ele>122.7</ele>
        <time>2014-10-15T07:30:01.154Z</time>
      </trkpt>
      <trkpt lat="49.52869" lon="3.56244">
        <ele>122.6</ele>
        <time>2014-10-15T07:30:02.157Z</time>
      </trkpt>
      <trkpt lat="49.52871" lon="3.56232">
        <ele>122.2</ele>
        <time>2014-10-15T07:30:07.191Z</time>
      </trkpt>
      <trkpt lat="49.52871" lon="3.5623">
        <ele>122</ele>
        <time>2014-10-15T07:30:08.197Z</time>
      </trkpt>
      <trkpt lat="49.52872" lon="3.56217">
        <ele>121.7</ele>
        <time>2014-10-15T07:30:14.034Z</time>
      </trkpt>
      <trkpt lat="49.52873" lon="3.56215">
        <ele>121.6</ele>
        <time>2014-10-15T07:30:14.153Z</time>
      </trkpt>
      <trkpt lat="49.52874" lon="3.56203">
        <ele>121.8</ele>
        <time>2014-10-15T07:30:19.238Z</time>
      </trkpt>
      <trkpt lat="49.52875" lon="3.56201">
        <ele>121.7</ele>
        <time>2014-10-15T07:30:20.110Z</time>
      </trkpt>
      <trkpt lat="49.52876" lon="3.5619">
        <ele>121.5</ele>
        <time>2014-10-15T07:30:25.159Z</time>
      </trkpt>
      <trkpt lat="49.52877" lon="3.56188">
        <ele>121.3</ele>
        <time>2014-10-15T07:30:26.160Z</time>
      </trkpt>
      <trkpt lat="49.52879" lon="3.56176">
        <ele>121.8</ele>
        <time>2014-10-15T07:30:31.140Z</time>
      </trkpt>
      <trkpt lat="49.52879" lon="3.56174">
        <ele>122.1</ele>
        <time>2014-10-15T07:30:32.145Z</time>
      </trkpt>
      <trkpt lat="49.52877" lon="3.56162">
        <ele>122</ele>
        <time>2014-10-15T07:30:39.147Z</time>
      </trkpt>
      <trkpt lat="49.52876" lon="3.56161">
        <ele>122</ele>
        <time>2014-10-15T07:30:40.164Z</time>
      </trkpt>
      <trkpt lat="49.52868" lon="3.5616">
        <ele>122</ele>
        <time>2014-10-15T07:30:45.107Z</time>
      </trkpt>
      <trkpt lat="49.52866" lon="3.5616">
        <ele>122.1</ele>
        <time>2014-10-15T07:30:46.107Z</time>
      </trkpt>
      <trkpt lat="49.52858" lon="3.5616">
        <ele>122.1</ele>
        <time>2014-10-15T07:30:52.439Z</time>
      </trkpt>
      <trkpt lat="49.52857" lon="3.56159">
        <ele>122.1</ele>
        <time>2014-10-15T07:30:53.182Z</time>
      </trkpt>
      <trkpt lat="49.52849" lon="3.56159">
        <ele>122.5</ele>
        <time>2014-10-15T07:30:59.142Z</time>
      </trkpt>
      <trkpt lat="49.52848" lon="3.56159">
        <ele>122.7</ele>
        <time>2014-10-15T07:31:00.149Z</time>
      </trkpt>
      <trkpt lat="49.52839" lon="3.56157">
        <ele>122.6</ele>
        <time>2014-10-15T07:31:06.193Z</time>
      </trkpt>
      <trkpt lat="49.52836" lon="3.56157">
        <ele>122.6</ele>
        <time>2014-10-15T07:31:08.108Z</time>
      </trkpt>
      <trkpt lat="49.52828" lon="3.56158">
        <ele>122.5</ele>
        <time>2014-10-15T07:31:14.169Z</time>
      </trkpt>
      <trkpt lat="49.52827" lon="3.56159">
        <ele>122.6</ele>
        <time>2014-10-15T07:31:15.182Z</time>
      </trkpt>
      <trkpt lat="49.52818" lon="3.56163">
        <ele>123.1</ele>
        <time>2014-10-15T07:31:22.198Z</time>
      </trkpt>
      <trkpt lat="49.52817" lon="3.56163">
        <ele>123.3</ele>
        <time>2014-10-15T07:31:23.212Z</time>
      </trkpt>
      <trkpt lat="49.52808" lon="3.56162">
        <ele>123.5</ele>
        <time>2014-10-15T07:31:30.115Z</time>
      </trkpt>
      <trkpt lat="49.52807" lon="3.56163">
        <ele>123.5</ele>
        <time>2014-10-15T07:31:31.148Z</time>
      </trkpt>
      <trkpt lat="49.52798" lon="3.56164">
        <ele>123.4</ele>
        <time>2014-10-15T07:31:39.992Z</time>
      </trkpt>
      <trkpt lat="49.52797" lon="3.56165">
        <ele>123.5</ele>
        <time>2014-10-15T07:31:40.169Z</time>
      </trkpt>
      <trkpt lat="49.52788" lon="3.56165">
        <ele>123.6</ele>
        <time>2014-10-15T07:31:47.117Z</time>
      </trkpt>
      <trkpt lat="49.52787" lon="3.56165">
        <ele>123.7</ele>
        <time>2014-10-15T07:31:48.119Z</time>
      </trkpt>
      <trkpt lat="49.52779" lon="3.56168">
        <ele>123.4</ele>
        <time>2014-10-15T07:31:54.191Z</time>
      </trkpt>
      <trkpt lat="49.52777" lon="3.56168">
        <ele>123.5</ele>
        <time>2014-10-15T07:31:55.193Z</time>
      </trkpt>
      <trkpt lat="49.5277" lon="3.5617">
        <ele>123.7</ele>
        <time>2014-10-15T07:32:01.141Z</time>
      </trkpt>
      <trkpt lat="49.52768" lon="3.56171">
        <ele>123.8</ele>
        <time>2014-10-15T07:32:02.163Z</time>
      </trkpt>
      <trkpt lat="49.52761" lon="3.56173">
        <ele>123.9</ele>
        <time>2014-10-15T07:32:08.160Z</time>
      </trkpt>
      <trkpt lat="49.52759" lon="3.56173">
        <ele>123.9</ele>
        <time>2014-10-15T07:32:09.168Z</time>
      </trkpt>
      <trkpt lat="49.52752" lon="3.56176">
        <ele>124.7</ele>
        <time>2014-10-15T07:32:15.281Z</time>
      </trkpt>
      <trkpt lat="49.52751" lon="3.56177">
        <ele>124.7</ele>
        <time>2014-10-15T07:32:16.116Z</time>
      </trkpt>
      <trkpt lat="49.52743" lon="3.56182">
        <ele>125.7</ele>
        <time>2014-10-15T07:32:21.177Z</time>
      </trkpt>
      <trkpt lat="49.52742" lon="3.56183">
        <ele>126</ele>
        <time>2014-10-15T07:32:22.186Z</time>
      </trkpt>
      <trkpt lat="49.52735" lon="3.56189">
        <ele>127.6</ele>
        <time>2014-10-15T07:32:27.578Z</time>
      </trkpt>
      <trkpt lat="49.52734" lon="3.5619">
        <ele>127.9</ele>
        <time>2014-10-15T07:32:28.133Z</time>
      </trkpt>
      <trkpt lat="49.52727" lon="3.56197">
        <ele>129.8</ele>
        <time>2014-10-15T07:32:34.176Z</time>
      </trkpt>
      <trkpt lat="49.52726" lon="3.56199">
        <ele>130</ele>
        <time>2014-10-15T07:32:35.196Z</time>
      </trkpt>
      <trkpt lat="49.52718" lon="3.56205">
        <ele>131</ele>
        <time>2014-10-15T07:32:42.726Z</time>
      </trkpt>
      <trkpt lat="49.52717" lon="3.56206">
        <ele>131.1</ele>
        <time>2014-10-15T07:32:43.180Z</time>
      </trkpt>
      <trkpt lat="49.52709" lon="3.56211">
        <ele>131.9</ele>
        <time>2014-10-15T07:32:50.163Z</time>
      </trkpt>
      <trkpt lat="49.52708" lon="3.56212">
        <ele>132.1</ele>
        <time>2014-10-15T07:32:51.168Z</time>
      </trkpt>
      <trkpt lat="49.527" lon="3.56213">
        <ele>132.6</ele>
        <time>2014-10-15T07:32:57.211Z</time>
      </trkpt>
      <trkpt lat="49.52699" lon="3.56214">
        <ele>132.7</ele>
        <time>2014-10-15T07:32:58.107Z</time>
      </trkpt>
      <trkpt lat="49.52691" lon="3.56218">
        <ele>132.9</ele>
        <time>2014-10-15T07:33:04.169Z</time>
      </trkpt>
      <trkpt lat="49.52689" lon="3.56219">
        <ele>133</ele>
        <time>2014-10-15T07:33:05.179Z</time>
      </trkpt>
      <trkpt lat="49.52681" lon="3.56223">
        <ele>134</ele>
        <time>2014-10-15T07:33:12.493Z</time>
      </trkpt>
      <trkpt lat="49.52679" lon="3.56223">
        <ele>134.1</ele>
        <time>2014-10-15T07:33:13.145Z</time>
      </trkpt>
      <trkpt lat="49.52672" lon="3.56229">
        <ele>134.3</ele>
        <time>2014-10-15T07:33:19.182Z</time>
      </trkpt>
      <trkpt lat="49.52671" lon="3.5623">
        <ele>134.3</ele>
        <time>2014-10-15T07:33:20.214Z</time>
      </trkpt>
      <trkpt lat="49.52663" lon="3.56236">
        <ele>135.5</ele>
        <time>2014-10-15T07:33:26.150Z</time>
      </trkpt>
      <trkpt lat="49.52662" lon="3.56237">
        <ele>135.7</ele>
        <time>2014-10-15T07:33:27.161Z</time>
      </trkpt>
      <trkpt lat="49.52654" lon="3.56244">
        <ele>135.9</ele>
        <time>2014-10-15T07:33:34.160Z</time>
      </trkpt>
      <trkpt lat="49.52653" lon="3.56244">
        <ele>135.8</ele>
        <time>2014-10-15T07:33:35.168Z</time>
      </trkpt>
      <trkpt lat="49.52646" lon="3.56248">
        <ele>136.1</ele>
        <time>2014-10-15T07:33:43.062Z</time>
      </trkpt>
      <trkpt lat="49.52645" lon="3.56249">
        <ele>136.1</ele>
        <time>2014-10-15T07:33:43.143Z</time>
      </trkpt>
      <trkpt lat="49.52639" lon="3.56255">
        <ele>136</ele>
        <time>2014-10-15T07:33:48.169Z</time>
      </trkpt>
      <trkpt lat="49.52637" lon="3.56258">
        <ele>136</ele>
        <time>2014-10-15T07:33:49.177Z</time>
      </trkpt>
      <trkpt lat="49.52632" lon="3.56268">
        <ele>135.6</ele>
        <time>2014-10-15T07:33:54.108Z</time>
      </trkpt>
      <trkpt lat="49.52632" lon="3.56271">
        <ele>135.1</ele>
        <time>2014-10-15T07:33:55.138Z</time>
      </trkpt>
      <trkpt lat="49.52628" lon="3.56283">
        <ele>133.7</ele>
        <time>2014-10-15T07:34:00.190Z</time>
      </trkpt>
      <trkpt lat="49.52627" lon="3.56284">
        <ele>133.7</ele>
        <time>2014-10-15T07:34:01.182Z</time>
      </trkpt>
      <trkpt lat="49.52621" lon="3.56292">
        <ele>134.3</ele>
        <time>2014-10-15T07:34:12.180Z</time>
      </trkpt>
      <trkpt lat="49.5262" lon="3.56293">
        <ele>134.3</ele>
        <time>2014-10-15T07:34:13.176Z</time>
      </trkpt>
      <trkpt lat="49.52614" lon="3.56301">
        <ele>134.6</ele>
        <time>2014-10-15T07:34:21.147Z</time>
      </trkpt>
      <trkpt lat="49.52612" lon="3.56302">
        <ele>134.6</ele>
        <time>2014-10-15T07:34:22.158Z</time>
      </trkpt>
      <trkpt lat="49.52605" lon="3.56308">
        <ele>134</ele>
        <time>2014-10-15T07:34:28.110Z</time>
      </trkpt>
      <trkpt lat="49.52604" lon="3.56309">
        <ele>134</ele>
        <time>2014-10-15T07:34:29.117Z</time>
      </trkpt>
      <trkpt lat="49.52596" lon="3.56309">
        <ele>134.5</ele>
        <time>2014-10-15T07:34:35.180Z</time>
      </trkpt>
      <trkpt lat="49.52595" lon="3.56309">
        <ele>134.5</ele>
        <time>2014-10-15T07:34:36.194Z</time>
      </trkpt>
      <trkpt lat="49.52586" lon="3.56311">
        <ele>134.6</ele>
        <time>2014-10-15T07:34:42.421Z</time>
      </trkpt>
      <trkpt lat="49.52586" lon="3.56311">
        <ele>134.4</ele>
        <time>2014-10-15T07:34:43.161Z</time>
      </trkpt>
      <trkpt lat="49.52577" lon="3.5631">
        <ele>133.3</ele>
        <time>2014-10-15T07:34:52.555Z</time>
      </trkpt>
      <trkpt lat="49.52576" lon="3.5631">
        <ele>133.1</ele>
        <time>2014-10-15T07:34:53.118Z</time>
      </trkpt>
      <trkpt lat="49.52568" lon="3.56313">
        <ele>131.4</ele>
        <time>2014-10-15T07:35:00.194Z</time>
      </trkpt>
      <trkpt lat="49.52567" lon="3.56312">
        <ele>130.9</ele>
        <time>2014-10-15T07:35:01.197Z</time>
      </trkpt>
      <trkpt lat="49.5256" lon="3.5631">
        <ele>129.4</ele>
        <time>2014-10-15T07:35:06.136Z</time>
      </trkpt>
      <trkpt lat="49.52558" lon="3.56309">
        <ele>129.2</ele>
        <time>2014-10-15T07:35:07.152Z</time>
      </trkpt>
      <trkpt lat="49.5255" lon="3.56305">
        <ele>129.1</ele>
        <time>2014-10-15T07:35:11.193Z</time>
      </trkpt>
      <trkpt lat="49.52548" lon="3.56304">
        <ele>129.1</ele>
        <time>2014-10-15T07:35:12.116Z</time>
      </trkpt>
      <trkpt lat="49.52541" lon="3.56299">
        <ele>128.8</ele>
        <time>2014-10-15T07:35:15.123Z</time>
      </trkpt>
      <trkpt lat="49.52539" lon="3.56297">
        <ele>128.7</ele>
        <time>2014-10-15T07:35:16.125Z</time>
      </trkpt>
      <trkpt lat="49.52532" lon="3.56292">
        <ele>128.7</ele>
        <time>2014-10-15T07:35:19.182Z</time>
      </trkpt>
      <trkpt lat="49.5253" lon="3.56289">
        <ele>128.7</ele>
        <time>2014-10-15T07:35:20.184Z</time>
      </trkpt>
      <trkpt lat="49.52523" lon="3.56284">
        <ele>128.4</ele>
        <time>2014-10-15T07:35:23.116Z</time>
      </trkpt>
      <trkpt lat="49.5252" lon="3.56282">
        <ele>128.3</ele>
        <time>2014-10-15T07:35:24.118Z</time>
      </trkpt>
      <trkpt lat="49.52513" lon="3.56275">
        <ele>128.3</ele>
        <time>2014-10-15T07:35:27.656Z</time>
      </trkpt>
      <trkpt lat="49.52511" lon="3.56274">
        <ele>128.2</ele>
        <time>2014-10-15T07:35:28.168Z</time>
      </trkpt>
      <trkpt lat="49.52504" lon="3.56268">
        <ele>127.5</ele>
        <time>2014-10-15T07:35:32.672Z</time>
      </trkpt>
      <trkpt lat="49.52502" lon="3.56266">
        <ele>127.3</ele>
        <time>2014-10-15T07:35:33.203Z</time>
      </trkpt>
      <trkpt lat="49.52495" lon="3.56261">
        <ele>126.7</ele>
        <time>2014-10-15T07:35:37.141Z</time>
      </trkpt>
      <trkpt lat="49.52493" lon="3.56259">
        <ele>126.5</ele>
        <time>2014-10-15T07:35:38.146Z</time>
      </trkpt>
      <trkpt lat="49.52486" lon="3.56254">
        <ele>125.2</ele>
        <time>2014-10-15T07:35:42.173Z</time>
      </trkpt>
      <trkpt lat="49.52485" lon="3.56253">
        <ele>124.9</ele>
        <time>2014-10-15T07:35:43.194Z</time>
      </trkpt>
      <trkpt lat="49.52477" lon="3.56246">
        <ele>124.1</ele>
        <time>2014-10-15T07:35:49.153Z</time>
      </trkpt>
      <trkpt lat="49.52476" lon="3.56245">
        <ele>124.1</ele>
        <time>2014-10-15T07:35:50.151Z</time>
      </trkpt>
      <trkpt lat="49.52468" lon="3.56241">
        <ele>123.4</ele>
        <time>2014-10-15T07:35:56.118Z</time>
      </trkpt>
      <trkpt lat="49.52467" lon="3.5624">
        <ele>123.3</ele>
        <time>2014-10-15T07:35:57.118Z</time>
      </trkpt>
      <trkpt lat="49.52458" lon="3.56238">
        <ele>122.4</ele>
        <time>2014-10-15T07:36:03.168Z</time>
      </trkpt>
      <trkpt lat="49.52457" lon="3.56237">
        <ele>122.2</ele>
        <time>2014-10-15T07:36:04.171Z</time>
      </trkpt>
      <trkpt lat="49.5245" lon="3.5623">
        <ele>122.5</ele>
        <time>2014-10-15T07:36:10.120Z</time>
      </trkpt>
      <trkpt lat="49.52448" lon="3.56229">
        <ele>122.5</ele>
        <time>2014-10-15T07:36:11.129Z</time>
      </trkpt>
      <trkpt lat="49.52441" lon="3.56223">
        <ele>122.8</ele>
        <time>2014-10-15T07:36:16.176Z</time>
      </trkpt>
      <trkpt lat="49.5244" lon="3.56222">
        <ele>122.9</ele>
        <time>2014-10-15T07:36:17.185Z</time>
      </trkpt>
      <trkpt lat="49.52432" lon="3.56216">
        <ele>122.7</ele>
        <time>2014-10-15T07:36:23.148Z</time>
      </trkpt>
      <trkpt lat="49.5243" lon="3.56215">
        <ele>122.4</ele>
        <time>2014-10-15T07:36:24.148Z</time>
      </trkpt>
      <trkpt lat="49.52423" lon="3.56209">
        <ele>121.5</ele>
        <time>2014-10-15T07:36:29.176Z</time>
      </trkpt>
      <trkpt lat="49.52422" lon="3.56208">
        <ele>121.4</ele>
        <time>2014-10-15T07:36:30.181Z</time>
      </trkpt>
      <trkpt lat="49.52414" lon="3.56203">
        <ele>120.6</ele>
        <time>2014-10-15T07:36:36.136Z</time>
      </trkpt>
      <trkpt lat="49.52413" lon="3.56202">
        <ele>120.5</ele>
        <time>2014-10-15T07:36:37.155Z</time>
      </trkpt>
      <trkpt lat="49.52405" lon="3.562">
        <ele>120.5</ele>
        <time>2014-10-15T07:36:43.190Z</time>
      </trkpt>
      <trkpt lat="49.52404" lon="3.562">
        <ele>120.6</ele>
        <time>2014-10-15T07:36:44.100Z</time>
      </trkpt>
      <trkpt lat="49.52395" lon="3.562">
        <ele>120.8</ele>
        <time>2014-10-15T07:36:50.167Z</time>
      </trkpt>
      <trkpt lat="49.52394" lon="3.562">
        <ele>120.9</ele>
        <time>2014-10-15T07:36:51.175Z</time>
      </trkpt>
      <trkpt lat="49.52386" lon="3.562">
        <ele>120.9</ele>
        <time>2014-10-15T07:36:57.102Z</time>
      </trkpt>
      <trkpt lat="49.52385" lon="3.562">
        <ele>120.9</ele>
        <time>2014-10-15T07:36:57.131Z</time>
      </trkpt>
      <trkpt lat="49.52376" lon="3.562">
        <ele>121.9</ele>
        <time>2014-10-15T07:37:03.174Z</time>
      </trkpt>
      <trkpt lat="49.52375" lon="3.562">
        <ele>122</ele>
        <time>2014-10-15T07:37:04.177Z</time>
      </trkpt>
      <trkpt lat="49.52367" lon="3.562">
        <ele>123.1</ele>
        <time>2014-10-15T07:37:10.121Z</time>
      </trkpt>
      <trkpt lat="49.52365" lon="3.562">
        <ele>123.1</ele>
        <time>2014-10-15T07:37:11.130Z</time>
      </trkpt>
      <trkpt lat="49.52358" lon="3.56197">
        <ele>123.4</ele>
        <time>2014-10-15T07:37:17.203Z</time>
      </trkpt>
      <trkpt lat="49.52356" lon="3.56196">
        <ele>123.8</ele>
        <time>2014-10-15T07:37:18.188Z</time>
      </trkpt>
      <trkpt lat="49.52348" lon="3.56192">
        <ele>125.5</ele>
        <time>2014-10-15T07:37:25.162Z</time>
      </trkpt>
      <trkpt lat="49.52347" lon="3.56191">
        <ele>125.6</ele>
        <time>2014-10-15T07:37:26.154Z</time>
      </trkpt>
      <trkpt lat="49.52339" lon="3.56187">
        <ele>126.6</ele>
        <time>2014-10-15T07:37:32.294Z</time>
      </trkpt>
      <trkpt lat="49.52337" lon="3.56187">
        <ele>126.9</ele>
        <time>2014-10-15T07:37:33.119Z</time>
      </trkpt>
      <trkpt lat="49.5233" lon="3.56184">
        <ele>128.2</ele>
        <time>2014-10-15T07:37:39.164Z</time>
      </trkpt>
      <trkpt lat="49.52329" lon="3.56184">
        <ele>128.3</ele>
        <time>2014-10-15T07:37:40.174Z</time>
      </trkpt>
      <trkpt lat="49.52321" lon="3.56178">
        <ele>129</ele>
        <time>2014-10-15T07:37:46.122Z</time>
      </trkpt>
      <trkpt lat="49.5232" lon="3.56177">
        <ele>129.1</ele>
        <time>2014-10-15T07:37:47.122Z</time>
      </trkpt>
      <trkpt lat="49.52312" lon="3.56172">
        <ele>129.2</ele>
        <time>2014-10-15T07:37:55.163Z</time>
      </trkpt>
      <trkpt lat="49.52311" lon="3.56171">
        <ele>129.4</ele>
        <time>2014-10-15T07:37:56.148Z</time>
      </trkpt>
      <trkpt lat="49.52303" lon="3.56166">
        <ele>129.5</ele>
        <time>2014-10-15T07:38:03.120Z</time>
      </trkpt>
      <trkpt lat="49.52301" lon="3.56165">
        <ele>129.6</ele>
        <time>2014-10-15T07:38:04.139Z</time>
      </trkpt>
      <trkpt lat="49.52293" lon="3.56158">
        <ele>129.6</ele>
        <time>2014-10-15T07:38:11.190Z</time>
      </trkpt>
      <trkpt lat="49.52292" lon="3.56158">
        <ele>129.3</ele>
        <time>2014-10-15T07:38:12.194Z</time>
      </trkpt>
      <trkpt lat="49.52285" lon="3.56151">
        <ele>128.7</ele>
        <time>2014-10-15T07:38:20.157Z</time>
      </trkpt>
      <trkpt lat="49.52284" lon="3.5615">
        <ele>128.4</ele>
        <time>2014-10-15T07:38:21.169Z</time>
      </trkpt>
      <trkpt lat="49.52276" lon="3.56143">
        <ele>127.9</ele>
        <time>2014-10-15T07:38:29.107Z</time>
      </trkpt>
      <trkpt lat="49.52275" lon="3.56142">
        <ele>127.9</ele>
        <time>2014-10-15T07:38:30.121Z</time>
      </trkpt>
      <trkpt lat="49.52267" lon="3.56138">
        <ele>126.6</ele>
        <time>2014-10-15T07:38:36.204Z</time>
      </trkpt>
      <trkpt lat="49.52266" lon="3.56137">
        <ele>126.5</ele>
        <time>2014-10-15T07:38:37.206Z</time>
      </trkpt>
      <trkpt lat="49.52258" lon="3.56131">
        <ele>125.9</ele>
        <time>2014-10-15T07:38:44.169Z</time>
      </trkpt>
      <trkpt lat="49.52257" lon="3.5613">
        <ele>126</ele>
        <time>2014-10-15T07:38:45.181Z</time>
      </trkpt>
      <trkpt lat="49.52249" lon="3.56124">
        <ele>126.5</ele>
        <time>2014-10-15T07:38:53.037Z</time>
      </trkpt>
      <trkpt lat="49.52248" lon="3.56123">
        <ele>126.5</ele>
        <time>2014-10-15T07:38:53.150Z</time>
      </trkpt>
      <trkpt lat="49.5224" lon="3.56118">
        <ele>125.7</ele>
        <time>2014-10-15T07:38:59.183Z</time>
      </trkpt>
      <trkpt lat="49.52239" lon="3.56117">
        <ele>125.8</ele>
        <time>2014-10-15T07:39:00.203Z</time>
      </trkpt>
      <trkpt lat="49.52231" lon="3.56112">
        <ele>126.9</ele>
        <time>2014-10-15T07:39:07.160Z</time>
      </trkpt>
      <trkpt lat="49.5223" lon="3.56112">
        <ele>127.1</ele>
        <time>2014-10-15T07:39:08.154Z</time>
      </trkpt>
      <trkpt lat="49.52222" lon="3.56107">
        <ele>127.7</ele>
        <time>2014-10-15T07:39:14.204Z</time>
      </trkpt>
      <trkpt lat="49.5222" lon="3.56106">
        <ele>127.8</ele>
        <time>2014-10-15T07:39:15.122Z</time>
      </trkpt>
      <trkpt lat="49.52213" lon="3.56101">
        <ele>128.6</ele>
        <time>2014-10-15T07:39:21.165Z</time>
      </trkpt>
      <trkpt lat="49.52212" lon="3.561">
        <ele>128.4</ele>
        <time>2014-10-15T07:39:22.181Z</time>
      </trkpt>
      <trkpt lat="49.52205" lon="3.56093">
        <ele>128.9</ele>
        <time>2014-10-15T07:39:28.115Z</time>
      </trkpt>
      <trkpt lat="49.52204" lon="3.56092">
        <ele>129</ele>
        <time>2014-10-15T07:39:29.120Z</time>
      </trkpt>
      <trkpt lat="49.52197" lon="3.56084">
        <ele>128.6</ele>
        <time>2014-10-15T07:39:36.185Z</time>
      </trkpt>
      <trkpt lat="49.52197" lon="3.56083">
        <ele>128.7</ele>
        <time>2014-10-15T07:39:37.190Z</time>
      </trkpt>
      <trkpt lat="49.5219" lon="3.56077">
        <ele>126.9</ele>
        <time>2014-10-15T07:39:43.153Z</time>
      </trkpt>
      <trkpt lat="49.52189" lon="3.56076">
        <ele>126.9</ele>
        <time>2014-10-15T07:39:44.155Z</time>
      </trkpt>
      <trkpt lat="49.52182" lon="3.56071">
        <ele>127.4</ele>
        <time>2014-10-15T07:39:49.182Z</time>
      </trkpt>
      <trkpt lat="49.5218" lon="3.5607">
        <ele>127.1</ele>
        <time>2014-10-15T07:39:50.191Z</time>
      </trkpt>
      <trkpt lat="49.52173" lon="3.56065">
        <ele>125.8</ele>
        <time>2014-10-15T07:39:55.148Z</time>
      </trkpt>
      <trkpt lat="49.52172" lon="3.56064">
        <ele>125.6</ele>
        <time>2014-10-15T07:39:56.153Z</time>
      </trkpt>
      <trkpt lat="49.52165" lon="3.56059">
        <ele>125.5</ele>
        <time>2014-10-15T07:40:02.188Z</time>
      </trkpt>
      <trkpt lat="49.52164" lon="3.56058">
        <ele>125.5</ele>
        <time>2014-10-15T07:40:03.202Z</time>
      </trkpt>
      <trkpt lat="49.52156" lon="3.56053">
        <ele>126.4</ele>
        <time>2014-10-15T07:40:10.166Z</time>
      </trkpt>
      <trkpt lat="49.52155" lon="3.56052">
        <ele>126.6</ele>
        <time>2014-10-15T07:40:11.175Z</time>
      </trkpt>
      <trkpt lat="49.52147" lon="3.56047">
        <ele>127.2</ele>
        <time>2014-10-15T07:40:18.123Z</time>
      </trkpt>
      <trkpt lat="49.52146" lon="3.56046">
        <ele>127.2</ele>
        <time>2014-10-15T07:40:19.155Z</time>
      </trkpt>
      <trkpt lat="49.52138" lon="3.56041">
        <ele>128.4</ele>
        <time>2014-10-15T07:40:26.123Z</time>
      </trkpt>
      <trkpt lat="49.52136" lon="3.5604">
        <ele>128.4</ele>
        <time>2014-10-15T07:40:27.113Z</time>
      </trkpt>
      <trkpt lat="49.52129" lon="3.56035">
        <ele>128.6</ele>
        <time>2014-10-15T07:40:34.192Z</time>
      </trkpt>
      <trkpt lat="49.52128" lon="3.56034">
        <ele>128.5</ele>
        <time>2014-10-15T07:40:35.191Z</time>
      </trkpt>
      <trkpt lat="49.52121" lon="3.56028">
        <ele>128.1</ele>
        <time>2014-10-15T07:40:40.126Z</time>
      </trkpt>
      <trkpt lat="49.5212" lon="3.56027">
        <ele>127.9</ele>
        <time>2014-10-15T07:40:41.136Z</time>
      </trkpt>
      <trkpt lat="49.52111" lon="3.56022">
        <ele>127.5</ele>
        <time>2014-10-15T07:40:47.831Z</time>
      </trkpt>
      <trkpt lat="49.5211" lon="3.56021">
        <ele>127.6</ele>
        <time>2014-10-15T07:40:48.199Z</time>
      </trkpt>
      <trkpt lat="49.52103" lon="3.56016">
        <ele>127.3</ele>
        <time>2014-10-15T07:40:54.135Z</time>
      </trkpt>
      <trkpt lat="49.52102" lon="3.56015">
        <ele>127.4</ele>
        <time>2014-10-15T07:40:55.147Z</time>
      </trkpt>
      <trkpt lat="49.52094" lon="3.56009">
        <ele>128.4</ele>
        <time>2014-10-15T07:41:01.229Z</time>
      </trkpt>
      <trkpt lat="49.52093" lon="3.56008">
        <ele>128.6</ele>
        <time>2014-10-15T07:41:02.127Z</time>
      </trkpt>
      <trkpt lat="49.52085" lon="3.56004">
        <ele>129.5</ele>
        <time>2014-10-15T07:41:07.268Z</time>
      </trkpt>
      <trkpt lat="49.52084" lon="3.56003">
        <ele>129.8</ele>
        <time>2014-10-15T07:41:08.176Z</time>
      </trkpt>
      <trkpt lat="49.52077" lon="3.55998">
        <ele>131.1</ele>
        <time>2014-10-15T07:41:14.145Z</time>
      </trkpt>
      <trkpt lat="49.52075" lon="3.55997">
        <ele>131.2</ele>
        <time>2014-10-15T07:41:15.150Z</time>
      </trkpt>
      <trkpt lat="49.52068" lon="3.55991">
        <ele>131.4</ele>
        <time>2014-10-15T07:41:21.092Z</time>
      </trkpt>
      <trkpt lat="49.52067" lon="3.5599">
        <ele>131.6</ele>
        <time>2014-10-15T07:41:22.103Z</time>
      </trkpt>
      <trkpt lat="49.52059" lon="3.55985">
        <ele>132.9</ele>
        <time>2014-10-15T07:41:28.163Z</time>
      </trkpt>
      <trkpt lat="49.52058" lon="3.55984">
        <ele>132.9</ele>
        <time>2014-10-15T07:41:29.170Z</time>
      </trkpt>
      <trkpt lat="49.52051" lon="3.55978">
        <ele>133.2</ele>
        <time>2014-10-15T07:41:35.105Z</time>
      </trkpt>
      <trkpt lat="49.5205" lon="3.55977">
        <ele>133</ele>
        <time>2014-10-15T07:41:36.111Z</time>
      </trkpt>
      <trkpt lat="49.52042" lon="3.55971">
        <ele>132.2</ele>
        <time>2014-10-15T07:41:43.175Z</time>
      </trkpt>
      <trkpt lat="49.52041" lon="3.5597">
        <ele>132</ele>
        <time>2014-10-15T07:41:44.182Z</time>
      </trkpt>
      <trkpt lat="49.52034" lon="3.55963">
        <ele>130.8</ele>
        <time>2014-10-15T07:41:51.163Z</time>
      </trkpt>
      <trkpt lat="49.52033" lon="3.55962">
        <ele>130.6</ele>
        <time>2014-10-15T07:41:52.178Z</time>
      </trkpt>
      <trkpt lat="49.52025" lon="3.55955">
        <ele>129.5</ele>
        <time>2014-10-15T07:41:59.157Z</time>
      </trkpt>
      <trkpt lat="49.52024" lon="3.55954">
        <ele>129.3</ele>
        <time>2014-10-15T07:42:00.165Z</time>
      </trkpt>
      <trkpt lat="49.52016" lon="3.55949">
        <ele>128.3</ele>
        <time>2014-10-15T07:42:06.111Z</time>
      </trkpt>
      <trkpt lat="49.52015" lon="3.55948">
        <ele>128.3</ele>
        <time>2014-10-15T07:42:07.138Z</time>
      </trkpt>
      <trkpt lat="49.52008" lon="3.55942">
        <ele>128.2</ele>
        <time>2014-10-15T07:42:14.183Z</time>
      </trkpt>
      <trkpt lat="49.52006" lon="3.55942">
        <ele>128.3</ele>
        <time>2014-10-15T07:42:15.194Z</time>
      </trkpt>
      <trkpt lat="49.51998" lon="3.55937">
        <ele>128.8</ele>
        <time>2014-10-15T07:42:21.142Z</time>
      </trkpt>
      <trkpt lat="49.51997" lon="3.55936">
        <ele>129</ele>
        <time>2014-10-15T07:42:22.146Z</time>
      </trkpt>
      <trkpt lat="49.5199" lon="3.55929">
        <ele>128.6</ele>
        <time>2014-10-15T07:42:29.184Z</time>
      </trkpt>
      <trkpt lat="49.51989" lon="3.55928">
        <ele>128.4</ele>
        <time>2014-10-15T07:42:30.196Z</time>
      </trkpt>
      <trkpt lat="49.51983" lon="3.55921">
        <ele>128.2</ele>
        <time>2014-10-15T07:42:36.122Z</time>
      </trkpt>
      <trkpt lat="49.51981" lon="3.55919">
        <ele>128.2</ele>
        <time>2014-10-15T07:42:37.145Z</time>
      </trkpt>
      <trkpt lat="49.51975" lon="3.55912">
        <ele>127.6</ele>
        <time>2014-10-15T07:42:44.191Z</time>
      </trkpt>
      <trkpt lat="49.51974" lon="3.55911">
        <ele>127.5</ele>
        <time>2014-10-15T07:42:45.191Z</time>
      </trkpt>
      <trkpt lat="49.51966" lon="3.55906">
        <ele>126.7</ele>
        <time>2014-10-15T07:42:51.167Z</time>
      </trkpt>
      <trkpt lat="49.51965" lon="3.55905">
        <ele>126.5</ele>
        <time>2014-10-15T07:42:52.175Z</time>
      </trkpt>
      <trkpt lat="49.51958" lon="3.55898">
        <ele>126.4</ele>
        <time>2014-10-15T07:42:58.114Z</time>
      </trkpt>
      <trkpt lat="49.51957" lon="3.55897">
        <ele>126.4</ele>
        <time>2014-10-15T07:42:59.120Z</time>
      </trkpt>
      <trkpt lat="49.5195" lon="3.55892">
        <ele>125.8</ele>
        <time>2014-10-15T07:43:05.195Z</time>
      </trkpt>
      <trkpt lat="49.51948" lon="3.55891">
        <ele>125.7</ele>
        <time>2014-10-15T07:43:06.094Z</time>
      </trkpt>
      <trkpt lat="49.51941" lon="3.55885">
        <ele>125.5</ele>
        <time>2014-10-15T07:43:13.139Z</time>
      </trkpt>
      <trkpt lat="49.5194" lon="3.55883">
        <ele>125.5</ele>
        <time>2014-10-15T07:43:14.144Z</time>
      </trkpt>
      <trkpt lat="49.51933" lon="3.55876">
        <ele>125.2</ele>
        <time>2014-10-15T07:43:21.106Z</time>
      </trkpt>
      <trkpt lat="49.51932" lon="3.55875">
        <ele>125.2</ele>
        <time>2014-10-15T07:43:22.107Z</time>
      </trkpt>
      <trkpt lat="49.51924" lon="3.55871">
        <ele>124.8</ele>
        <time>2014-10-15T07:43:28.161Z</time>
      </trkpt>
      <trkpt lat="49.51923" lon="3.5587">
        <ele>124.8</ele>
        <time>2014-10-15T07:43:29.166Z</time>
      </trkpt>
      <trkpt lat="49.51915" lon="3.55864">
        <ele>124</ele>
        <time>2014-10-15T07:43:35.110Z</time>
      </trkpt>
      <trkpt lat="49.51914" lon="3.55863">
        <ele>124.1</ele>
        <time>2014-10-15T07:43:36.106Z</time>
      </trkpt>
      <trkpt lat="49.51907" lon="3.55857">
        <ele>122.5</ele>
        <time>2014-10-15T07:43:43.179Z</time>
      </trkpt>
      <trkpt lat="49.51905" lon="3.55855">
        <ele>122.3</ele>
        <time>2014-10-15T07:43:44.185Z</time>
      </trkpt>
      <trkpt lat="49.51898" lon="3.55848">
        <ele>121.9</ele>
        <time>2014-10-15T07:43:50.152Z</time>
      </trkpt>
      <trkpt lat="49.51897" lon="3.55847">
        <ele>121.8</ele>
        <time>2014-10-15T07:43:51.150Z</time>
      </trkpt>
      <trkpt lat="49.51891" lon="3.5584">
        <ele>121.7</ele>
        <time>2014-10-15T07:43:57.184Z</time>
      </trkpt>
      <trkpt lat="49.5189" lon="3.55839">
        <ele>121.8</ele>
        <time>2014-10-15T07:43:58.187Z</time>
      </trkpt>
      <trkpt lat="49.51883" lon="3.55831">
        <ele>122</ele>
        <time>2014-10-15T07:44:04.157Z</time>
      </trkpt>
      <trkpt lat="49.51881" lon="3.55829">
        <ele>122.1</ele>
        <time>2014-10-15T07:44:05.161Z</time>
      </trkpt>
      <trkpt lat="49.51874" lon="3.55822">
        <ele>122.2</ele>
        <time>2014-10-15T07:44:11.108Z</time>
      </trkpt>
      <trkpt lat="49.51873" lon="3.55821">
        <ele>122.2</ele>
        <time>2014-10-15T07:44:12.111Z</time>
      </trkpt>
      <trkpt lat="49.51866" lon="3.55814">
        <ele>121.5</ele>
        <time>2014-10-15T07:44:19.167Z</time>
      </trkpt>
      <trkpt lat="49.51865" lon="3.55813">
        <ele>121.4</ele>
        <time>2014-10-15T07:44:20.183Z</time>
      </trkpt>
      <trkpt lat="49.51857" lon="3.55805">
        <ele>121.1</ele>
        <time>2014-10-15T07:44:27.258Z</time>
      </trkpt>
      <trkpt lat="49.51856" lon="3.55804">
        <ele>121.1</ele>
        <time>2014-10-15T07:44:28.197Z</time>
      </trkpt>
      <trkpt lat="49.51848" lon="3.55796">
        <ele>120.9</ele>
        <time>2014-10-15T07:44:34.153Z</time>
      </trkpt>
      <trkpt lat="49.51847" lon="3.55795">
        <ele>120.7</ele>
        <time>2014-10-15T07:44:35.156Z</time>
      </trkpt>
      <trkpt lat="49.5184" lon="3.55787">
        <ele>120.2</ele>
        <time>2014-10-15T07:44:44.113Z</time>
      </trkpt>
      <trkpt lat="49.51838" lon="3.55786">
        <ele>119.8</ele>
        <time>2014-10-15T07:44:45.112Z</time>
      </trkpt>
      <trkpt lat="49.51832" lon="3.5578">
        <ele>119.9</ele>
        <time>2014-10-15T07:44:52.451Z</time>
      </trkpt>
      <trkpt lat="49.5183" lon="3.55779">
        <ele>119.9</ele>
        <time>2014-10-15T07:44:53.173Z</time>
      </trkpt>
      <trkpt lat="49.51823" lon="3.55772">
        <ele>119.6</ele>
        <time>2014-10-15T07:44:59.112Z</time>
      </trkpt>
      <trkpt lat="49.51822" lon="3.55771">
        <ele>119.6</ele>
        <time>2014-10-15T07:45:00.117Z</time>
      </trkpt>
      <trkpt lat="49.51815" lon="3.55763">
        <ele>119.3</ele>
        <time>2014-10-15T07:45:07.197Z</time>
      </trkpt>
      <trkpt lat="49.51814" lon="3.55762">
        <ele>119.3</ele>
        <time>2014-10-15T07:45:08.169Z</time>
      </trkpt>
      <trkpt lat="49.51808" lon="3.55756">
        <ele>119.3</ele>
        <time>2014-10-15T07:45:15.149Z</time>
      </trkpt>
      <trkpt lat="49.51807" lon="3.55755">
        <ele>119.3</ele>
        <time>2014-10-15T07:45:16.158Z</time>
      </trkpt>
      <trkpt lat="49.51799" lon="3.55749">
        <ele>119.8</ele>
        <time>2014-10-15T07:45:22.485Z</time>
      </trkpt>
      <trkpt lat="49.51797" lon="3.55748">
        <ele>119.9</ele>
        <time>2014-10-15T07:45:23.105Z</time>
      </trkpt>
      <trkpt lat="49.5179" lon="3.55741">
        <ele>120.1</ele>
        <time>2014-10-15T07:45:29.181Z</time>
      </trkpt>
      <trkpt lat="49.51788" lon="3.5574">
        <ele>119.9</ele>
        <time>2014-10-15T07:45:30.191Z</time>
      </trkpt>
      <trkpt lat="49.51782" lon="3.55732">
        <ele>119.7</ele>
        <time>2014-10-15T07:45:36.142Z</time>
      </trkpt>
      <trkpt lat="49.51781" lon="3.55731">
        <ele>119.7</ele>
        <time>2014-10-15T07:45:37.149Z</time>
      </trkpt>
      <trkpt lat="49.51774" lon="3.55723">
        <ele>119.5</ele>
        <time>2014-10-15T07:45:43.136Z</time>
      </trkpt>
      <trkpt lat="49.51773" lon="3.55722">
        <ele>119.5</ele>
        <time>2014-10-15T07:45:44.123Z</time>
      </trkpt>
      <trkpt lat="49.51767" lon="3.55713">
        <ele>119.6</ele>
        <time>2014-10-15T07:45:50.177Z</time>
      </trkpt>
      <trkpt lat="49.51765" lon="3.55712">
        <ele>119.6</ele>
        <time>2014-10-15T07:45:51.181Z</time>
      </trkpt>
      <trkpt lat="49.51758" lon="3.55704">
        <ele>119.8</ele>
        <time>2014-10-15T07:45:57.138Z</time>
      </trkpt>
      <trkpt lat="49.51757" lon="3.55703">
        <ele>119.9</ele>
        <time>2014-10-15T07:45:58.137Z</time>
      </trkpt>
      <trkpt lat="49.51751" lon="3.55693">
        <ele>120</ele>
        <time>2014-10-15T07:46:04.109Z</time>
      </trkpt>
      <trkpt lat="49.5175" lon="3.55692">
        <ele>120.1</ele>
        <time>2014-10-15T07:46:05.111Z</time>
      </trkpt>
      <trkpt lat="49.51749" lon="3.55687">
        <ele>119.2</ele>
        <time>2014-10-15T07:46:09.138Z</time>
      </trkpt>
      <trkpt lat="49.51749" lon="3.55686">
        <ele>119</ele>
        <time>2014-10-15T07:46:10.137Z</time>
      </trkpt>
      <trkpt lat="49.51748" lon="3.55686">
        <ele>118.3</ele>
        <time>2014-10-15T07:46:12.224Z</time>
      </trkpt>
      <trkpt lat="49.51747" lon="3.55684">
        <ele>117.1</ele>
        <time>2014-10-15T07:46:13.165Z</time>
      </trkpt>
      <trkpt lat="49.51742" lon="3.55675">
        <ele>116.6</ele>
        <time>2014-10-15T07:46:19.196Z</time>
      </trkpt>
      <trkpt lat="49.51741" lon="3.55674">
        <ele>116.7</ele>
        <time>2014-10-15T07:46:20.100Z</time>
      </trkpt>
      <trkpt lat="49.51735" lon="3.55664">
        <ele>117.9</ele>
        <time>2014-10-15T07:46:25.140Z</time>
      </trkpt>
      <trkpt lat="49.51734" lon="3.55662">
        <ele>117.9</ele>
        <time>2014-10-15T07:46:26.149Z</time>
      </trkpt>
      <trkpt lat="49.51729" lon="3.55652">
        <ele>117.9</ele>
        <time>2014-10-15T07:46:30.182Z</time>
      </trkpt>
      <trkpt lat="49.51728" lon="3.5565">
        <ele>117.8</ele>
        <time>2014-10-15T07:46:31.188Z</time>
      </trkpt>
      <trkpt lat="49.51722" lon="3.55643">
        <ele>118.2</ele>
        <time>2014-10-15T07:46:34.110Z</time>
      </trkpt>
      <trkpt lat="49.5172" lon="3.5564">
        <ele>118.3</ele>
        <time>2014-10-15T07:46:35.111Z</time>
      </trkpt>
      <trkpt lat="49.51715" lon="3.5563">
        <ele>118.5</ele>
        <time>2014-10-15T07:46:40.169Z</time>
      </trkpt>
      <trkpt lat="49.51715" lon="3.55629">
        <ele>118.5</ele>
        <time>2014-10-15T07:46:41.171Z</time>
      </trkpt>
      <trkpt lat="49.5171" lon="3.55618">
        <ele>117.8</ele>
        <time>2014-10-15T07:46:48.138Z</time>
      </trkpt>
      <trkpt lat="49.51709" lon="3.55616">
        <ele>117.7</ele>
        <time>2014-10-15T07:46:49.142Z</time>
      </trkpt>
      <trkpt lat="49.51705" lon="3.55607">
        <ele>118.3</ele>
        <time>2014-10-15T07:46:55.202Z</time>
      </trkpt>
      <trkpt lat="49.51704" lon="3.55605">
        <ele>118.1</ele>
        <time>2014-10-15T07:46:56.112Z</time>
      </trkpt>
      <trkpt lat="49.517" lon="3.55592">
        <ele>117.5</ele>
        <time>2014-10-15T07:47:04.103Z</time>
      </trkpt>
      <trkpt lat="49.517" lon="3.55591">
        <ele>117.5</ele>
        <time>2014-10-15T07:47:05.103Z</time>
      </trkpt>
      <trkpt lat="49.517" lon="3.55578">
        <ele>119.1</ele>
        <time>2014-10-15T07:47:11.145Z</time>
      </trkpt>
      <trkpt lat="49.517" lon="3.55575">
        <ele>119.1</ele>
        <time>2014-10-15T07:47:12.152Z</time>
      </trkpt>
      <trkpt lat="49.51699" lon="3.55563">
        <ele>120.8</ele>
        <time>2014-10-15T07:47:17.737Z</time>
      </trkpt>
      <trkpt lat="49.51698" lon="3.5556">
        <ele>120.8</ele>
        <time>2014-10-15T07:47:18.129Z</time>
      </trkpt>
      <trkpt lat="49.51696" lon="3.55548">
        <ele>121.2</ele>
        <time>2014-10-15T07:47:26.178Z</time>
      </trkpt>
      <trkpt lat="49.51695" lon="3.55547">
        <ele>121.2</ele>
        <time>2014-10-15T07:47:27.183Z</time>
      </trkpt>
      <trkpt lat="49.51693" lon="3.55536">
        <ele>122.7</ele>
        <time>2014-10-15T07:47:37.916Z</time>
      </trkpt>
      <trkpt lat="49.51692" lon="3.55534">
        <ele>122.9</ele>
        <time>2014-10-15T07:47:38.189Z</time>
      </trkpt>
      <trkpt lat="49.51688" lon="3.55523">
        <ele>123.5</ele>
        <time>2014-10-15T07:47:42.935Z</time>
      </trkpt>
      <trkpt lat="49.51688" lon="3.55521">
        <ele>123.5</ele>
        <time>2014-10-15T07:47:43.137Z</time>
      </trkpt>
      <trkpt lat="49.51687" lon="3.55507">
        <ele>123.7</ele>
        <time>2014-10-15T07:47:49.176Z</time>
      </trkpt>
      <trkpt lat="49.51687" lon="3.55505">
        <ele>123.8</ele>
        <time>2014-10-15T07:47:50.182Z</time>
      </trkpt>
      <trkpt lat="49.51684" lon="3.55492">
        <ele>125.1</ele>
        <time>2014-10-15T07:47:55.123Z</time>
      </trkpt>
      <trkpt lat="49.51684" lon="3.5549">
        <ele>125.2</ele>
        <time>2014-10-15T07:47:56.144Z</time>
      </trkpt>
      <trkpt lat="49.5168" lon="3.5548">
        <ele>125.6</ele>
        <time>2014-10-15T07:48:02.139Z</time>
      </trkpt>
      <trkpt lat="49.51679" lon="3.55478">
        <ele>125.6</ele>
        <time>2014-10-15T07:48:02.188Z</time>
      </trkpt>
      <trkpt lat="49.51676" lon="3.55466">
        <ele>125.9</ele>
        <time>2014-10-15T07:48:10.195Z</time>
      </trkpt>
      <trkpt lat="49.51676" lon="3.55464">
        <ele>126.2</ele>
        <time>2014-10-15T07:48:11.104Z</time>
      </trkpt>
      <trkpt lat="49.51674" lon="3.55452">
        <ele>126.5</ele>
        <time>2014-10-15T07:48:19.166Z</time>
      </trkpt>
      <trkpt lat="49.51673" lon="3.5545">
        <ele>126.5</ele>
        <time>2014-10-15T07:48:20.172Z</time>
      </trkpt>
      <trkpt lat="49.51671" lon="3.55442">
        <ele>126.7</ele>
        <time>2014-10-15T07:48:25.222Z</time>
      </trkpt>
      <trkpt lat="49.51671" lon="3.55441">
        <ele>126.7</ele>
        <time>2014-10-15T07:48:26.110Z</time>
      </trkpt>
      <trkpt lat="49.51671" lon="3.55439">
        <ele>126.6</ele>
        <time>2014-10-15T07:48:27.125Z</time>
      </trkpt>
      <trkpt lat="49.51668" lon="3.55428">
        <ele>126.2</ele>
        <time>2014-10-15T07:48:32.524Z</time>
      </trkpt>
      <trkpt lat="49.51667" lon="3.55427">
        <ele>126.4</ele>
        <time>2014-10-15T07:48:33.167Z</time>
      </trkpt>
      <trkpt lat="49.51663" lon="3.55416">
        <ele>127.7</ele>
        <time>2014-10-15T07:48:39.152Z</time>
      </trkpt>
      <trkpt lat="49.51662" lon="3.55414">
        <ele>128.1</ele>
        <time>2014-10-15T07:48:40.160Z</time>
      </trkpt>
      <trkpt lat="49.51655" lon="3.55406">
        <ele>128.8</ele>
        <time>2014-10-15T07:48:46.099Z</time>
      </trkpt>
      <trkpt lat="49.51654" lon="3.55405">
        <ele>128.8</ele>
        <time>2014-10-15T07:48:47.110Z</time>
      </trkpt>
      <trkpt lat="49.51648" lon="3.55398">
        <ele>129</ele>
        <time>2014-10-15T07:48:52.757Z</time>
      </trkpt>
      <trkpt lat="49.51647" lon="3.55396">
        <ele>128.9</ele>
        <time>2014-10-15T07:48:53.167Z</time>
      </trkpt>
      <trkpt lat="49.51644" lon="3.55384">
        <ele>129.3</ele>
        <time>2014-10-15T07:49:03.139Z</time>
      </trkpt>
      <trkpt lat="49.51644" lon="3.55382">
        <ele>129.1</ele>
        <time>2014-10-15T07:49:04.142Z</time>
      </trkpt>
      <trkpt lat="49.51639" lon="3.55371">
        <ele>129.7</ele>
        <time>2014-10-15T07:49:12.378Z</time>
      </trkpt>
      <trkpt lat="49.51638" lon="3.5537">
        <ele>129.7</ele>
        <time>2014-10-15T07:49:13.129Z</time>
      </trkpt>
      <trkpt lat="49.51631" lon="3.55363">
        <ele>130.4</ele>
        <time>2014-10-15T07:49:21.094Z</time>
      </trkpt>
      <trkpt lat="49.5163" lon="3.55362">
        <ele>130.7</ele>
        <time>2014-10-15T07:49:22.094Z</time>
      </trkpt>
      <trkpt lat="49.51622" lon="3.55357">
        <ele>131</ele>
        <time>2014-10-15T07:49:30.165Z</time>
      </trkpt>
      <trkpt lat="49.5162" lon="3.55356">
        <ele>131</ele>
        <time>2014-10-15T07:49:31.174Z</time>
      </trkpt>
      <trkpt lat="49.51618" lon="3.55353">
        <ele>131.5</ele>
        <time>2014-10-15T07:49:35.101Z</time>
      </trkpt>
      <trkpt lat="49.51618" lon="3.55352">
        <ele>131.4</ele>
        <time>2014-10-15T07:49:36.103Z</time>
      </trkpt>
      <trkpt lat="49.51617" lon="3.55351">
        <ele>131.5</ele>
        <time>2014-10-15T07:49:37.128Z</time>
      </trkpt>
      <trkpt lat="49.51612" lon="3.55343">
        <ele>131.4</ele>
        <time>2014-10-15T07:49:44.191Z</time>
      </trkpt>
      <trkpt lat="49.51612" lon="3.55342">
        <ele>131.5</ele>
        <time>2014-10-15T07:49:45.092Z</time>
      </trkpt>
      <trkpt lat="49.51611" lon="3.5534">
        <ele>131.6</ele>
        <time>2014-10-15T07:49:46.097Z</time>
      </trkpt>
      <trkpt lat="49.51608" lon="3.55329">
        <ele>131.6</ele>
        <time>2014-10-15T07:49:52.164Z</time>
      </trkpt>
      <trkpt lat="49.51607" lon="3.55327">
        <ele>131.7</ele>
        <time>2014-10-15T07:49:53.172Z</time>
      </trkpt>
      <trkpt lat="49.51607" lon="3.55327">
        <ele>131.7</ele>
        <time>2014-10-15T07:49:53.305Z</time>
      </trkpt>
      <trkpt lat="49.51607" lon="3.55325">
        <ele>131.9</ele>
        <time>2014-10-15T07:49:54.181Z</time>
      </trkpt>
      <trkpt lat="49.51606" lon="3.55322">
        <ele>132.4</ele>
        <time>2014-10-15T07:49:57.106Z</time>
      </trkpt>
      <trkpt lat="49.51607" lon="3.5532">
        <ele>132.7</ele>
        <time>2014-10-15T07:49:57.129Z</time>
      </trkpt>
      <trkpt lat="49.51607" lon="3.55318">
        <ele>132.9</ele>
        <time>2014-10-15T07:49:58.114Z</time>
      </trkpt>
      <trkpt lat="49.51607" lon="3.55313">
        <ele>133.2</ele>
        <time>2014-10-15T07:50:01.150Z</time>
      </trkpt>
      <trkpt lat="49.51607" lon="3.55311">
        <ele>133.2</ele>
        <time>2014-10-15T07:50:02.152Z</time>
      </trkpt>
      <trkpt lat="49.51607" lon="3.55311">
        <ele>133.2</ele>
        <time>2014-10-15T07:50:02.304Z</time>
      </trkpt>
      <trkpt lat="49.51607" lon="3.5531">
        <ele>133.2</ele>
        <time>2014-10-15T07:50:03.156Z</time>
      </trkpt>
      <trkpt lat="49.51607" lon="3.55309">
        <ele>133.2</ele>
        <time>2014-10-15T07:50:11.104Z</time>
      </trkpt>
      <trkpt lat="49.51607" lon="3.55294">
        <ele>133.1</ele>
        <time>2014-10-15T07:50:12.110Z</time>
      </trkpt>
      <trkpt lat="49.51608" lon="3.55284">
        <ele>133</ele>
        <time>2014-10-15T07:50:17.814Z</time>
      </trkpt>
      <trkpt lat="49.51608" lon="3.55283">
        <ele>133.1</ele>
        <time>2014-10-15T07:50:18.162Z</time>
      </trkpt>
      <trkpt lat="49.51608" lon="3.55282">
        <ele>133.3</ele>
        <time>2014-10-15T07:50:19.169Z</time>
      </trkpt>
      <trkpt lat="49.51608" lon="3.55277">
        <ele>133.9</ele>
        <time>2014-10-15T07:50:22.105Z</time>
      </trkpt>
      <trkpt lat="49.51608" lon="3.55276">
        <ele>134</ele>
        <time>2014-10-15T07:50:23.102Z</time>
      </trkpt>
      <trkpt lat="49.51607" lon="3.55274">
        <ele>134.4</ele>
        <time>2014-10-15T07:50:24.104Z</time>
      </trkpt>
      <trkpt lat="49.51606" lon="3.55262">
        <ele>135.1</ele>
        <time>2014-10-15T07:50:30.174Z</time>
      </trkpt>
      <trkpt lat="49.51606" lon="3.55259">
        <ele>135.4</ele>
        <time>2014-10-15T07:50:31.178Z</time>
      </trkpt>
      <trkpt lat="49.51606" lon="3.55246">
        <ele>135.5</ele>
        <time>2014-10-15T07:50:43.484Z</time>
      </trkpt>
      <trkpt lat="49.51605" lon="3.55244">
        <ele>135.5</ele>
        <time>2014-10-15T07:50:44.175Z</time>
      </trkpt>
      <trkpt lat="49.51605" lon="3.5523">
        <ele>135.5</ele>
        <time>2014-10-15T07:50:51.137Z</time>
      </trkpt>
      <trkpt lat="49.51605" lon="3.55229">
        <ele>135.3</ele>
        <time>2014-10-15T07:50:52.141Z</time>
      </trkpt>
      <trkpt lat="49.51605" lon="3.55216">
        <ele>135.7</ele>
        <time>2014-10-15T07:50:57.170Z</time>
      </trkpt>
      <trkpt lat="49.51605" lon="3.55214">
        <ele>136.1</ele>
        <time>2014-10-15T07:50:58.176Z</time>
      </trkpt>
      <trkpt lat="49.51605" lon="3.5521">
        <ele>136.3</ele>
        <time>2014-10-15T07:51:00.186Z</time>
      </trkpt>
      <trkpt lat="49.51605" lon="3.55209">
        <ele>136.4</ele>
        <time>2014-10-15T07:51:01.197Z</time>
      </trkpt>
      <trkpt lat="49.51605" lon="3.55209">
        <ele>136.4</ele>
        <time>2014-10-15T07:51:02.129Z</time>
      </trkpt>
      <trkpt lat="49.51605" lon="3.55208">
        <ele>136.3</ele>
        <time>2014-10-15T07:51:03.105Z</time>
      </trkpt>
      <trkpt lat="49.51604" lon="3.55198">
        <ele>137.3</ele>
        <time>2014-10-15T07:51:09.139Z</time>
      </trkpt>
      <trkpt lat="49.51604" lon="3.55195">
        <ele>137.4</ele>
        <time>2014-10-15T07:51:10.146Z</time>
      </trkpt>
      <trkpt lat="49.51604" lon="3.55193">
        <ele>137.3</ele>
        <time>2014-10-15T07:51:11.154Z</time>
      </trkpt>
      <trkpt lat="49.516" lon="3.55182">
        <ele>137.4</ele>
        <time>2014-10-15T07:51:16.189Z</time>
      </trkpt>
      <trkpt lat="49.51599" lon="3.5518">
        <ele>137.6</ele>
        <time>2014-10-15T07:51:17.191Z</time>
      </trkpt>
      <trkpt lat="49.51593" lon="3.5517">
        <ele>138.9</ele>
        <time>2014-10-15T07:51:26.176Z</time>
      </trkpt>
      <trkpt lat="49.51592" lon="3.55168">
        <ele>139.3</ele>
        <time>2014-10-15T07:51:27.181Z</time>
      </trkpt>
      <trkpt lat="49.51592" lon="3.55168">
        <ele>139.3</ele>
        <time>2014-10-15T07:51:27.795Z</time>
      </trkpt>
      <trkpt lat="49.51592" lon="3.55167">
        <ele>139.3</ele>
        <time>2014-10-15T07:51:28.197Z</time>
      </trkpt>
      <trkpt lat="49.51592" lon="3.55166">
        <ele>139.3</ele>
        <time>2014-10-15T07:51:29.103Z</time>
      </trkpt>
      <trkpt lat="49.51594" lon="3.55154">
        <ele>140.7</ele>
        <time>2014-10-15T07:51:36.166Z</time>
      </trkpt>
      <trkpt lat="49.51596" lon="3.55153">
        <ele>141</ele>
        <time>2014-10-15T07:51:37.179Z</time>
      </trkpt>
      <trkpt lat="49.516" lon="3.55141">
        <ele>141.8</ele>
        <time>2014-10-15T07:51:44.127Z</time>
      </trkpt>
      <trkpt lat="49.516" lon="3.55139">
        <ele>142.1</ele>
        <time>2014-10-15T07:51:45.137Z</time>
      </trkpt>
      <trkpt lat="49.516" lon="3.55133">
        <ele>142.5</ele>
        <time>2014-10-15T07:51:53.208Z</time>
      </trkpt>
      <trkpt lat="49.51601" lon="3.55125">
        <ele>143.5</ele>
        <time>2014-10-15T07:51:54.106Z</time>
      </trkpt>
      <trkpt lat="49.51603" lon="3.55121">
        <ele>144.5</ele>
        <time>2014-10-15T07:51:57.138Z</time>
      </trkpt>
      <trkpt lat="49.51602" lon="3.55119">
        <ele>144.9</ele>
        <time>2014-10-15T07:51:58.151Z</time>
      </trkpt>
      <trkpt lat="49.51603" lon="3.55117">
        <ele>145.4</ele>
        <time>2014-10-15T07:51:59.156Z</time>
      </trkpt>
      <trkpt lat="49.51602" lon="3.55115">
        <ele>145.8</ele>
        <time>2014-10-15T07:52:00.172Z</time>
      </trkpt>
      <trkpt lat="49.51603" lon="3.55108">
        <ele>147.2</ele>
        <time>2014-10-15T07:52:04.104Z</time>
      </trkpt>
      <trkpt lat="49.51603" lon="3.55106">
        <ele>147.2</ele>
        <time>2014-10-15T07:52:05.113Z</time>
      </trkpt>
      <trkpt lat="49.51603" lon="3.55105">
        <ele>147.4</ele>
        <time>2014-10-15T07:52:09.153Z</time>
      </trkpt>
      <trkpt lat="49.51602" lon="3.55099">
        <ele>148</ele>
        <time>2014-10-15T07:52:10.160Z</time>
      </trkpt>
      <trkpt lat="49.51602" lon="3.55086">
        <ele>148.4</ele>
        <time>2014-10-15T07:52:18.136Z</time>
      </trkpt>
      <trkpt lat="49.51602" lon="3.55084">
        <ele>148.4</ele>
        <time>2014-10-15T07:52:19.153Z</time>
      </trkpt>
      <trkpt lat="49.51602" lon="3.55071">
        <ele>148.8</ele>
        <time>2014-10-15T07:52:26.196Z</time>
      </trkpt>
      <trkpt lat="49.51602" lon="3.55069">
        <ele>149.3</ele>
        <time>2014-10-15T07:52:27.113Z</time>
      </trkpt>
      <trkpt lat="49.51604" lon="3.55058">
        <ele>148.4</ele>
        <time>2014-10-15T07:52:35.166Z</time>
      </trkpt>
      <trkpt lat="49.51605" lon="3.55054">
        <ele>147.6</ele>
        <time>2014-10-15T07:52:36.170Z</time>
      </trkpt>
      <trkpt lat="49.51609" lon="3.55043">
        <ele>147</ele>
        <time>2014-10-15T07:52:41.118Z</time>
      </trkpt>
      <trkpt lat="49.51609" lon="3.55042">
        <ele>146.5</ele>
        <time>2014-10-15T07:52:42.127Z</time>
      </trkpt>
      <trkpt lat="49.51611" lon="3.55029">
        <ele>144.4</ele>
        <time>2014-10-15T07:52:48.182Z</time>
      </trkpt>
      <trkpt lat="49.51611" lon="3.55027">
        <ele>144.7</ele>
        <time>2014-10-15T07:52:49.188Z</time>
      </trkpt>
      <trkpt lat="49.51613" lon="3.55014">
        <ele>145.6</ele>
        <time>2014-10-15T07:52:55.143Z</time>
      </trkpt>
      <trkpt lat="49.51612" lon="3.55011">
        <ele>145.7</ele>
        <time>2014-10-15T07:52:56.146Z</time>
      </trkpt>
      <trkpt lat="49.51611" lon="3.55001">
        <ele>146.8</ele>
        <time>2014-10-15T07:53:00.174Z</time>
      </trkpt>
      <trkpt lat="49.5161" lon="3.54997">
        <ele>147</ele>
        <time>2014-10-15T07:53:01.230Z</time>
      </trkpt>
      <trkpt lat="49.51607" lon="3.54985">
        <ele>147.8</ele>
        <time>2014-10-15T07:53:08.151Z</time>
      </trkpt>
      <trkpt lat="49.51607" lon="3.54983">
        <ele>147.9</ele>
        <time>2014-10-15T07:53:09.153Z</time>
      </trkpt>
      <trkpt lat="49.51609" lon="3.54971">
        <ele>147.9</ele>
        <time>2014-10-15T07:53:16.114Z</time>
      </trkpt>
      <trkpt lat="49.51609" lon="3.54969">
        <ele>147.6</ele>
        <time>2014-10-15T07:53:17.116Z</time>
      </trkpt>
      <trkpt lat="49.51607" lon="3.54956">
        <ele>148.8</ele>
        <time>2014-10-15T07:53:24.178Z</time>
      </trkpt>
      <trkpt lat="49.51606" lon="3.54954">
        <ele>149</ele>
        <time>2014-10-15T07:53:25.206Z</time>
      </trkpt>
      <trkpt lat="49.51606" lon="3.54941">
        <ele>150.4</ele>
        <time>2014-10-15T07:53:31.161Z</time>
      </trkpt>
      <trkpt lat="49.51607" lon="3.54939">
        <ele>150.6</ele>
        <time>2014-10-15T07:53:32.180Z</time>
      </trkpt>
      <trkpt lat="49.51607" lon="3.54927">
        <ele>152.2</ele>
        <time>2014-10-15T07:53:39.152Z</time>
      </trkpt>
      <trkpt lat="49.51606" lon="3.54925">
        <ele>151.9</ele>
        <time>2014-10-15T07:53:40.165Z</time>
      </trkpt>
      <trkpt lat="49.51602" lon="3.54913">
        <ele>151.5</ele>
        <time>2014-10-15T07:53:48.128Z</time>
      </trkpt>
      <trkpt lat="49.51602" lon="3.54911">
        <ele>151.1</ele>
        <time>2014-10-15T07:53:49.146Z</time>
      </trkpt>
      <trkpt lat="49.516" lon="3.54901">
        <ele>149.7</ele>
        <time>2014-10-15T07:53:55.181Z</time>
      </trkpt>
      <trkpt lat="49.516" lon="3.549">
        <ele>149.5</ele>
        <time>2014-10-15T07:53:56.185Z</time>
      </trkpt>
      <trkpt lat="49.51599" lon="3.54899">
        <ele>149.5</ele>
        <time>2014-10-15T07:53:58.202Z</time>
      </trkpt>
      <trkpt lat="49.51598" lon="3.54896">
        <ele>149.2</ele>
        <time>2014-10-15T07:53:59.204Z</time>
      </trkpt>
      <trkpt lat="49.51598" lon="3.54895">
        <ele>149.1</ele>
        <time>2014-10-15T07:54:00.119Z</time>
      </trkpt>
      <trkpt lat="49.51599" lon="3.54895">
        <ele>149.1</ele>
        <time>2014-10-15T07:54:09.140Z</time>
      </trkpt>
      <trkpt lat="49.51598" lon="3.54885">
        <ele>148.2</ele>
        <time>2014-10-15T07:54:10.146Z</time>
      </trkpt>
      <trkpt lat="49.51597" lon="3.54883">
        <ele>148.3</ele>
        <time>2014-10-15T07:54:11.203Z</time>
      </trkpt>
      <trkpt lat="49.51596" lon="3.54882">
        <ele>148.3</ele>
        <time>2014-10-15T07:54:12.116Z</time>
      </trkpt>
      <trkpt lat="49.51595" lon="3.54879">
        <ele>148.6</ele>
        <time>2014-10-15T07:54:15.154Z</time>
      </trkpt>
      <trkpt lat="49.51595" lon="3.54876">
        <ele>149</ele>
        <time>2014-10-15T07:54:16.165Z</time>
      </trkpt>
      <trkpt lat="49.51597" lon="3.54864">
        <ele>150.7</ele>
        <time>2014-10-15T07:54:24.118Z</time>
      </trkpt>
      <trkpt lat="49.51597" lon="3.54862">
        <ele>150.8</ele>
        <time>2014-10-15T07:54:25.139Z</time>
      </trkpt>
      <trkpt lat="49.51598" lon="3.54849">
        <ele>152.3</ele>
        <time>2014-10-15T07:54:32.465Z</time>
      </trkpt>
      <trkpt lat="49.51598" lon="3.54847">
        <ele>152.6</ele>
        <time>2014-10-15T07:54:33.198Z</time>
      </trkpt>
      <trkpt lat="49.516" lon="3.54834">
        <ele>152.9</ele>
        <time>2014-10-15T07:54:38.138Z</time>
      </trkpt>
      <trkpt lat="49.516" lon="3.54833">
        <ele>153</ele>
        <time>2014-10-15T07:54:39.137Z</time>
      </trkpt>
      <trkpt lat="49.51604" lon="3.54821">
        <ele>152.7</ele>
        <time>2014-10-15T07:54:43.156Z</time>
      </trkpt>
      <trkpt lat="49.51604" lon="3.54819">
        <ele>152.6</ele>
        <time>2014-10-15T07:54:44.155Z</time>
      </trkpt>
      <trkpt lat="49.51604" lon="3.54807">
        <ele>153.1</ele>
        <time>2014-10-15T07:54:51.112Z</time>
      </trkpt>
      <trkpt lat="49.51604" lon="3.54805">
        <ele>153.1</ele>
        <time>2014-10-15T07:54:52.113Z</time>
      </trkpt>
      <trkpt lat="49.51604" lon="3.54805">
        <ele>153.1</ele>
        <time>2014-10-15T07:54:52.742Z</time>
      </trkpt>
      <trkpt lat="49.51604" lon="3.54804">
        <ele>153.3</ele>
        <time>2014-10-15T07:54:53.120Z</time>
      </trkpt>
      <trkpt lat="49.51604" lon="3.5479">
        <ele>153.6</ele>
        <time>2014-10-15T07:55:02.217Z</time>
      </trkpt>
      <trkpt lat="49.51605" lon="3.54788">
        <ele>153.5</ele>
        <time>2014-10-15T07:55:03.115Z</time>
      </trkpt>
      <trkpt lat="49.51604" lon="3.54786">
        <ele>153.6</ele>
        <time>2014-10-15T07:55:04.128Z</time>
      </trkpt>
      <trkpt lat="49.51604" lon="3.54786">
        <ele>153.6</ele>
        <time>2014-10-15T07:55:04.273Z</time>
      </trkpt>
      <trkpt lat="49.51604" lon="3.54784">
        <ele>153.6</ele>
        <time>2014-10-15T07:55:05.132Z</time>
      </trkpt>
      <trkpt lat="49.51603" lon="3.54772">
        <ele>153.9</ele>
        <time>2014-10-15T07:55:11.176Z</time>
      </trkpt>
      <trkpt lat="49.51603" lon="3.5477">
        <ele>153.9</ele>
        <time>2014-10-15T07:55:12.207Z</time>
      </trkpt>
      <trkpt lat="49.51603" lon="3.54769">
        <ele>154.1</ele>
        <time>2014-10-15T07:55:13.215Z</time>
      </trkpt>
      <trkpt lat="49.51605" lon="3.54757">
        <ele>154.8</ele>
        <time>2014-10-15T07:55:20.191Z</time>
      </trkpt>
      <trkpt lat="49.51605" lon="3.54755">
        <ele>154.8</ele>
        <time>2014-10-15T07:55:21.197Z</time>
      </trkpt>
      <trkpt lat="49.51605" lon="3.54741">
        <ele>155.2</ele>
        <time>2014-10-15T07:55:29.177Z</time>
      </trkpt>
      <trkpt lat="49.51606" lon="3.54736">
        <ele>155.6</ele>
        <time>2014-10-15T07:55:30.117Z</time>
      </trkpt>
      <trkpt lat="49.5161" lon="3.54725">
        <ele>153</ele>
        <time>2014-10-15T07:55:35.131Z</time>
      </trkpt>
      <trkpt lat="49.5161" lon="3.54722">
        <ele>153.1</ele>
        <time>2014-10-15T07:55:36.135Z</time>
      </trkpt>
      <trkpt lat="49.5161" lon="3.54721">
        <ele>153</ele>
        <time>2014-10-15T07:55:37.322Z</time>
      </trkpt>
      <trkpt lat="49.51609" lon="3.54718">
        <ele>153.1</ele>
        <time>2014-10-15T07:55:38.160Z</time>
      </trkpt>
      <trkpt lat="49.5161" lon="3.54715">
        <ele>153.2</ele>
        <time>2014-10-15T07:55:39.163Z</time>
      </trkpt>
      <trkpt lat="49.51613" lon="3.54703">
        <ele>152.9</ele>
        <time>2014-10-15T07:55:44.208Z</time>
      </trkpt>
      <trkpt lat="49.51613" lon="3.54701">
        <ele>153</ele>
        <time>2014-10-15T07:55:45.120Z</time>
      </trkpt>
      <trkpt lat="49.51615" lon="3.54688">
        <ele>153.1</ele>
        <time>2014-10-15T07:55:53.600Z</time>
      </trkpt>
      <trkpt lat="49.51614" lon="3.54687">
        <ele>153.1</ele>
        <time>2014-10-15T07:55:54.573Z</time>
      </trkpt>
      <trkpt lat="49.51614" lon="3.54685">
        <ele>153.1</ele>
        <time>2014-10-15T07:55:55.522Z</time>
      </trkpt>
      <trkpt lat="49.51614" lon="3.54685">
        <ele>153.2</ele>
        <time>2014-10-15T07:55:56.537Z</time>
      </trkpt>
      <trkpt lat="49.51614" lon="3.54685">
        <ele>153.2</ele>
        <time>2014-10-15T07:55:57.569Z</time>
      </trkpt>
      <trkpt lat="49.51617" lon="3.54677">
        <ele>153.9</ele>
        <time>2014-10-15T07:56:05.508Z</time>
      </trkpt>
      <trkpt lat="49.51617" lon="3.54676">
        <ele>153.9</ele>
        <time>2014-10-15T07:56:06.664Z</time>
      </trkpt>
      <trkpt lat="49.51617" lon="3.54673">
        <ele>154</ele>
        <time>2014-10-15T07:56:14.619Z</time>
      </trkpt>
      <trkpt lat="49.51617" lon="3.54662">
        <ele>154.4</ele>
        <time>2014-10-15T07:56:15.503Z</time>
      </trkpt>
      <trkpt lat="49.51617" lon="3.54651">
        <ele>154.1</ele>
        <time>2014-10-15T07:56:19.577Z</time>
      </trkpt>
      <trkpt lat="49.51616" lon="3.54647">
        <ele>154</ele>
        <time>2014-10-15T07:56:20.542Z</time>
      </trkpt>
      <trkpt lat="49.51619" lon="3.54634">
        <ele>154</ele>
        <time>2014-10-15T07:56:24.576Z</time>
      </trkpt>
      <trkpt lat="49.51619" lon="3.54631">
        <ele>153.9</ele>
        <time>2014-10-15T07:56:25.575Z</time>
      </trkpt>
      <trkpt lat="49.51617" lon="3.54622">
        <ele>154.5</ele>
        <time>2014-10-15T07:56:29.510Z</time>
      </trkpt>
      <trkpt lat="49.51617" lon="3.5462">
        <ele>154.5</ele>
        <time>2014-10-15T07:56:30.525Z</time>
      </trkpt>
      <trkpt lat="49.51618" lon="3.54619">
        <ele>154.6</ele>
        <time>2014-10-15T07:56:31.531Z</time>
      </trkpt>
      <trkpt lat="49.5162" lon="3.54609">
        <ele>154.9</ele>
        <time>2014-10-15T07:56:36.575Z</time>
      </trkpt>
      <trkpt lat="49.51622" lon="3.54605">
        <ele>155.4</ele>
        <time>2014-10-15T07:56:37.600Z</time>
      </trkpt>
      <trkpt lat="49.51626" lon="3.54593">
        <ele>156.1</ele>
        <time>2014-10-15T07:56:41.513Z</time>
      </trkpt>
      <trkpt lat="49.51626" lon="3.54591">
        <ele>156.4</ele>
        <time>2014-10-15T07:56:42.517Z</time>
      </trkpt>
      <trkpt lat="49.51628" lon="3.54577">
        <ele>156.1</ele>
        <time>2014-10-15T07:56:49.629Z</time>
      </trkpt>
      <trkpt lat="49.51628" lon="3.54575">
        <ele>156.1</ele>
        <time>2014-10-15T07:56:50.555Z</time>
      </trkpt>
      <trkpt lat="49.51628" lon="3.54562">
        <ele>155.9</ele>
        <time>2014-10-15T07:56:56.577Z</time>
      </trkpt>
      <trkpt lat="49.51628" lon="3.54559">
        <ele>155.9</ele>
        <time>2014-10-15T07:56:57.580Z</time>
      </trkpt>
      <trkpt lat="49.51628" lon="3.54547">
        <ele>158.2</ele>
        <time>2014-10-15T07:57:04.498Z</time>
      </trkpt>
      <trkpt lat="49.51628" lon="3.54545">
        <ele>158.4</ele>
        <time>2014-10-15T07:57:05.527Z</time>
      </trkpt>
      <trkpt lat="49.5163" lon="3.54533">
        <ele>159.1</ele>
        <time>2014-10-15T07:57:12.604Z</time>
      </trkpt>
      <trkpt lat="49.5163" lon="3.54531">
        <ele>159</ele>
        <time>2014-10-15T07:57:13.596Z</time>
      </trkpt>
      <trkpt lat="49.51628" lon="3.54518">
        <ele>160.3</ele>
        <time>2014-10-15T07:57:21.572Z</time>
      </trkpt>
      <trkpt lat="49.51628" lon="3.54517">
        <ele>160.7</ele>
        <time>2014-10-15T07:57:22.575Z</time>
      </trkpt>
      <trkpt lat="49.51629" lon="3.54504">
        <ele>161.8</ele>
        <time>2014-10-15T07:57:28.510Z</time>
      </trkpt>
      <trkpt lat="49.51629" lon="3.54502">
        <ele>161.6</ele>
        <time>2014-10-15T07:57:29.512Z</time>
      </trkpt>
      <trkpt lat="49.51628" lon="3.545">
        <ele>161.7</ele>
        <time>2014-10-15T07:57:30.519Z</time>
      </trkpt>
      <trkpt lat="49.51628" lon="3.54499">
        <ele>161.6</ele>
        <time>2014-10-15T07:57:31.534Z</time>
      </trkpt>
      <trkpt lat="49.51628" lon="3.54487">
        <ele>163</ele>
        <time>2014-10-15T07:57:38.590Z</time>
      </trkpt>
      <trkpt lat="49.51628" lon="3.54485">
        <ele>163.4</ele>
        <time>2014-10-15T07:57:39.500Z</time>
      </trkpt>
      <trkpt lat="49.5163" lon="3.54472">
        <ele>164</ele>
        <time>2014-10-15T07:57:44.544Z</time>
      </trkpt>
      <trkpt lat="49.5163" lon="3.54469">
        <ele>164.3</ele>
        <time>2014-10-15T07:57:45.551Z</time>
      </trkpt>
      <trkpt lat="49.51632" lon="3.54456">
        <ele>164.2</ele>
        <time>2014-10-15T07:57:50.606Z</time>
      </trkpt>
      <trkpt lat="49.51632" lon="3.54455">
        <ele>164.1</ele>
        <time>2014-10-15T07:57:51.503Z</time>
      </trkpt>
      <trkpt lat="49.51635" lon="3.54444">
        <ele>167.7</ele>
        <time>2014-10-15T07:57:57.516Z</time>
      </trkpt>
      <trkpt lat="49.51635" lon="3.54441">
        <ele>168.1</ele>
        <time>2014-10-15T07:57:57.546Z</time>
      </trkpt>
      <trkpt lat="49.51635" lon="3.54429">
        <ele>168</ele>
        <time>2014-10-15T07:58:03.596Z</time>
      </trkpt>
      <trkpt lat="49.51635" lon="3.54427">
        <ele>167.7</ele>
        <time>2014-10-15T07:58:04.510Z</time>
      </trkpt>
      <trkpt lat="49.51636" lon="3.54414">
        <ele>166.6</ele>
        <time>2014-10-15T07:58:12.758Z</time>
      </trkpt>
      <trkpt lat="49.51636" lon="3.54413">
        <ele>166.7</ele>
        <time>2014-10-15T07:58:13.592Z</time>
      </trkpt>
      <trkpt lat="49.51637" lon="3.544">
        <ele>166.2</ele>
        <time>2014-10-15T07:58:20.534Z</time>
      </trkpt>
      <trkpt lat="49.51637" lon="3.54399">
        <ele>166.3</ele>
        <time>2014-10-15T07:58:21.550Z</time>
      </trkpt>
      <trkpt lat="49.51636" lon="3.54386">
        <ele>166.7</ele>
        <time>2014-10-15T07:58:29.515Z</time>
      </trkpt>
      <trkpt lat="49.51636" lon="3.54384">
        <ele>166.5</ele>
        <time>2014-10-15T07:58:30.522Z</time>
      </trkpt>
      <trkpt lat="49.51634" lon="3.54378">
        <ele>166</ele>
        <time>2014-10-15T07:58:34.558Z</time>
      </trkpt>
      <trkpt lat="49.51634" lon="3.54377">
        <ele>165.9</ele>
        <time>2014-10-15T07:58:35.562Z</time>
      </trkpt>
      <trkpt lat="49.51634" lon="3.54376">
        <ele>165.8</ele>
        <time>2014-10-15T07:58:36.568Z</time>
      </trkpt>
      <trkpt lat="49.51633" lon="3.54372">
        <ele>165.7</ele>
        <time>2014-10-15T07:58:39.595Z</time>
      </trkpt>
      <trkpt lat="49.51633" lon="3.5437">
        <ele>165.5</ele>
        <time>2014-10-15T07:58:40.598Z</time>
      </trkpt>
      <trkpt lat="49.51632" lon="3.54368">
        <ele>165.4</ele>
        <time>2014-10-15T07:58:41.629Z</time>
      </trkpt>
      <trkpt lat="49.51632" lon="3.54366">
        <ele>165.4</ele>
        <time>2014-10-15T07:58:42.515Z</time>
      </trkpt>
      <trkpt lat="49.5163" lon="3.54354">
        <ele>164.2</ele>
        <time>2014-10-15T07:58:48.572Z</time>
      </trkpt>
      <trkpt lat="49.5163" lon="3.54352">
        <ele>164.2</ele>
        <time>2014-10-15T07:58:49.585Z</time>
      </trkpt>
      <trkpt lat="49.51626" lon="3.5434">
        <ele>164.5</ele>
        <time>2014-10-15T07:58:57.517Z</time>
      </trkpt>
      <trkpt lat="49.51626" lon="3.54338">
        <ele>164.5</ele>
        <time>2014-10-15T07:58:57.541Z</time>
      </trkpt>
      <trkpt lat="49.51623" lon="3.54327">
        <ele>165.3</ele>
        <time>2014-10-15T07:59:02.579Z</time>
      </trkpt>
      <trkpt lat="49.51622" lon="3.54325">
        <ele>165.3</ele>
        <time>2014-10-15T07:59:03.585Z</time>
      </trkpt>
      <trkpt lat="49.51618" lon="3.54316">
        <ele>164.9</ele>
        <time>2014-10-15T07:59:08.547Z</time>
      </trkpt>
      <trkpt lat="49.51617" lon="3.54313">
        <ele>164.7</ele>
        <time>2014-10-15T07:59:09.592Z</time>
      </trkpt>
      <trkpt lat="49.51613" lon="3.54302">
        <ele>164.7</ele>
        <time>2014-10-15T07:59:15.517Z</time>
      </trkpt>
      <trkpt lat="49.51613" lon="3.543">
        <ele>164.6</ele>
        <time>2014-10-15T07:59:16.517Z</time>
      </trkpt>
      <trkpt lat="49.51608" lon="3.54289">
        <ele>164.6</ele>
        <time>2014-10-15T07:59:21.567Z</time>
      </trkpt>
      <trkpt lat="49.51607" lon="3.54287">
        <ele>164.4</ele>
        <time>2014-10-15T07:59:22.578Z</time>
      </trkpt>
      <trkpt lat="49.51602" lon="3.54276">
        <ele>163.8</ele>
        <time>2014-10-15T07:59:30.528Z</time>
      </trkpt>
      <trkpt lat="49.51601" lon="3.54274">
        <ele>163.9</ele>
        <time>2014-10-15T07:59:31.536Z</time>
      </trkpt>
      <trkpt lat="49.51599" lon="3.54261">
        <ele>162</ele>
        <time>2014-10-15T07:59:39.585Z</time>
      </trkpt>
      <trkpt lat="49.51598" lon="3.5426">
        <ele>162</ele>
        <time>2014-10-15T07:59:40.589Z</time>
      </trkpt>
      <trkpt lat="49.51598" lon="3.54257">
        <ele>161.8</ele>
        <time>2014-10-15T07:59:42.750Z</time>
      </trkpt>
      <trkpt lat="49.51598" lon="3.54255">
        <ele>163.1</ele>
        <time>2014-10-15T07:59:43.608Z</time>
      </trkpt>
      <trkpt lat="49.51597" lon="3.54253">
        <ele>162.7</ele>
        <time>2014-10-15T07:59:44.614Z</time>
      </trkpt>
      <trkpt lat="49.51601" lon="3.54245">
        <ele>165.3</ele>
        <time>2014-10-15T08:00:08.604Z</time>
      </trkpt>
      <trkpt lat="49.51602" lon="3.54245">
        <ele>165.5</ele>
        <time>2014-10-15T08:00:09.515Z</time>
      </trkpt>
      <trkpt lat="49.51603" lon="3.54245">
        <ele>165.4</ele>
        <time>2014-10-15T08:00:10.520Z</time>
      </trkpt>
      <trkpt lat="49.51607" lon="3.54246">
        <ele>163.9</ele>
        <time>2014-10-15T08:00:27.547Z</time>
      </trkpt>
      <trkpt lat="49.51607" lon="3.54246">
        <ele>163.9</ele>
        <time>2014-10-15T08:00:28.573Z</time>
      </trkpt>
      <trkpt lat="49.51607" lon="3.54246">
        <ele>163.9</ele>
        <time>2014-10-15T08:02:09.516Z</time>
      </trkpt>
      <trkpt lat="49.51611" lon="3.54249">
        <ele>167.3</ele>
        <time>2014-10-15T08:02:10.516Z</time>
      </trkpt>
      <trkpt lat="49.51609" lon="3.5425">
        <ele>167.3</ele>
        <time>2014-10-15T08:02:13.578Z</time>
      </trkpt>
      <trkpt lat="49.51609" lon="3.5425">
        <ele>167.3</ele>
        <time>2014-10-15T08:02:14.546Z</time>
      </trkpt>
      <trkpt lat="49.51608" lon="3.54251">
        <ele>167.4</ele>
        <time>2014-10-15T08:02:15.548Z</time>
      </trkpt>
      <trkpt lat="49.51599" lon="3.54251">
        <ele>165.6</ele>
        <time>2014-10-15T08:02:23.607Z</time>
      </trkpt>
      <trkpt lat="49.51598" lon="3.54251">
        <ele>165.2</ele>
        <time>2014-10-15T08:02:24.517Z</time>
      </trkpt>
      <trkpt lat="49.5159" lon="3.54247">
        <ele>165.1</ele>
        <time>2014-10-15T08:02:32.560Z</time>
      </trkpt>
      <trkpt lat="49.51588" lon="3.54247">
        <ele>165</ele>
        <time>2014-10-15T08:02:33.565Z</time>
      </trkpt>
      <trkpt lat="49.51581" lon="3.54244">
        <ele>165.1</ele>
        <time>2014-10-15T08:02:38.622Z</time>
      </trkpt>
      <trkpt lat="49.51579" lon="3.54243">
        <ele>165.1</ele>
        <time>2014-10-15T08:02:39.521Z</time>
      </trkpt>
      <trkpt lat="49.51572" lon="3.54238">
        <ele>164.9</ele>
        <time>2014-10-15T08:02:44.703Z</time>
      </trkpt>
      <trkpt lat="49.5157" lon="3.54237">
        <ele>165</ele>
        <time>2014-10-15T08:02:45.578Z</time>
      </trkpt>
      <trkpt lat="49.51562" lon="3.54231">
        <ele>164.8</ele>
        <time>2014-10-15T08:02:50.609Z</time>
      </trkpt>
      <trkpt lat="49.51561" lon="3.5423">
        <ele>164.6</ele>
        <time>2014-10-15T08:02:51.518Z</time>
      </trkpt>
      <trkpt lat="49.51552" lon="3.54228">
        <ele>164.9</ele>
        <time>2014-10-15T08:02:57.568Z</time>
      </trkpt>
      <trkpt lat="49.51551" lon="3.54228">
        <ele>165.1</ele>
        <time>2014-10-15T08:02:58.571Z</time>
      </trkpt>
      <trkpt lat="49.51543" lon="3.54229">
        <ele>165.8</ele>
        <time>2014-10-15T08:03:06.583Z</time>
      </trkpt>
      <trkpt lat="49.51542" lon="3.54229">
        <ele>166</ele>
        <time>2014-10-15T08:03:07.592Z</time>
      </trkpt>
      <trkpt lat="49.51534" lon="3.54228">
        <ele>166.1</ele>
        <time>2014-10-15T08:03:12.577Z</time>
      </trkpt>
      <trkpt lat="49.51533" lon="3.54228">
        <ele>166.2</ele>
        <time>2014-10-15T08:03:13.543Z</time>
      </trkpt>
      <trkpt lat="49.51525" lon="3.5423">
        <ele>166.4</ele>
        <time>2014-10-15T08:03:20.596Z</time>
      </trkpt>
      <trkpt lat="49.51524" lon="3.5423">
        <ele>166.5</ele>
        <time>2014-10-15T08:03:21.603Z</time>
      </trkpt>
      <trkpt lat="49.51521" lon="3.54232">
        <ele>166.7</ele>
        <time>2014-10-15T08:03:23.518Z</time>
      </trkpt>
      <trkpt lat="49.5152" lon="3.54233">
        <ele>166.7</ele>
        <time>2014-10-15T08:03:24.521Z</time>
      </trkpt>
      <trkpt lat="49.51519" lon="3.54233">
        <ele>166.8</ele>
        <time>2014-10-15T08:03:25.536Z</time>
      </trkpt>
      <trkpt lat="49.51511" lon="3.54236">
        <ele>164.1</ele>
        <time>2014-10-15T08:03:31.584Z</time>
      </trkpt>
      <trkpt lat="49.51509" lon="3.54236">
        <ele>163</ele>
        <time>2014-10-15T08:03:32.581Z</time>
      </trkpt>
      <trkpt lat="49.51501" lon="3.54237">
        <ele>161.1</ele>
        <time>2014-10-15T08:03:38.553Z</time>
      </trkpt>
      <trkpt lat="49.515" lon="3.54237">
        <ele>161.3</ele>
        <time>2014-10-15T08:03:39.561Z</time>
      </trkpt>
      <trkpt lat="49.51491" lon="3.54239">
        <ele>160.9</ele>
        <time>2014-10-15T08:03:46.516Z</time>
      </trkpt>
      <trkpt lat="49.5149" lon="3.54239">
        <ele>160.5</ele>
        <time>2014-10-15T08:03:47.520Z</time>
      </trkpt>
      <trkpt lat="49.51482" lon="3.54241">
        <ele>159.8</ele>
        <time>2014-10-15T08:03:53.571Z</time>
      </trkpt>
      <trkpt lat="49.51481" lon="3.54241">
        <ele>160</ele>
        <time>2014-10-15T08:03:54.576Z</time>
      </trkpt>
      <trkpt lat="49.51473" lon="3.5424">
        <ele>159.7</ele>
        <time>2014-10-15T08:03:59.520Z</time>
      </trkpt>
      <trkpt lat="49.51471" lon="3.5424">
        <ele>159.4</ele>
        <time>2014-10-15T08:04:00.543Z</time>
      </trkpt>
      <trkpt lat="49.51467" lon="3.54241">
        <ele>159.5</ele>
        <time>2014-10-15T08:04:03.574Z</time>
      </trkpt>
      <trkpt lat="49.51466" lon="3.54241">
        <ele>159.3</ele>
        <time>2014-10-15T08:04:04.583Z</time>
      </trkpt>
      <trkpt lat="49.51465" lon="3.54242">
        <ele>159.8</ele>
        <time>2014-10-15T08:04:05.590Z</time>
      </trkpt>
      <trkpt lat="49.51456" lon="3.54243">
        <ele>161</ele>
        <time>2014-10-15T08:04:11.529Z</time>
      </trkpt>
      <trkpt lat="49.51454" lon="3.54243">
        <ele>161</ele>
        <time>2014-10-15T08:04:12.536Z</time>
      </trkpt>
      <trkpt lat="49.51446" lon="3.54243">
        <ele>161.8</ele>
        <time>2014-10-15T08:04:18.589Z</time>
      </trkpt>
      <trkpt lat="49.51445" lon="3.54243">
        <ele>161.4</ele>
        <time>2014-10-15T08:04:19.593Z</time>
      </trkpt>
      <trkpt lat="49.5144" lon="3.54242">
        <ele>161.1</ele>
        <time>2014-10-15T08:04:23.520Z</time>
      </trkpt>
      <trkpt lat="49.51439" lon="3.54242">
        <ele>160.9</ele>
        <time>2014-10-15T08:04:24.528Z</time>
      </trkpt>
      <trkpt lat="49.51438" lon="3.54241">
        <ele>161</ele>
        <time>2014-10-15T08:04:27.666Z</time>
      </trkpt>
      <trkpt lat="49.51434" lon="3.54241">
        <ele>161.2</ele>
        <time>2014-10-15T08:04:28.560Z</time>
      </trkpt>
      <trkpt lat="49.51427" lon="3.5424">
        <ele>161.5</ele>
        <time>2014-10-15T08:04:36.521Z</time>
      </trkpt>
      <trkpt lat="49.51423" lon="3.54241">
        <ele>161.3</ele>
        <time>2014-10-15T08:04:37.532Z</time>
      </trkpt>
      <trkpt lat="49.51415" lon="3.5424">
        <ele>161.3</ele>
        <time>2014-10-15T08:04:42.750Z</time>
      </trkpt>
      <trkpt lat="49.51414" lon="3.5424">
        <ele>161.4</ele>
        <time>2014-10-15T08:04:43.588Z</time>
      </trkpt>
      <trkpt lat="49.51406" lon="3.54243">
        <ele>161.4</ele>
        <time>2014-10-15T08:04:50.548Z</time>
      </trkpt>
      <trkpt lat="49.51404" lon="3.54243">
        <ele>161.3</ele>
        <time>2014-10-15T08:04:51.549Z</time>
      </trkpt>
      <trkpt lat="49.51403" lon="3.54242">
        <ele>161.6</ele>
        <time>2014-10-15T08:04:53.049Z</time>
      </trkpt>
      <trkpt lat="49.51401" lon="3.54242">
        <ele>161.7</ele>
        <time>2014-10-15T08:04:53.552Z</time>
      </trkpt>
      <trkpt lat="49.514" lon="3.54241">
        <ele>161.9</ele>
        <time>2014-10-15T08:04:54.557Z</time>
      </trkpt>
      <trkpt lat="49.51398" lon="3.54241">
        <ele>162.1</ele>
        <time>2014-10-15T08:04:55.561Z</time>
      </trkpt>
      <trkpt lat="49.5139" lon="3.5424">
        <ele>162.1</ele>
        <time>2014-10-15T08:05:02.551Z</time>
      </trkpt>
      <trkpt lat="49.51389" lon="3.5424">
        <ele>162.1</ele>
        <time>2014-10-15T08:05:02.637Z</time>
      </trkpt>
      <trkpt lat="49.51381" lon="3.54239">
        <ele>163</ele>
        <time>2014-10-15T08:05:09.582Z</time>
      </trkpt>
      <trkpt lat="49.51379" lon="3.5424">
        <ele>162.9</ele>
        <time>2014-10-15T08:05:10.581Z</time>
      </trkpt>
      <trkpt lat="49.51371" lon="3.54239">
        <ele>162.2</ele>
        <time>2014-10-15T08:05:17.617Z</time>
      </trkpt>
      <trkpt lat="49.51368" lon="3.54238">
        <ele>162</ele>
        <time>2014-10-15T08:05:18.566Z</time>
      </trkpt>
      <trkpt lat="49.51359" lon="3.54237">
        <ele>161.9</ele>
        <time>2014-10-15T08:05:23.605Z</time>
      </trkpt>
      <trkpt lat="49.51358" lon="3.54237">
        <ele>162</ele>
        <time>2014-10-15T08:05:24.507Z</time>
      </trkpt>
      <trkpt lat="49.51349" lon="3.54237">
        <ele>161.4</ele>
        <time>2014-10-15T08:05:30.553Z</time>
      </trkpt>
      <trkpt lat="49.51348" lon="3.54237">
        <ele>161.4</ele>
        <time>2014-10-15T08:05:31.574Z</time>
      </trkpt>
      <trkpt lat="49.5134" lon="3.54239">
        <ele>160.9</ele>
        <time>2014-10-15T08:05:37.710Z</time>
      </trkpt>
      <trkpt lat="49.51339" lon="3.54239">
        <ele>160.8</ele>
        <time>2014-10-15T08:05:38.530Z</time>
      </trkpt>
      <trkpt lat="49.51331" lon="3.54242">
        <ele>160</ele>
        <time>2014-10-15T08:05:43.559Z</time>
      </trkpt>
      <trkpt lat="49.5133" lon="3.54243">
        <ele>159.8</ele>
        <time>2014-10-15T08:05:44.565Z</time>
      </trkpt>
      <trkpt lat="49.51322" lon="3.54243">
        <ele>161.2</ele>
        <time>2014-10-15T08:05:50.600Z</time>
      </trkpt>
      <trkpt lat="49.5132" lon="3.54244">
        <ele>161.5</ele>
        <time>2014-10-15T08:05:51.508Z</time>
      </trkpt>
      <trkpt lat="49.51313" lon="3.54247">
        <ele>162.1</ele>
        <time>2014-10-15T08:05:57.524Z</time>
      </trkpt>
      <trkpt lat="49.51311" lon="3.54247">
        <ele>162.3</ele>
        <time>2014-10-15T08:05:57.557Z</time>
      </trkpt>
      <trkpt lat="49.51304" lon="3.5425">
        <ele>163.1</ele>
        <time>2014-10-15T08:06:03.503Z</time>
      </trkpt>
      <trkpt lat="49.51302" lon="3.5425">
        <ele>163.1</ele>
        <time>2014-10-15T08:06:04.507Z</time>
      </trkpt>
      <trkpt lat="49.51294" lon="3.5425">
        <ele>163.5</ele>
        <time>2014-10-15T08:06:10.550Z</time>
      </trkpt>
      <trkpt lat="49.51292" lon="3.54249">
        <ele>163.3</ele>
        <time>2014-10-15T08:06:11.566Z</time>
      </trkpt>
      <trkpt lat="49.51288" lon="3.54238">
        <ele>160.4</ele>
        <time>2014-10-15T08:06:19.534Z</time>
      </trkpt>
      <trkpt lat="49.51288" lon="3.54236">
        <ele>160.2</ele>
        <time>2014-10-15T08:06:20.542Z</time>
      </trkpt>
      <trkpt lat="49.51287" lon="3.54224">
        <ele>158.9</ele>
        <time>2014-10-15T08:06:27.659Z</time>
      </trkpt>
      <trkpt lat="49.51287" lon="3.54222">
        <ele>158.7</ele>
        <time>2014-10-15T08:06:28.509Z</time>
      </trkpt>
      <trkpt lat="49.51287" lon="3.54211">
        <ele>158.5</ele>
        <time>2014-10-15T08:06:34.565Z</time>
      </trkpt>
      <trkpt lat="49.51287" lon="3.54209">
        <ele>158.2</ele>
        <time>2014-10-15T08:06:35.569Z</time>
      </trkpt>
      <trkpt lat="49.51286" lon="3.54208">
        <ele>158</ele>
        <time>2014-10-15T08:06:36.580Z</time>
      </trkpt>
      <trkpt lat="49.51285" lon="3.54194">
        <ele>156.8</ele>
        <time>2014-10-15T08:06:43.533Z</time>
      </trkpt>
      <trkpt lat="49.51285" lon="3.54192">
        <ele>156.8</ele>
        <time>2014-10-15T08:06:44.560Z</time>
      </trkpt>
      <trkpt lat="49.51283" lon="3.54179">
        <ele>156.7</ele>
        <time>2014-10-15T08:06:50.591Z</time>
      </trkpt>
      <trkpt lat="49.51283" lon="3.54177">
        <ele>156.6</ele>
        <time>2014-10-15T08:06:51.593Z</time>
      </trkpt>
      <trkpt lat="49.51282" lon="3.54163">
        <ele>156.1</ele>
        <time>2014-10-15T08:06:57.524Z</time>
      </trkpt>
      <trkpt lat="49.51282" lon="3.54161">
        <ele>156.1</ele>
        <time>2014-10-15T08:06:58.572Z</time>
      </trkpt>
      <trkpt lat="49.51279" lon="3.54148">
        <ele>155.7</ele>
        <time>2014-10-15T08:07:04.515Z</time>
      </trkpt>
      <trkpt lat="49.51279" lon="3.54146">
        <ele>155.7</ele>
        <time>2014-10-15T08:07:05.523Z</time>
      </trkpt>
      <trkpt lat="49.51277" lon="3.54135">
        <ele>155.3</ele>
        <time>2014-10-15T08:07:11.579Z</time>
      </trkpt>
      <trkpt lat="49.51277" lon="3.54133">
        <ele>155.3</ele>
        <time>2014-10-15T08:07:12.585Z</time>
      </trkpt>
      <trkpt lat="49.51274" lon="3.54121">
        <ele>154.5</ele>
        <time>2014-10-15T08:07:18.527Z</time>
      </trkpt>
      <trkpt lat="49.51274" lon="3.54119">
        <ele>154.2</ele>
        <time>2014-10-15T08:07:19.535Z</time>
      </trkpt>
      <trkpt lat="49.51271" lon="3.54108">
        <ele>153.9</ele>
        <time>2014-10-15T08:07:24.597Z</time>
      </trkpt>
      <trkpt lat="49.51271" lon="3.54106">
        <ele>153.8</ele>
        <time>2014-10-15T08:07:25.621Z</time>
      </trkpt>
      <trkpt lat="49.51266" lon="3.54094">
        <ele>153.4</ele>
        <time>2014-10-15T08:07:32.577Z</time>
      </trkpt>
      <trkpt lat="49.51265" lon="3.5409">
        <ele>153.3</ele>
        <time>2014-10-15T08:07:33.591Z</time>
      </trkpt>
      <trkpt lat="49.51262" lon="3.54079">
        <ele>153.3</ele>
        <time>2014-10-15T08:07:37.531Z</time>
      </trkpt>
      <trkpt lat="49.51261" lon="3.54076">
        <ele>153.3</ele>
        <time>2014-10-15T08:07:38.539Z</time>
      </trkpt>
      <trkpt lat="49.51258" lon="3.54064">
        <ele>153.6</ele>
        <time>2014-10-15T08:07:44.622Z</time>
      </trkpt>
      <trkpt lat="49.51257" lon="3.54062">
        <ele>153.6</ele>
        <time>2014-10-15T08:07:45.598Z</time>
      </trkpt>
      <trkpt lat="49.51252" lon="3.54052">
        <ele>153.9</ele>
        <time>2014-10-15T08:07:51.548Z</time>
      </trkpt>
      <trkpt lat="49.51252" lon="3.5405">
        <ele>154.1</ele>
        <time>2014-10-15T08:07:52.550Z</time>
      </trkpt>
      <trkpt lat="49.51249" lon="3.54041">
        <ele>154.2</ele>
        <time>2014-10-15T08:08:07.593Z</time>
      </trkpt>
      <trkpt lat="49.51243" lon="3.54025">
        <ele>153.6</ele>
        <time>2014-10-15T08:08:08.576Z</time>
      </trkpt>
      <trkpt lat="49.51241" lon="3.54021">
        <ele>153.7</ele>
        <time>2014-10-15T08:08:10.597Z</time>
      </trkpt>
      <trkpt lat="49.51242" lon="3.54019">
        <ele>153.8</ele>
        <time>2014-10-15T08:08:11.513Z</time>
      </trkpt>
      <trkpt lat="49.51242" lon="3.54017">
        <ele>153.8</ele>
        <time>2014-10-15T08:08:13.528Z</time>
      </trkpt>
      <trkpt lat="49.51241" lon="3.54013">
        <ele>153.9</ele>
        <time>2014-10-15T08:08:14.538Z</time>
      </trkpt>
      <trkpt lat="49.5124" lon="3.54011">
        <ele>153.9</ele>
        <time>2014-10-15T08:08:15.542Z</time>
      </trkpt>
      <trkpt lat="49.51239" lon="3.54009">
        <ele>153.8</ele>
        <time>2014-10-15T08:08:16.544Z</time>
      </trkpt>
      <trkpt lat="49.51238" lon="3.54007">
        <ele>153.8</ele>
        <time>2014-10-15T08:08:17.556Z</time>
      </trkpt>
      <trkpt lat="49.51235" lon="3.53997">
        <ele>153.6</ele>
        <time>2014-10-15T08:08:28.017Z</time>
      </trkpt>
      <trkpt lat="49.51231" lon="3.53986">
        <ele>153.4</ele>
        <time>2014-10-15T08:08:28.576Z</time>
      </trkpt>
      <trkpt lat="49.51227" lon="3.53975">
        <ele>153</ele>
        <time>2014-10-15T08:08:33.040Z</time>
      </trkpt>
      <trkpt lat="49.51226" lon="3.53973">
        <ele>152.8</ele>
        <time>2014-10-15T08:08:33.515Z</time>
      </trkpt>
      <trkpt lat="49.51221" lon="3.53962">
        <ele>151.9</ele>
        <time>2014-10-15T08:08:39.544Z</time>
      </trkpt>
      <trkpt lat="49.5122" lon="3.5396">
        <ele>151.8</ele>
        <time>2014-10-15T08:08:40.559Z</time>
      </trkpt>
      <trkpt lat="49.51219" lon="3.53957">
        <ele>151.5</ele>
        <time>2014-10-15T08:08:42.575Z</time>
      </trkpt>
      <trkpt lat="49.51218" lon="3.53956">
        <ele>151.4</ele>
        <time>2014-10-15T08:08:43.581Z</time>
      </trkpt>
      <trkpt lat="49.51218" lon="3.53955">
        <ele>151.3</ele>
        <time>2014-10-15T08:08:47.229Z</time>
      </trkpt>
      <trkpt lat="49.51216" lon="3.5395">
        <ele>150.7</ele>
        <time>2014-10-15T08:08:47.516Z</time>
      </trkpt>
      <trkpt lat="49.51214" lon="3.53938">
        <ele>149.7</ele>
        <time>2014-10-15T08:08:52.555Z</time>
      </trkpt>
      <trkpt lat="49.51213" lon="3.53936">
        <ele>149.5</ele>
        <time>2014-10-15T08:08:53.563Z</time>
      </trkpt>
      <trkpt lat="49.51209" lon="3.53924">
        <ele>148.9</ele>
        <time>2014-10-15T08:08:58.509Z</time>
      </trkpt>
      <trkpt lat="49.51209" lon="3.53921">
        <ele>148.8</ele>
        <time>2014-10-15T08:08:59.512Z</time>
      </trkpt>
      <trkpt lat="49.51208" lon="3.53917">
        <ele>148.4</ele>
        <time>2014-10-15T08:09:02.551Z</time>
      </trkpt>
      <trkpt lat="49.51208" lon="3.53915">
        <ele>148.2</ele>
        <time>2014-10-15T08:09:02.569Z</time>
      </trkpt>
      <trkpt lat="49.51208" lon="3.53913">
        <ele>147.9</ele>
        <time>2014-10-15T08:09:04.572Z</time>
      </trkpt>
      <trkpt lat="49.51206" lon="3.53909">
        <ele>147.4</ele>
        <time>2014-10-15T08:09:05.573Z</time>
      </trkpt>
      <trkpt lat="49.51204" lon="3.53902">
        <ele>146.6</ele>
        <time>2014-10-15T08:09:08.599Z</time>
      </trkpt>
      <trkpt lat="49.51204" lon="3.539">
        <ele>146.5</ele>
        <time>2014-10-15T08:09:09.510Z</time>
      </trkpt>
      <trkpt lat="49.51203" lon="3.53898">
        <ele>146.3</ele>
        <time>2014-10-15T08:09:10.509Z</time>
      </trkpt>
      <trkpt lat="49.51199" lon="3.53887">
        <ele>145.7</ele>
        <time>2014-10-15T08:09:14.551Z</time>
      </trkpt>
      <trkpt lat="49.51198" lon="3.53885">
        <ele>145.4</ele>
        <time>2014-10-15T08:09:15.557Z</time>
      </trkpt>
      <trkpt lat="49.51195" lon="3.53875">
        <ele>144.6</ele>
        <time>2014-10-15T08:09:18.569Z</time>
      </trkpt>
      <trkpt lat="49.51194" lon="3.53872">
        <ele>144.4</ele>
        <time>2014-10-15T08:09:19.585Z</time>
      </trkpt>
      <trkpt lat="49.5119" lon="3.5386">
        <ele>144.3</ele>
        <time>2014-10-15T08:09:23.643Z</time>
      </trkpt>
      <trkpt lat="49.5119" lon="3.53856">
        <ele>144.3</ele>
        <time>2014-10-15T08:09:24.510Z</time>
      </trkpt>
      <trkpt lat="49.51188" lon="3.53844">
        <ele>144.4</ele>
        <time>2014-10-15T08:09:28.670Z</time>
      </trkpt>
      <trkpt lat="49.51187" lon="3.53841">
        <ele>144.4</ele>
        <time>2014-10-15T08:09:29.555Z</time>
      </trkpt>
      <trkpt lat="49.51186" lon="3.5383">
        <ele>141.7</ele>
        <time>2014-10-15T08:09:33.705Z</time>
      </trkpt>
      <trkpt lat="49.51185" lon="3.53827">
        <ele>141.8</ele>
        <time>2014-10-15T08:09:34.509Z</time>
      </trkpt>
      <trkpt lat="49.51182" lon="3.53816">
        <ele>140.4</ele>
        <time>2014-10-15T08:09:38.927Z</time>
      </trkpt>
      <trkpt lat="49.51182" lon="3.53813">
        <ele>140.3</ele>
        <time>2014-10-15T08:09:39.505Z</time>
      </trkpt>
      <trkpt lat="49.5118" lon="3.53801">
        <ele>139.8</ele>
        <time>2014-10-15T08:09:44.544Z</time>
      </trkpt>
      <trkpt lat="49.51179" lon="3.53799">
        <ele>140.1</ele>
        <time>2014-10-15T08:09:45.551Z</time>
      </trkpt>
      <trkpt lat="49.51177" lon="3.53786">
        <ele>140.3</ele>
        <time>2014-10-15T08:09:51.505Z</time>
      </trkpt>
      <trkpt lat="49.51176" lon="3.53784">
        <ele>140.5</ele>
        <time>2014-10-15T08:09:52.510Z</time>
      </trkpt>
      <trkpt lat="49.51173" lon="3.53774">
        <ele>138.1</ele>
        <time>2014-10-15T08:09:56.541Z</time>
      </trkpt>
      <trkpt lat="49.51172" lon="3.53771">
        <ele>137.6</ele>
        <time>2014-10-15T08:09:57.546Z</time>
      </trkpt>
      <trkpt lat="49.51168" lon="3.53759">
        <ele>136.8</ele>
        <time>2014-10-15T08:10:03.582Z</time>
      </trkpt>
      <trkpt lat="49.51168" lon="3.53757">
        <ele>136.6</ele>
        <time>2014-10-15T08:10:04.611Z</time>
      </trkpt>
      <trkpt lat="49.51168" lon="3.53745">
        <ele>136.5</ele>
        <time>2014-10-15T08:10:09.547Z</time>
      </trkpt>
      <trkpt lat="49.51168" lon="3.53743">
        <ele>136.3</ele>
        <time>2014-10-15T08:10:10.554Z</time>
      </trkpt>
      <trkpt lat="49.51168" lon="3.5373">
        <ele>135.8</ele>
        <time>2014-10-15T08:10:16.606Z</time>
      </trkpt>
      <trkpt lat="49.51168" lon="3.53727">
        <ele>135.7</ele>
        <time>2014-10-15T08:10:17.510Z</time>
      </trkpt>
      <trkpt lat="49.51167" lon="3.53715">
        <ele>135.4</ele>
        <time>2014-10-15T08:10:24.510Z</time>
      </trkpt>
      <trkpt lat="49.51167" lon="3.53713">
        <ele>135.5</ele>
        <time>2014-10-15T08:10:24.572Z</time>
      </trkpt>
      <trkpt lat="49.51166" lon="3.537">
        <ele>135.5</ele>
        <time>2014-10-15T08:10:30.510Z</time>
      </trkpt>
      <trkpt lat="49.51166" lon="3.53697">
        <ele>135.4</ele>
        <time>2014-10-15T08:10:31.534Z</time>
      </trkpt>
      <trkpt lat="49.51166" lon="3.53686">
        <ele>135.3</ele>
        <time>2014-10-15T08:10:36.589Z</time>
      </trkpt>
      <trkpt lat="49.51166" lon="3.53683">
        <ele>135.3</ele>
        <time>2014-10-15T08:10:37.593Z</time>
      </trkpt>
      <trkpt lat="49.51165" lon="3.5367">
        <ele>135.7</ele>
        <time>2014-10-15T08:10:43.537Z</time>
      </trkpt>
      <trkpt lat="49.51165" lon="3.53668">
        <ele>135.9</ele>
        <time>2014-10-15T08:10:44.539Z</time>
      </trkpt>
      <trkpt lat="49.51164" lon="3.53656">
        <ele>136.5</ele>
        <time>2014-10-15T08:10:50.162Z</time>
      </trkpt>
      <trkpt lat="49.51164" lon="3.53654">
        <ele>136.5</ele>
        <time>2014-10-15T08:10:50.584Z</time>
      </trkpt>
      <trkpt lat="49.51163" lon="3.53641">
        <ele>137.3</ele>
        <time>2014-10-15T08:10:56.535Z</time>
      </trkpt>
      <trkpt lat="49.51163" lon="3.53638">
        <ele>137.4</ele>
        <time>2014-10-15T08:10:57.540Z</time>
      </trkpt>
      <trkpt lat="49.51162" lon="3.53626">
        <ele>138.2</ele>
        <time>2014-10-15T08:11:04.136Z</time>
      </trkpt>
      <trkpt lat="49.51162" lon="3.53623">
        <ele>138.4</ele>
        <time>2014-10-15T08:11:04.606Z</time>
      </trkpt>
      <trkpt lat="49.51161" lon="3.5361">
        <ele>140</ele>
        <time>2014-10-15T08:11:09.569Z</time>
      </trkpt>
      <trkpt lat="49.51161" lon="3.53608">
        <ele>140.2</ele>
        <time>2014-10-15T08:11:10.577Z</time>
      </trkpt>
      <trkpt lat="49.5116" lon="3.53594">
        <ele>140.5</ele>
        <time>2014-10-15T08:11:16.523Z</time>
      </trkpt>
      <trkpt lat="49.5116" lon="3.53592">
        <ele>140.5</ele>
        <time>2014-10-15T08:11:17.523Z</time>
      </trkpt>
      <trkpt lat="49.51159" lon="3.53581">
        <ele>141.2</ele>
        <time>2014-10-15T08:11:22.561Z</time>
      </trkpt>
      <trkpt lat="49.51159" lon="3.53578">
        <ele>141.3</ele>
        <time>2014-10-15T08:11:23.563Z</time>
      </trkpt>
      <trkpt lat="49.51158" lon="3.53565">
        <ele>141.6</ele>
        <time>2014-10-15T08:11:29.524Z</time>
      </trkpt>
      <trkpt lat="49.51158" lon="3.53563">
        <ele>141.6</ele>
        <time>2014-10-15T08:11:30.513Z</time>
      </trkpt>
      <trkpt lat="49.51157" lon="3.53551">
        <ele>142</ele>
        <time>2014-10-15T08:11:35.563Z</time>
      </trkpt>
      <trkpt lat="49.51157" lon="3.53548">
        <ele>142.1</ele>
        <time>2014-10-15T08:11:36.569Z</time>
      </trkpt>
      <trkpt lat="49.51152" lon="3.53537">
        <ele>142.5</ele>
        <time>2014-10-15T08:11:42.515Z</time>
      </trkpt>
      <trkpt lat="49.51151" lon="3.53536">
        <ele>142.1</ele>
        <time>2014-10-15T08:11:43.562Z</time>
      </trkpt>
      <trkpt lat="49.51147" lon="3.53526">
        <ele>142.4</ele>
        <time>2014-10-15T08:11:51.518Z</time>
      </trkpt>
      <trkpt lat="49.51146" lon="3.53524">
        <ele>142.5</ele>
        <time>2014-10-15T08:11:52.519Z</time>
      </trkpt>
      <trkpt lat="49.51143" lon="3.53511">
        <ele>142.8</ele>
        <time>2014-10-15T08:11:59.327Z</time>
      </trkpt>
      <trkpt lat="49.51143" lon="3.53509">
        <ele>142.8</ele>
        <time>2014-10-15T08:11:59.571Z</time>
      </trkpt>
      <trkpt lat="49.51143" lon="3.53497">
        <ele>142.1</ele>
        <time>2014-10-15T08:12:05.509Z</time>
      </trkpt>
      <trkpt lat="49.51143" lon="3.53495">
        <ele>142</ele>
        <time>2014-10-15T08:12:06.515Z</time>
      </trkpt>
      <trkpt lat="49.51143" lon="3.53483">
        <ele>141.2</ele>
        <time>2014-10-15T08:12:12.568Z</time>
      </trkpt>
      <trkpt lat="49.51143" lon="3.53481">
        <ele>141.1</ele>
        <time>2014-10-15T08:12:13.579Z</time>
      </trkpt>
      <trkpt lat="49.51144" lon="3.53467">
        <ele>141.5</ele>
        <time>2014-10-15T08:12:22.520Z</time>
      </trkpt>
      <trkpt lat="49.51144" lon="3.53466">
        <ele>141.7</ele>
        <time>2014-10-15T08:12:23.563Z</time>
      </trkpt>
      <trkpt lat="49.51145" lon="3.53454">
        <ele>140.9</ele>
        <time>2014-10-15T08:12:30.840Z</time>
      </trkpt>
      <trkpt lat="49.51144" lon="3.53451">
        <ele>140.4</ele>
        <time>2014-10-15T08:12:31.535Z</time>
      </trkpt>
      <trkpt lat="49.51142" lon="3.5344">
        <ele>140</ele>
        <time>2014-10-15T08:12:35.559Z</time>
      </trkpt>
      <trkpt lat="49.51141" lon="3.53437">
        <ele>139.9</ele>
        <time>2014-10-15T08:12:36.572Z</time>
      </trkpt>
      <trkpt lat="49.5114" lon="3.53423">
        <ele>140.5</ele>
        <time>2014-10-15T08:12:41.517Z</time>
      </trkpt>
      <trkpt lat="49.5114" lon="3.53421">
        <ele>140.7</ele>
        <time>2014-10-15T08:12:42.531Z</time>
      </trkpt>
      <trkpt lat="49.51139" lon="3.53408">
        <ele>142.5</ele>
        <time>2014-10-15T08:12:47.522Z</time>
      </trkpt>
      <trkpt lat="49.51139" lon="3.53405">
        <ele>142.6</ele>
        <time>2014-10-15T08:12:48.530Z</time>
      </trkpt>
      <trkpt lat="49.5114" lon="3.53393">
        <ele>143.7</ele>
        <time>2014-10-15T08:12:54.510Z</time>
      </trkpt>
      <trkpt lat="49.51141" lon="3.53392">
        <ele>143.6</ele>
        <time>2014-10-15T08:12:55.534Z</time>
      </trkpt>
      <trkpt lat="49.51147" lon="3.53384">
        <ele>145.9</ele>
        <time>2014-10-15T08:13:01.581Z</time>
      </trkpt>
      <trkpt lat="49.51148" lon="3.53383">
        <ele>146.1</ele>
        <time>2014-10-15T08:13:02.586Z</time>
      </trkpt>
      <trkpt lat="49.51157" lon="3.53378">
        <ele>146.5</ele>
        <time>2014-10-15T08:13:08.554Z</time>
      </trkpt>
      <trkpt lat="49.51158" lon="3.53378">
        <ele>146.3</ele>
        <time>2014-10-15T08:13:09.560Z</time>
      </trkpt>
      <trkpt lat="49.51167" lon="3.53376">
        <ele>145.4</ele>
        <time>2014-10-15T08:13:15.499Z</time>
      </trkpt>
      <trkpt lat="49.51168" lon="3.53376">
        <ele>145.5</ele>
        <time>2014-10-15T08:13:16.512Z</time>
      </trkpt>
      <trkpt lat="49.51175" lon="3.53371">
        <ele>146</ele>
        <time>2014-10-15T08:13:25.559Z</time>
      </trkpt>
      <trkpt lat="49.51176" lon="3.5337">
        <ele>146</ele>
        <time>2014-10-15T08:13:26.578Z</time>
      </trkpt>
      <trkpt lat="49.51183" lon="3.53363">
        <ele>146.8</ele>
        <time>2014-10-15T08:13:33.539Z</time>
      </trkpt>
      <trkpt lat="49.51185" lon="3.53362">
        <ele>146.9</ele>
        <time>2014-10-15T08:13:34.538Z</time>
      </trkpt>
      <trkpt lat="49.51192" lon="3.53357">
        <ele>146.6</ele>
        <time>2014-10-15T08:13:40.271Z</time>
      </trkpt>
      <trkpt lat="49.51193" lon="3.53356">
        <ele>146.6</ele>
        <time>2014-10-15T08:13:40.570Z</time>
      </trkpt>
      <trkpt lat="49.51201" lon="3.5335">
        <ele>147.2</ele>
        <time>2014-10-15T08:13:47.527Z</time>
      </trkpt>
      <trkpt lat="49.51204" lon="3.53349">
        <ele>147.2</ele>
        <time>2014-10-15T08:13:48.537Z</time>
      </trkpt>
      <trkpt lat="49.51212" lon="3.53346">
        <ele>146.8</ele>
        <time>2014-10-15T08:13:52.507Z</time>
      </trkpt>
      <trkpt lat="49.51214" lon="3.53345">
        <ele>147</ele>
        <time>2014-10-15T08:13:53.519Z</time>
      </trkpt>
      <trkpt lat="49.51221" lon="3.53338">
        <ele>148.2</ele>
        <time>2014-10-15T08:13:59.574Z</time>
      </trkpt>
      <trkpt lat="49.51223" lon="3.53337">
        <ele>148.2</ele>
        <time>2014-10-15T08:14:00.584Z</time>
      </trkpt>
      <trkpt lat="49.51229" lon="3.53331">
        <ele>148.7</ele>
        <time>2014-10-15T08:14:05.528Z</time>
      </trkpt>
      <trkpt lat="49.51231" lon="3.5333">
        <ele>148.8</ele>
        <time>2014-10-15T08:14:06.534Z</time>
      </trkpt>
      <trkpt lat="49.51238" lon="3.53323">
        <ele>149.8</ele>
        <time>2014-10-15T08:14:12.565Z</time>
      </trkpt>
      <trkpt lat="49.51239" lon="3.53323">
        <ele>149.6</ele>
        <time>2014-10-15T08:14:13.586Z</time>
      </trkpt>
      <trkpt lat="49.51247" lon="3.53318">
        <ele>148.6</ele>
        <time>2014-10-15T08:14:19.216Z</time>
      </trkpt>
      <trkpt lat="49.51248" lon="3.53317">
        <ele>148.7</ele>
        <time>2014-10-15T08:14:19.533Z</time>
      </trkpt>
      <trkpt lat="49.51255" lon="3.53311">
        <ele>147.7</ele>
        <time>2014-10-15T08:14:24.558Z</time>
      </trkpt>
      <trkpt lat="49.51256" lon="3.5331">
        <ele>147.6</ele>
        <time>2014-10-15T08:14:25.571Z</time>
      </trkpt>
      <trkpt lat="49.51264" lon="3.53304">
        <ele>147.1</ele>
        <time>2014-10-15T08:14:31.527Z</time>
      </trkpt>
      <trkpt lat="49.51264" lon="3.53303">
        <ele>147.1</ele>
        <time>2014-10-15T08:14:32.536Z</time>
      </trkpt>
      <trkpt lat="49.51272" lon="3.53298">
        <ele>147.2</ele>
        <time>2014-10-15T08:14:38.588Z</time>
      </trkpt>
      <trkpt lat="49.51273" lon="3.53297">
        <ele>147.1</ele>
        <time>2014-10-15T08:14:39.599Z</time>
      </trkpt>
      <trkpt lat="49.5128" lon="3.5329">
        <ele>147.8</ele>
        <time>2014-10-15T08:14:49.569Z</time>
      </trkpt>
      <trkpt lat="49.51281" lon="3.53289">
        <ele>147.8</ele>
        <time>2014-10-15T08:14:50.573Z</time>
      </trkpt>
      <trkpt lat="49.51288" lon="3.53283">
        <ele>147.6</ele>
        <time>2014-10-15T08:14:56.526Z</time>
      </trkpt>
      <trkpt lat="49.5129" lon="3.53282">
        <ele>147.8</ele>
        <time>2014-10-15T08:14:57.530Z</time>
      </trkpt>
      <trkpt lat="49.51296" lon="3.53275">
        <ele>148.8</ele>
        <time>2014-10-15T08:15:02.567Z</time>
      </trkpt>
      <trkpt lat="49.51298" lon="3.53274">
        <ele>149.2</ele>
        <time>2014-10-15T08:15:03.570Z</time>
      </trkpt>
      <trkpt lat="49.51305" lon="3.53268">
        <ele>150.2</ele>
        <time>2014-10-15T08:15:08.599Z</time>
      </trkpt>
      <trkpt lat="49.51307" lon="3.53267">
        <ele>150.3</ele>
        <time>2014-10-15T08:15:09.509Z</time>
      </trkpt>
      <trkpt lat="49.51314" lon="3.5326">
        <ele>151.1</ele>
        <time>2014-10-15T08:15:15.547Z</time>
      </trkpt>
      <trkpt lat="49.51315" lon="3.53259">
        <ele>151.1</ele>
        <time>2014-10-15T08:15:16.553Z</time>
      </trkpt>
      <trkpt lat="49.51323" lon="3.53254">
        <ele>151.4</ele>
        <time>2014-10-15T08:15:22.510Z</time>
      </trkpt>
      <trkpt lat="49.51325" lon="3.53253">
        <ele>151</ele>
        <time>2014-10-15T08:15:23.521Z</time>
      </trkpt>
      <trkpt lat="49.51333" lon="3.53247">
        <ele>151.6</ele>
        <time>2014-10-15T08:15:29.548Z</time>
      </trkpt>
      <trkpt lat="49.51334" lon="3.53246">
        <ele>151.6</ele>
        <time>2014-10-15T08:15:29.595Z</time>
      </trkpt>
      <trkpt lat="49.51343" lon="3.53241">
        <ele>151.9</ele>
        <time>2014-10-15T08:15:35.533Z</time>
      </trkpt>
      <trkpt lat="49.51344" lon="3.5324">
        <ele>151.9</ele>
        <time>2014-10-15T08:15:36.558Z</time>
      </trkpt>
      <trkpt lat="49.51351" lon="3.53233">
        <ele>151.9</ele>
        <time>2014-10-15T08:15:43.523Z</time>
      </trkpt>
      <trkpt lat="49.51353" lon="3.53232">
        <ele>151.8</ele>
        <time>2014-10-15T08:15:44.543Z</time>
      </trkpt>
      <trkpt lat="49.5136" lon="3.53226">
        <ele>151.9</ele>
        <time>2014-10-15T08:15:50.528Z</time>
      </trkpt>
      <trkpt lat="49.51362" lon="3.53225">
        <ele>152.1</ele>
        <time>2014-10-15T08:15:51.510Z</time>
      </trkpt>
      <trkpt lat="49.51368" lon="3.5322">
        <ele>152.3</ele>
        <time>2014-10-15T08:15:56.533Z</time>
      </trkpt>
      <trkpt lat="49.5137" lon="3.53219">
        <ele>152.3</ele>
        <time>2014-10-15T08:15:57.533Z</time>
      </trkpt>
      <trkpt lat="49.51379" lon="3.5322">
        <ele>152.3</ele>
        <time>2014-10-15T08:16:02.591Z</time>
      </trkpt>
      <trkpt lat="49.51381" lon="3.5322">
        <ele>152.3</ele>
        <time>2014-10-15T08:16:03.600Z</time>
      </trkpt>
      <trkpt lat="49.51389" lon="3.53221">
        <ele>152.1</ele>
        <time>2014-10-15T08:16:08.528Z</time>
      </trkpt>
      <trkpt lat="49.51391" lon="3.53222">
        <ele>152.1</ele>
        <time>2014-10-15T08:16:09.531Z</time>
      </trkpt>
      <trkpt lat="49.51398" lon="3.53226">
        <ele>151.9</ele>
        <time>2014-10-15T08:16:14.729Z</time>
      </trkpt>
      <trkpt lat="49.51399" lon="3.53228">
        <ele>151.9</ele>
        <time>2014-10-15T08:16:15.572Z</time>
      </trkpt>
      <trkpt lat="49.51405" lon="3.53236">
        <ele>151.5</ele>
        <time>2014-10-15T08:16:21.504Z</time>
      </trkpt>
      <trkpt lat="49.51406" lon="3.53238">
        <ele>151.5</ele>
        <time>2014-10-15T08:16:22.514Z</time>
      </trkpt>
      <trkpt lat="49.51414" lon="3.53246">
        <ele>151.5</ele>
        <time>2014-10-15T08:16:28.582Z</time>
      </trkpt>
      <trkpt lat="49.51415" lon="3.53248">
        <ele>151.8</ele>
        <time>2014-10-15T08:16:29.562Z</time>
      </trkpt>
      <trkpt lat="49.51422" lon="3.53253">
        <ele>153.5</ele>
        <time>2014-10-15T08:16:34.980Z</time>
      </trkpt>
      <trkpt lat="49.51423" lon="3.53255">
        <ele>153.7</ele>
        <time>2014-10-15T08:16:35.510Z</time>
      </trkpt>
      <trkpt lat="49.51431" lon="3.53262">
        <ele>155.1</ele>
        <time>2014-10-15T08:16:40.544Z</time>
      </trkpt>
      <trkpt lat="49.51432" lon="3.53264">
        <ele>155.4</ele>
        <time>2014-10-15T08:16:41.552Z</time>
      </trkpt>
      <trkpt lat="49.5144" lon="3.53271">
        <ele>156.9</ele>
        <time>2014-10-15T08:16:46.597Z</time>
      </trkpt>
      <trkpt lat="49.51441" lon="3.53272">
        <ele>156.9</ele>
        <time>2014-10-15T08:16:47.509Z</time>
      </trkpt>
      <trkpt lat="49.51447" lon="3.5328">
        <ele>157.2</ele>
        <time>2014-10-15T08:16:54.028Z</time>
      </trkpt>
      <trkpt lat="49.51448" lon="3.53281">
        <ele>157.3</ele>
        <time>2014-10-15T08:16:54.583Z</time>
      </trkpt>
      <trkpt lat="49.51455" lon="3.53288">
        <ele>157.6</ele>
        <time>2014-10-15T08:17:00.540Z</time>
      </trkpt>
      <trkpt lat="49.51456" lon="3.5329">
        <ele>157.6</ele>
        <time>2014-10-15T08:17:01.552Z</time>
      </trkpt>
      <trkpt lat="49.51463" lon="3.53297">
        <ele>158.1</ele>
        <time>2014-10-15T08:17:07.592Z</time>
      </trkpt>
      <trkpt lat="49.51464" lon="3.53298">
        <ele>158</ele>
        <time>2014-10-15T08:17:08.596Z</time>
      </trkpt>
      <trkpt lat="49.51471" lon="3.53305">
        <ele>158.2</ele>
        <time>2014-10-15T08:17:14.581Z</time>
      </trkpt>
      <trkpt lat="49.51472" lon="3.53306">
        <ele>158.6</ele>
        <time>2014-10-15T08:17:15.589Z</time>
      </trkpt>
      <trkpt lat="49.51478" lon="3.53313">
        <ele>159.1</ele>
        <time>2014-10-15T08:17:20.531Z</time>
      </trkpt>
      <trkpt lat="49.5148" lon="3.53314">
        <ele>159.5</ele>
        <time>2014-10-15T08:17:21.527Z</time>
      </trkpt>
      <trkpt lat="49.51486" lon="3.53322">
        <ele>160</ele>
        <time>2014-10-15T08:17:27.576Z</time>
      </trkpt>
      <trkpt lat="49.51488" lon="3.53323">
        <ele>160</ele>
        <time>2014-10-15T08:17:28.598Z</time>
      </trkpt>
      <trkpt lat="49.51495" lon="3.53328">
        <ele>159.5</ele>
        <time>2014-10-15T08:17:34.552Z</time>
      </trkpt>
      <trkpt lat="49.51496" lon="3.53329">
        <ele>159.5</ele>
        <time>2014-10-15T08:17:35.556Z</time>
      </trkpt>
      <trkpt lat="49.51502" lon="3.53336">
        <ele>159.6</ele>
        <time>2014-10-15T08:17:41.508Z</time>
      </trkpt>
      <trkpt lat="49.51503" lon="3.53337">
        <ele>159.8</ele>
        <time>2014-10-15T08:17:42.508Z</time>
      </trkpt>
      <trkpt lat="49.5151" lon="3.53343">
        <ele>159.4</ele>
        <time>2014-10-15T08:17:48.551Z</time>
      </trkpt>
      <trkpt lat="49.51511" lon="3.53344">
        <ele>159.3</ele>
        <time>2014-10-15T08:17:49.561Z</time>
      </trkpt>
      <trkpt lat="49.51519" lon="3.53352">
        <ele>158.9</ele>
        <time>2014-10-15T08:17:56.629Z</time>
      </trkpt>
      <trkpt lat="49.5152" lon="3.53353">
        <ele>158.9</ele>
        <time>2014-10-15T08:17:57.510Z</time>
      </trkpt>
      <trkpt lat="49.51526" lon="3.53362">
        <ele>159.4</ele>
        <time>2014-10-15T08:18:03.512Z</time>
      </trkpt>
      <trkpt lat="49.51528" lon="3.53363">
        <ele>159.4</ele>
        <time>2014-10-15T08:18:04.517Z</time>
      </trkpt>
      <trkpt lat="49.51533" lon="3.53372">
        <ele>159.4</ele>
        <time>2014-10-15T08:18:10.561Z</time>
      </trkpt>
      <trkpt lat="49.51534" lon="3.53374">
        <ele>159.6</ele>
        <time>2014-10-15T08:18:11.571Z</time>
      </trkpt>
      <trkpt lat="49.51542" lon="3.53381">
        <ele>160.2</ele>
        <time>2014-10-15T08:18:18.515Z</time>
      </trkpt>
      <trkpt lat="49.51543" lon="3.53382">
        <ele>160.4</ele>
        <time>2014-10-15T08:18:19.526Z</time>
      </trkpt>
      <trkpt lat="49.51549" lon="3.53389">
        <ele>160.5</ele>
        <time>2014-10-15T08:18:25.604Z</time>
      </trkpt>
      <trkpt lat="49.5155" lon="3.5339">
        <ele>160.6</ele>
        <time>2014-10-15T08:18:26.613Z</time>
      </trkpt>
      <trkpt lat="49.51556" lon="3.53398">
        <ele>160.9</ele>
        <time>2014-10-15T08:18:32.922Z</time>
      </trkpt>
      <trkpt lat="49.51558" lon="3.534">
        <ele>160.9</ele>
        <time>2014-10-15T08:18:33.576Z</time>
      </trkpt>
      <trkpt lat="49.51564" lon="3.53407">
        <ele>161.1</ele>
        <time>2014-10-15T08:18:39.492Z</time>
      </trkpt>
      <trkpt lat="49.51565" lon="3.53408">
        <ele>161.2</ele>
        <time>2014-10-15T08:18:40.510Z</time>
      </trkpt>
      <trkpt lat="49.51571" lon="3.53415">
        <ele>160.7</ele>
        <time>2014-10-15T08:18:46.548Z</time>
      </trkpt>
      <trkpt lat="49.51572" lon="3.53417">
        <ele>160.6</ele>
        <time>2014-10-15T08:18:47.572Z</time>
      </trkpt>
      <trkpt lat="49.51577" lon="3.53428">
        <ele>160.3</ele>
        <time>2014-10-15T08:18:54.024Z</time>
      </trkpt>
      <trkpt lat="49.51578" lon="3.5343">
        <ele>160.3</ele>
        <time>2014-10-15T08:18:54.539Z</time>
      </trkpt>
      <trkpt lat="49.51583" lon="3.53439">
        <ele>160.7</ele>
        <time>2014-10-15T08:18:59.570Z</time>
      </trkpt>
      <trkpt lat="49.51584" lon="3.5344">
        <ele>160.7</ele>
        <time>2014-10-15T08:19:00.597Z</time>
      </trkpt>
      <trkpt lat="49.5159" lon="3.5345">
        <ele>160.7</ele>
        <time>2014-10-15T08:19:06.569Z</time>
      </trkpt>
      <trkpt lat="49.51591" lon="3.53452">
        <ele>160.6</ele>
        <time>2014-10-15T08:19:07.594Z</time>
      </trkpt>
      <trkpt lat="49.51598" lon="3.53458">
        <ele>160.3</ele>
        <time>2014-10-15T08:19:13.532Z</time>
      </trkpt>
      <trkpt lat="49.51599" lon="3.5346">
        <ele>160.2</ele>
        <time>2014-10-15T08:19:14.537Z</time>
      </trkpt>
      <trkpt lat="49.51606" lon="3.53467">
        <ele>160.3</ele>
        <time>2014-10-15T08:19:20.582Z</time>
      </trkpt>
      <trkpt lat="49.51607" lon="3.53468">
        <ele>160.2</ele>
        <time>2014-10-15T08:19:21.592Z</time>
      </trkpt>
      <trkpt lat="49.51613" lon="3.53475">
        <ele>159.9</ele>
        <time>2014-10-15T08:19:27.945Z</time>
      </trkpt>
      <trkpt lat="49.51615" lon="3.53475">
        <ele>159.7</ele>
        <time>2014-10-15T08:19:28.543Z</time>
      </trkpt>
      <trkpt lat="49.51623" lon="3.53481">
        <ele>158.8</ele>
        <time>2014-10-15T08:19:35.508Z</time>
      </trkpt>
      <trkpt lat="49.51624" lon="3.53481">
        <ele>158.5</ele>
        <time>2014-10-15T08:19:36.507Z</time>
      </trkpt>
      <trkpt lat="49.51631" lon="3.53487">
        <ele>158.1</ele>
        <time>2014-10-15T08:19:43.158Z</time>
      </trkpt>
      <trkpt lat="49.51633" lon="3.53487">
        <ele>158</ele>
        <time>2014-10-15T08:19:43.571Z</time>
      </trkpt>
      <trkpt lat="49.51641" lon="3.53492">
        <ele>157.3</ele>
        <time>2014-10-15T08:19:49.521Z</time>
      </trkpt>
      <trkpt lat="49.51642" lon="3.53493">
        <ele>157.1</ele>
        <time>2014-10-15T08:19:50.534Z</time>
      </trkpt>
      <trkpt lat="49.5165" lon="3.53497">
        <ele>156.2</ele>
        <time>2014-10-15T08:19:57.525Z</time>
      </trkpt>
      <trkpt lat="49.51652" lon="3.53498">
        <ele>156.2</ele>
        <time>2014-10-15T08:19:57.572Z</time>
      </trkpt>
      <trkpt lat="49.5166" lon="3.53503">
        <ele>156.5</ele>
        <time>2014-10-15T08:20:03.510Z</time>
      </trkpt>
      <trkpt lat="49.51661" lon="3.53503">
        <ele>156.2</ele>
        <time>2014-10-15T08:20:04.508Z</time>
      </trkpt>
      <trkpt lat="49.5167" lon="3.53506">
        <ele>155.6</ele>
        <time>2014-10-15T08:20:10.551Z</time>
      </trkpt>
      <trkpt lat="49.51672" lon="3.53506">
        <ele>155.5</ele>
        <time>2014-10-15T08:20:11.560Z</time>
      </trkpt>
      <trkpt lat="49.5168" lon="3.53507">
        <ele>155.6</ele>
        <time>2014-10-15T08:20:16.508Z</time>
      </trkpt>
      <trkpt lat="49.51682" lon="3.53508">
        <ele>155.5</ele>
        <time>2014-10-15T08:20:17.510Z</time>
      </trkpt>
      <trkpt lat="49.51689" lon="3.5351">
        <ele>155.5</ele>
        <time>2014-10-15T08:20:22.829Z</time>
      </trkpt>
      <trkpt lat="49.51691" lon="3.53511">
        <ele>155.5</ele>
        <time>2014-10-15T08:20:23.559Z</time>
      </trkpt>
      <trkpt lat="49.51698" lon="3.53514">
        <ele>155.4</ele>
        <time>2014-10-15T08:20:28.597Z</time>
      </trkpt>
      <trkpt lat="49.517" lon="3.53514">
        <ele>155.4</ele>
        <time>2014-10-15T08:20:29.510Z</time>
      </trkpt>
      <trkpt lat="49.51708" lon="3.53517">
        <ele>155.5</ele>
        <time>2014-10-15T08:20:34.540Z</time>
      </trkpt>
      <trkpt lat="49.51709" lon="3.53517">
        <ele>155.6</ele>
        <time>2014-10-15T08:20:35.541Z</time>
      </trkpt>
      <trkpt lat="49.51717" lon="3.53519">
        <ele>155.4</ele>
        <time>2014-10-15T08:20:40.585Z</time>
      </trkpt>
      <trkpt lat="49.51718" lon="3.5352">
        <ele>155.3</ele>
        <time>2014-10-15T08:20:41.596Z</time>
      </trkpt>
      <trkpt lat="49.51727" lon="3.53523">
        <ele>155.3</ele>
        <time>2014-10-15T08:20:47.939Z</time>
      </trkpt>
      <trkpt lat="49.51728" lon="3.53523">
        <ele>155.2</ele>
        <time>2014-10-15T08:20:48.524Z</time>
      </trkpt>
      <trkpt lat="49.51736" lon="3.53526">
        <ele>155.3</ele>
        <time>2014-10-15T08:20:53.557Z</time>
      </trkpt>
      <trkpt lat="49.51737" lon="3.53526">
        <ele>155.3</ele>
        <time>2014-10-15T08:20:54.560Z</time>
      </trkpt>
      <trkpt lat="49.51745" lon="3.53529">
        <ele>155.7</ele>
        <time>2014-10-15T08:20:59.596Z</time>
      </trkpt>
      <trkpt lat="49.51746" lon="3.53529">
        <ele>155.7</ele>
        <time>2014-10-15T08:21:00.506Z</time>
      </trkpt>
      <trkpt lat="49.51754" lon="3.53532">
        <ele>155.8</ele>
        <time>2014-10-15T08:21:05.558Z</time>
      </trkpt>
      <trkpt lat="49.51755" lon="3.53533">
        <ele>155.8</ele>
        <time>2014-10-15T08:21:06.566Z</time>
      </trkpt>
      <trkpt lat="49.51763" lon="3.53535">
        <ele>155.1</ele>
        <time>2014-10-15T08:21:12.611Z</time>
      </trkpt>
      <trkpt lat="49.51765" lon="3.53535">
        <ele>154.7</ele>
        <time>2014-10-15T08:21:13.526Z</time>
      </trkpt>
      <trkpt lat="49.51773" lon="3.53535">
        <ele>155</ele>
        <time>2014-10-15T08:21:18.632Z</time>
      </trkpt>
      <trkpt lat="49.51775" lon="3.53535">
        <ele>155.1</ele>
        <time>2014-10-15T08:21:19.577Z</time>
      </trkpt>
      <trkpt lat="49.51783" lon="3.53537">
        <ele>155.5</ele>
        <time>2014-10-15T08:21:25.523Z</time>
      </trkpt>
      <trkpt lat="49.51785" lon="3.53537">
        <ele>155.5</ele>
        <time>2014-10-15T08:21:26.542Z</time>
      </trkpt>
      <trkpt lat="49.51792" lon="3.53537">
        <ele>155.8</ele>
        <time>2014-10-15T08:21:31.577Z</time>
      </trkpt>
      <trkpt lat="49.51794" lon="3.53537">
        <ele>155.8</ele>
        <time>2014-10-15T08:21:32.582Z</time>
      </trkpt>
      <trkpt lat="49.51802" lon="3.53537">
        <ele>155.6</ele>
        <time>2014-10-15T08:21:37.942Z</time>
      </trkpt>
      <trkpt lat="49.51804" lon="3.53537">
        <ele>155.7</ele>
        <time>2014-10-15T08:21:38.535Z</time>
      </trkpt>
      <trkpt lat="49.51811" lon="3.53536">
        <ele>155.8</ele>
        <time>2014-10-15T08:21:43.563Z</time>
      </trkpt>
      <trkpt lat="49.51813" lon="3.53536">
        <ele>155.8</ele>
        <time>2014-10-15T08:21:44.572Z</time>
      </trkpt>
      <trkpt lat="49.51821" lon="3.53535">
        <ele>155.6</ele>
        <time>2014-10-15T08:21:49.520Z</time>
      </trkpt>
      <trkpt lat="49.51823" lon="3.53534">
        <ele>155.4</ele>
        <time>2014-10-15T08:21:50.537Z</time>
      </trkpt>
      <trkpt lat="49.51831" lon="3.53534">
        <ele>154.2</ele>
        <time>2014-10-15T08:21:56.596Z</time>
      </trkpt>
      <trkpt lat="49.51833" lon="3.53534">
        <ele>154.1</ele>
        <time>2014-10-15T08:21:57.510Z</time>
      </trkpt>
      <trkpt lat="49.51841" lon="3.53535">
        <ele>153.1</ele>
        <time>2014-10-15T08:22:04.566Z</time>
      </trkpt>
      <trkpt lat="49.51843" lon="3.53535">
        <ele>153.1</ele>
        <time>2014-10-15T08:22:05.569Z</time>
      </trkpt>
      <trkpt lat="49.5185" lon="3.53534">
        <ele>154</ele>
        <time>2014-10-15T08:22:11.530Z</time>
      </trkpt>
      <trkpt lat="49.51852" lon="3.53534">
        <ele>154.2</ele>
        <time>2014-10-15T08:22:12.537Z</time>
      </trkpt>
      <trkpt lat="49.51861" lon="3.53533">
        <ele>154</ele>
        <time>2014-10-15T08:22:17.727Z</time>
      </trkpt>
      <trkpt lat="49.51862" lon="3.53534">
        <ele>154</ele>
        <time>2014-10-15T08:22:18.576Z</time>
      </trkpt>
      <trkpt lat="49.51871" lon="3.53535">
        <ele>154.3</ele>
        <time>2014-10-15T08:22:24.514Z</time>
      </trkpt>
      <trkpt lat="49.51872" lon="3.53535">
        <ele>154.3</ele>
        <time>2014-10-15T08:22:25.519Z</time>
      </trkpt>
      <trkpt lat="49.5188" lon="3.53536">
        <ele>154.8</ele>
        <time>2014-10-15T08:22:30.582Z</time>
      </trkpt>
      <trkpt lat="49.51882" lon="3.53536">
        <ele>154.8</ele>
        <time>2014-10-15T08:22:31.585Z</time>
      </trkpt>
      <trkpt lat="49.5189" lon="3.53537">
        <ele>154.9</ele>
        <time>2014-10-15T08:22:36.513Z</time>
      </trkpt>
      <trkpt lat="49.51891" lon="3.53537">
        <ele>154.9</ele>
        <time>2014-10-15T08:22:37.519Z</time>
      </trkpt>
      <trkpt lat="49.519" lon="3.53539">
        <ele>155.4</ele>
        <time>2014-10-15T08:22:44.588Z</time>
      </trkpt>
      <trkpt lat="49.51902" lon="3.53539">
        <ele>155.3</ele>
        <time>2014-10-15T08:22:45.598Z</time>
      </trkpt>
      <trkpt lat="49.51911" lon="3.5354">
        <ele>156.1</ele>
        <time>2014-10-15T08:22:53.408Z</time>
      </trkpt>
      <trkpt lat="49.51912" lon="3.53541">
        <ele>156.2</ele>
        <time>2014-10-15T08:22:53.568Z</time>
      </trkpt>
      <trkpt lat="49.5192" lon="3.53542">
        <ele>156.4</ele>
        <time>2014-10-15T08:22:58.510Z</time>
      </trkpt>
      <trkpt lat="49.51922" lon="3.53542">
        <ele>156.3</ele>
        <time>2014-10-15T08:22:59.521Z</time>
      </trkpt>
      <trkpt lat="49.5193" lon="3.53544">
        <ele>156.8</ele>
        <time>2014-10-15T08:23:05.513Z</time>
      </trkpt>
      <trkpt lat="49.5193" lon="3.53544">
        <ele>156.9</ele>
        <time>2014-10-15T08:23:06.519Z</time>
      </trkpt>
      <trkpt lat="49.51938" lon="3.53547">
        <ele>156.8</ele>
        <time>2014-10-15T08:23:13.609Z</time>
      </trkpt>
      <trkpt lat="49.5194" lon="3.53547">
        <ele>156.8</ele>
        <time>2014-10-15T08:23:14.615Z</time>
      </trkpt>
      <trkpt lat="49.51948" lon="3.53549">
        <ele>156.5</ele>
        <time>2014-10-15T08:23:20.544Z</time>
      </trkpt>
      <trkpt lat="49.51949" lon="3.53549">
        <ele>156.6</ele>
        <time>2014-10-15T08:23:21.556Z</time>
      </trkpt>
      <trkpt lat="49.51958" lon="3.5355">
        <ele>157.1</ele>
        <time>2014-10-15T08:23:28.548Z</time>
      </trkpt>
      <trkpt lat="49.51958" lon="3.5355">
        <ele>157</ele>
        <time>2014-10-15T08:23:29.555Z</time>
      </trkpt>
      <trkpt lat="49.51967" lon="3.53551">
        <ele>157.1</ele>
        <time>2014-10-15T08:23:36.544Z</time>
      </trkpt>
      <trkpt lat="49.51968" lon="3.53551">
        <ele>157.2</ele>
        <time>2014-10-15T08:23:37.551Z</time>
      </trkpt>
      <trkpt lat="49.51977" lon="3.53553">
        <ele>158</ele>
        <time>2014-10-15T08:23:44.604Z</time>
      </trkpt>
      <trkpt lat="49.51978" lon="3.53553">
        <ele>158</ele>
        <time>2014-10-15T08:23:45.509Z</time>
      </trkpt>
      <trkpt lat="49.51986" lon="3.53555">
        <ele>159.2</ele>
        <time>2014-10-15T08:23:51.544Z</time>
      </trkpt>
      <trkpt lat="49.51987" lon="3.53555">
        <ele>159.3</ele>
        <time>2014-10-15T08:23:52.553Z</time>
      </trkpt>
      <trkpt lat="49.51995" lon="3.53557">
        <ele>159.5</ele>
        <time>2014-10-15T08:23:57.524Z</time>
      </trkpt>
      <trkpt lat="49.51996" lon="3.53557">
        <ele>159.6</ele>
        <time>2014-10-15T08:23:57.589Z</time>
      </trkpt>
      <trkpt lat="49.52003" lon="3.53562">
        <ele>159.3</ele>
        <time>2014-10-15T08:24:02.548Z</time>
      </trkpt>
      <trkpt lat="49.52005" lon="3.53562">
        <ele>159.4</ele>
        <time>2014-10-15T08:24:03.548Z</time>
      </trkpt>
      <trkpt lat="49.52012" lon="3.53565">
        <ele>160</ele>
        <time>2014-10-15T08:24:10.504Z</time>
      </trkpt>
      <trkpt lat="49.52014" lon="3.53565">
        <ele>160.2</ele>
        <time>2014-10-15T08:24:11.517Z</time>
      </trkpt>
      <trkpt lat="49.52021" lon="3.53571">
        <ele>161.6</ele>
        <time>2014-10-15T08:24:18.558Z</time>
      </trkpt>
      <trkpt lat="49.52023" lon="3.53572">
        <ele>161.8</ele>
        <time>2014-10-15T08:24:19.564Z</time>
      </trkpt>
      <trkpt lat="49.52031" lon="3.53575">
        <ele>163.3</ele>
        <time>2014-10-15T08:24:24.508Z</time>
      </trkpt>
      <trkpt lat="49.52033" lon="3.53575">
        <ele>163.4</ele>
        <time>2014-10-15T08:24:25.515Z</time>
      </trkpt>
      <trkpt lat="49.5204" lon="3.53581">
        <ele>162.5</ele>
        <time>2014-10-15T08:24:30.534Z</time>
      </trkpt>
      <trkpt lat="49.52041" lon="3.53582">
        <ele>163</ele>
        <time>2014-10-15T08:24:31.540Z</time>
      </trkpt>
      <trkpt lat="49.52048" lon="3.53587">
        <ele>164.6</ele>
        <time>2014-10-15T08:24:37.857Z</time>
      </trkpt>
      <trkpt lat="49.5205" lon="3.53588">
        <ele>164.6</ele>
        <time>2014-10-15T08:24:38.596Z</time>
      </trkpt>
      <trkpt lat="49.52057" lon="3.53594">
        <ele>166.5</ele>
        <time>2014-10-15T08:24:43.517Z</time>
      </trkpt>
      <trkpt lat="49.52058" lon="3.53595">
        <ele>166.5</ele>
        <time>2014-10-15T08:24:44.545Z</time>
      </trkpt>
      <trkpt lat="49.52065" lon="3.53604">
        <ele>166.1</ele>
        <time>2014-10-15T08:24:50.587Z</time>
      </trkpt>
      <trkpt lat="49.52066" lon="3.53604">
        <ele>165.8</ele>
        <time>2014-10-15T08:24:51.596Z</time>
      </trkpt>
      <trkpt lat="49.52072" lon="3.53611">
        <ele>164.9</ele>
        <time>2014-10-15T08:24:57.569Z</time>
      </trkpt>
      <trkpt lat="49.52073" lon="3.53613">
        <ele>165</ele>
        <time>2014-10-15T08:24:58.580Z</time>
      </trkpt>
      <trkpt lat="49.5208" lon="3.5362">
        <ele>166.6</ele>
        <time>2014-10-15T08:25:04.512Z</time>
      </trkpt>
      <trkpt lat="49.52081" lon="3.53621">
        <ele>166.9</ele>
        <time>2014-10-15T08:25:05.515Z</time>
      </trkpt>
      <trkpt lat="49.52089" lon="3.53628">
        <ele>168.8</ele>
        <time>2014-10-15T08:25:11.586Z</time>
      </trkpt>
      <trkpt lat="49.5209" lon="3.53629">
        <ele>169</ele>
        <time>2014-10-15T08:25:12.600Z</time>
      </trkpt>
      <trkpt lat="49.52097" lon="3.53636">
        <ele>170.7</ele>
        <time>2014-10-15T08:25:21.508Z</time>
      </trkpt>
      <trkpt lat="49.52099" lon="3.53638">
        <ele>169.7</ele>
        <time>2014-10-15T08:25:22.512Z</time>
      </trkpt>
      <trkpt lat="49.52105" lon="3.53646">
        <ele>169.3</ele>
        <time>2014-10-15T08:25:27.551Z</time>
      </trkpt>
      <trkpt lat="49.52107" lon="3.53648">
        <ele>169.4</ele>
        <time>2014-10-15T08:25:28.561Z</time>
      </trkpt>
      <trkpt lat="49.52114" lon="3.53656">
        <ele>170.2</ele>
        <time>2014-10-15T08:25:32.588Z</time>
      </trkpt>
      <trkpt lat="49.52116" lon="3.53658">
        <ele>170.3</ele>
        <time>2014-10-15T08:25:33.597Z</time>
      </trkpt>
      <trkpt lat="49.52122" lon="3.53664">
        <ele>169.7</ele>
        <time>2014-10-15T08:25:37.520Z</time>
      </trkpt>
      <trkpt lat="49.52124" lon="3.53666">
        <ele>169.6</ele>
        <time>2014-10-15T08:25:38.550Z</time>
      </trkpt>
      <trkpt lat="49.52131" lon="3.53673">
        <ele>168.9</ele>
        <time>2014-10-15T08:25:43.588Z</time>
      </trkpt>
      <trkpt lat="49.52132" lon="3.53674">
        <ele>168.9</ele>
        <time>2014-10-15T08:25:44.591Z</time>
      </trkpt>
      <trkpt lat="49.5214" lon="3.5368">
        <ele>168.7</ele>
        <time>2014-10-15T08:25:50.533Z</time>
      </trkpt>
      <trkpt lat="49.52141" lon="3.53681">
        <ele>168.6</ele>
        <time>2014-10-15T08:25:51.537Z</time>
      </trkpt>
      <trkpt lat="49.52149" lon="3.53686">
        <ele>169</ele>
        <time>2014-10-15T08:25:58.585Z</time>
      </trkpt>
      <trkpt lat="49.5215" lon="3.53687">
        <ele>168.8</ele>
        <time>2014-10-15T08:25:59.498Z</time>
      </trkpt>
      <trkpt lat="49.52158" lon="3.53692">
        <ele>168.2</ele>
        <time>2014-10-15T08:26:05.553Z</time>
      </trkpt>
      <trkpt lat="49.52159" lon="3.53693">
        <ele>168.3</ele>
        <time>2014-10-15T08:26:06.580Z</time>
      </trkpt>
      <trkpt lat="49.52167" lon="3.53698">
        <ele>167.6</ele>
        <time>2014-10-15T08:26:12.999Z</time>
      </trkpt>
      <trkpt lat="49.52169" lon="3.53699">
        <ele>167.6</ele>
        <time>2014-10-15T08:26:13.517Z</time>
      </trkpt>
      <trkpt lat="49.52177" lon="3.53703">
        <ele>167.2</ele>
        <time>2014-10-15T08:26:19.518Z</time>
      </trkpt>
      <trkpt lat="49.52178" lon="3.53703">
        <ele>167.1</ele>
        <time>2014-10-15T08:26:20.544Z</time>
      </trkpt>
      <trkpt lat="49.52186" lon="3.53707">
        <ele>166.9</ele>
        <time>2014-10-15T08:26:26.598Z</time>
      </trkpt>
      <trkpt lat="49.52187" lon="3.53707">
        <ele>166.9</ele>
        <time>2014-10-15T08:26:27.507Z</time>
      </trkpt>
      <trkpt lat="49.52194" lon="3.53711">
        <ele>166.8</ele>
        <time>2014-10-15T08:26:33.313Z</time>
      </trkpt>
      <trkpt lat="49.52196" lon="3.53712">
        <ele>167.1</ele>
        <time>2014-10-15T08:26:33.546Z</time>
      </trkpt>
      <trkpt lat="49.52204" lon="3.53716">
        <ele>167.3</ele>
        <time>2014-10-15T08:26:39.590Z</time>
      </trkpt>
      <trkpt lat="49.52205" lon="3.53716">
        <ele>167.2</ele>
        <time>2014-10-15T08:26:40.513Z</time>
      </trkpt>
      <trkpt lat="49.52213" lon="3.53719">
        <ele>167.4</ele>
        <time>2014-10-15T08:26:48.633Z</time>
      </trkpt>
      <trkpt lat="49.52214" lon="3.53719">
        <ele>167.3</ele>
        <time>2014-10-15T08:26:49.582Z</time>
      </trkpt>
      <trkpt lat="49.52222" lon="3.53726">
        <ele>163.9</ele>
        <time>2014-10-15T08:26:53.643Z</time>
      </trkpt>
      <trkpt lat="49.52223" lon="3.53727">
        <ele>163.3</ele>
        <time>2014-10-15T08:26:54.516Z</time>
      </trkpt>
      <trkpt lat="49.5223" lon="3.53731">
        <ele>161.2</ele>
        <time>2014-10-15T08:26:59.058Z</time>
      </trkpt>
      <trkpt lat="49.52232" lon="3.53731">
        <ele>160.9</ele>
        <time>2014-10-15T08:26:59.566Z</time>
      </trkpt>
      <trkpt lat="49.52241" lon="3.53734">
        <ele>160</ele>
        <time>2014-10-15T08:27:04.512Z</time>
      </trkpt>
      <trkpt lat="49.52243" lon="3.53734">
        <ele>160.4</ele>
        <time>2014-10-15T08:27:05.514Z</time>
      </trkpt>
      <trkpt lat="49.5225" lon="3.5374">
        <ele>160.2</ele>
        <time>2014-10-15T08:27:11.550Z</time>
      </trkpt>
      <trkpt lat="49.52251" lon="3.53741">
        <ele>160.2</ele>
        <time>2014-10-15T08:27:12.577Z</time>
      </trkpt>
      <trkpt lat="49.52257" lon="3.53747">
        <ele>159.8</ele>
        <time>2014-10-15T08:27:17.588Z</time>
      </trkpt>
      <trkpt lat="49.52259" lon="3.53749">
        <ele>159.8</ele>
        <time>2014-10-15T08:27:18.534Z</time>
      </trkpt>
      <trkpt lat="49.52267" lon="3.53755">
        <ele>160</ele>
        <time>2014-10-15T08:27:25.539Z</time>
      </trkpt>
      <trkpt lat="49.52268" lon="3.53757">
        <ele>160</ele>
        <time>2014-10-15T08:27:26.633Z</time>
      </trkpt>
      <trkpt lat="49.52276" lon="3.53762">
        <ele>159.3</ele>
        <time>2014-10-15T08:27:32.630Z</time>
      </trkpt>
      <trkpt lat="49.52277" lon="3.53762">
        <ele>159.1</ele>
        <time>2014-10-15T08:27:33.527Z</time>
      </trkpt>
      <trkpt lat="49.52285" lon="3.53766">
        <ele>159.2</ele>
        <time>2014-10-15T08:27:40.588Z</time>
      </trkpt>
      <trkpt lat="49.52287" lon="3.53766">
        <ele>159.2</ele>
        <time>2014-10-15T08:27:41.590Z</time>
      </trkpt>
      <trkpt lat="49.52288" lon="3.53766">
        <ele>159.7</ele>
        <time>2014-10-15T08:27:43.598Z</time>
      </trkpt>
      <trkpt lat="49.52289" lon="3.53766">
        <ele>159.9</ele>
        <time>2014-10-15T08:27:44.605Z</time>
      </trkpt>
      <trkpt lat="49.52289" lon="3.53766">
        <ele>160.1</ele>
        <time>2014-10-15T08:28:20.556Z</time>
      </trkpt>
      <trkpt lat="49.5229" lon="3.53764">
        <ele>156.5</ele>
        <time>2014-10-15T08:28:21.559Z</time>
      </trkpt>
      <trkpt lat="49.52294" lon="3.53752">
        <ele>156.1</ele>
        <time>2014-10-15T08:29:06.520Z</time>
      </trkpt>
      <trkpt lat="49.52294" lon="3.53751">
        <ele>156.1</ele>
        <time>2014-10-15T08:29:07.524Z</time>
      </trkpt>
      <trkpt lat="49.52301" lon="3.53742">
        <ele>155.6</ele>
        <time>2014-10-15T08:29:14.597Z</time>
      </trkpt>
      <trkpt lat="49.52302" lon="3.53741">
        <ele>155.5</ele>
        <time>2014-10-15T08:29:15.606Z</time>
      </trkpt>
      <trkpt lat="49.52308" lon="3.53735">
        <ele>155.2</ele>
        <time>2014-10-15T08:29:21.555Z</time>
      </trkpt>
      <trkpt lat="49.5231" lon="3.53733">
        <ele>155.2</ele>
        <time>2014-10-15T08:29:22.603Z</time>
      </trkpt>
      <trkpt lat="49.52317" lon="3.53725">
        <ele>155.1</ele>
        <time>2014-10-15T08:29:29.527Z</time>
      </trkpt>
      <trkpt lat="49.52318" lon="3.53723">
        <ele>154.9</ele>
        <time>2014-10-15T08:29:30.542Z</time>
      </trkpt>
      <trkpt lat="49.52324" lon="3.53714">
        <ele>155.1</ele>
        <time>2014-10-15T08:29:37.534Z</time>
      </trkpt>
      <trkpt lat="49.52325" lon="3.53713">
        <ele>155.2</ele>
        <time>2014-10-15T08:29:38.551Z</time>
      </trkpt>
      <trkpt lat="49.5233" lon="3.53703">
        <ele>155.3</ele>
        <time>2014-10-15T08:29:44.637Z</time>
      </trkpt>
      <trkpt lat="49.52331" lon="3.53701">
        <ele>155.4</ele>
        <time>2014-10-15T08:29:45.512Z</time>
      </trkpt>
      <trkpt lat="49.52334" lon="3.5369">
        <ele>155.5</ele>
        <time>2014-10-15T08:29:53.559Z</time>
      </trkpt>
      <trkpt lat="49.52336" lon="3.53688">
        <ele>155.5</ele>
        <time>2014-10-15T08:29:54.558Z</time>
      </trkpt>
      <trkpt lat="49.52344" lon="3.53682">
        <ele>154.6</ele>
        <time>2014-10-15T08:30:00.610Z</time>
      </trkpt>
      <trkpt lat="49.52345" lon="3.53681">
        <ele>154.7</ele>
        <time>2014-10-15T08:30:01.514Z</time>
      </trkpt>
      <trkpt lat="49.5235" lon="3.53669">
        <ele>155</ele>
        <time>2014-10-15T08:30:07.773Z</time>
      </trkpt>
      <trkpt lat="49.5235" lon="3.53668">
        <ele>155.1</ele>
        <time>2014-10-15T08:30:08.634Z</time>
      </trkpt>
      <trkpt lat="49.52354" lon="3.53656">
        <ele>155.6</ele>
        <time>2014-10-15T08:30:14.560Z</time>
      </trkpt>
      <trkpt lat="49.52354" lon="3.53654">
        <ele>155.6</ele>
        <time>2014-10-15T08:30:15.567Z</time>
      </trkpt>
      <trkpt lat="49.52356" lon="3.53641">
        <ele>157.5</ele>
        <time>2014-10-15T08:30:19.527Z</time>
      </trkpt>
      <trkpt lat="49.52357" lon="3.53639">
        <ele>157.6</ele>
        <time>2014-10-15T08:30:20.553Z</time>
      </trkpt>
      <trkpt lat="49.5236" lon="3.53626">
        <ele>158.3</ele>
        <time>2014-10-15T08:30:25.511Z</time>
      </trkpt>
      <trkpt lat="49.52361" lon="3.53623">
        <ele>158.4</ele>
        <time>2014-10-15T08:30:26.559Z</time>
      </trkpt>
      <trkpt lat="49.52366" lon="3.53612">
        <ele>158.5</ele>
        <time>2014-10-15T08:30:33.040Z</time>
      </trkpt>
      <trkpt lat="49.52367" lon="3.5361">
        <ele>158.7</ele>
        <time>2014-10-15T08:30:33.520Z</time>
      </trkpt>
      <trkpt lat="49.52372" lon="3.536">
        <ele>158.4</ele>
        <time>2014-10-15T08:30:39.604Z</time>
      </trkpt>
      <trkpt lat="49.52373" lon="3.53598">
        <ele>158.4</ele>
        <time>2014-10-15T08:30:40.519Z</time>
      </trkpt>
      <trkpt lat="49.52379" lon="3.53589">
        <ele>158.6</ele>
        <time>2014-10-15T08:30:46.567Z</time>
      </trkpt>
      <trkpt lat="49.5238" lon="3.53587">
        <ele>158.5</ele>
        <time>2014-10-15T08:30:47.658Z</time>
      </trkpt>
      <trkpt lat="49.52386" lon="3.53578">
        <ele>158.4</ele>
        <time>2014-10-15T08:30:53.584Z</time>
      </trkpt>
      <trkpt lat="49.52387" lon="3.53576">
        <ele>157.9</ele>
        <time>2014-10-15T08:30:54.602Z</time>
      </trkpt>
      <trkpt lat="49.52393" lon="3.53568">
        <ele>158.9</ele>
        <time>2014-10-15T08:31:00.581Z</time>
      </trkpt>
      <trkpt lat="49.52394" lon="3.53567">
        <ele>159</ele>
        <time>2014-10-15T08:31:01.592Z</time>
      </trkpt>
      <trkpt lat="49.52401" lon="3.53559">
        <ele>159.1</ele>
        <time>2014-10-15T08:31:07.577Z</time>
      </trkpt>
      <trkpt lat="49.52403" lon="3.53558">
        <ele>158.9</ele>
        <time>2014-10-15T08:31:08.553Z</time>
      </trkpt>
      <trkpt lat="49.5241" lon="3.53552">
        <ele>158.2</ele>
        <time>2014-10-15T08:31:14.582Z</time>
      </trkpt>
      <trkpt lat="49.52412" lon="3.53551">
        <ele>158.2</ele>
        <time>2014-10-15T08:31:15.590Z</time>
      </trkpt>
      <trkpt lat="49.52419" lon="3.53545">
        <ele>158.2</ele>
        <time>2014-10-15T08:31:22.679Z</time>
      </trkpt>
      <trkpt lat="49.5242" lon="3.53544">
        <ele>158.1</ele>
        <time>2014-10-15T08:31:23.528Z</time>
      </trkpt>
      <trkpt lat="49.52428" lon="3.53538">
        <ele>157.1</ele>
        <time>2014-10-15T08:31:30.581Z</time>
      </trkpt>
      <trkpt lat="49.52429" lon="3.53537">
        <ele>157.2</ele>
        <time>2014-10-15T08:31:31.595Z</time>
      </trkpt>
      <trkpt lat="49.52436" lon="3.53529">
        <ele>158.1</ele>
        <time>2014-10-15T08:31:38.566Z</time>
      </trkpt>
      <trkpt lat="49.52437" lon="3.53529">
        <ele>158.2</ele>
        <time>2014-10-15T08:31:39.578Z</time>
      </trkpt>
      <trkpt lat="49.52443" lon="3.53521">
        <ele>159.2</ele>
        <time>2014-10-15T08:31:45.522Z</time>
      </trkpt>
      <trkpt lat="49.52445" lon="3.5352">
        <ele>159.5</ele>
        <time>2014-10-15T08:31:46.528Z</time>
      </trkpt>
      <trkpt lat="49.52453" lon="3.53516">
        <ele>159.2</ele>
        <time>2014-10-15T08:31:51.563Z</time>
      </trkpt>
      <trkpt lat="49.52455" lon="3.53515">
        <ele>159</ele>
        <time>2014-10-15T08:31:52.566Z</time>
      </trkpt>
      <trkpt lat="49.52462" lon="3.53509">
        <ele>160.1</ele>
        <time>2014-10-15T08:31:57.626Z</time>
      </trkpt>
      <trkpt lat="49.52464" lon="3.53508">
        <ele>160.3</ele>
        <time>2014-10-15T08:31:58.525Z</time>
      </trkpt>
      <trkpt lat="49.52471" lon="3.53503">
        <ele>160</ele>
        <time>2014-10-15T08:32:02.585Z</time>
      </trkpt>
      <trkpt lat="49.52472" lon="3.53503">
        <ele>159.8</ele>
        <time>2014-10-15T08:32:03.594Z</time>
      </trkpt>
      <trkpt lat="49.52481" lon="3.53499">
        <ele>159.9</ele>
        <time>2014-10-15T08:32:08.551Z</time>
      </trkpt>
      <trkpt lat="49.52483" lon="3.53499">
        <ele>160</ele>
        <time>2014-10-15T08:32:09.556Z</time>
      </trkpt>
      <trkpt lat="49.52491" lon="3.53499">
        <ele>160.6</ele>
        <time>2014-10-15T08:32:14.597Z</time>
      </trkpt>
      <trkpt lat="49.52493" lon="3.53499">
        <ele>160.6</ele>
        <time>2014-10-15T08:32:15.600Z</time>
      </trkpt>
      <trkpt lat="49.52501" lon="3.53499">
        <ele>160</ele>
        <time>2014-10-15T08:32:21.551Z</time>
      </trkpt>
      <trkpt lat="49.52503" lon="3.53499">
        <ele>159.9</ele>
        <time>2014-10-15T08:32:22.560Z</time>
      </trkpt>
      <trkpt lat="49.5251" lon="3.53498">
        <ele>158.8</ele>
        <time>2014-10-15T08:32:26.580Z</time>
      </trkpt>
      <trkpt lat="49.52512" lon="3.53498">
        <ele>159</ele>
        <time>2014-10-15T08:32:27.595Z</time>
      </trkpt>
      <trkpt lat="49.5252" lon="3.53498">
        <ele>158.9</ele>
        <time>2014-10-15T08:32:31.625Z</time>
      </trkpt>
      <trkpt lat="49.52522" lon="3.53498">
        <ele>158.8</ele>
        <time>2014-10-15T08:32:32.620Z</time>
      </trkpt>
      <trkpt lat="49.52531" lon="3.535">
        <ele>159.7</ele>
        <time>2014-10-15T08:32:36.559Z</time>
      </trkpt>
      <trkpt lat="49.52532" lon="3.53501">
        <ele>160.3</ele>
        <time>2014-10-15T08:32:37.566Z</time>
      </trkpt>
      <trkpt lat="49.52539" lon="3.53507">
        <ele>160.8</ele>
        <time>2014-10-15T08:32:42.959Z</time>
      </trkpt>
      <trkpt lat="49.5254" lon="3.5351">
        <ele>160.8</ele>
        <time>2014-10-15T08:32:43.613Z</time>
      </trkpt>
      <trkpt lat="49.52546" lon="3.53519">
        <ele>161.6</ele>
        <time>2014-10-15T08:32:48.542Z</time>
      </trkpt>
      <trkpt lat="49.52547" lon="3.53521">
        <ele>161.7</ele>
        <time>2014-10-15T08:32:49.547Z</time>
      </trkpt>
      <trkpt lat="49.52552" lon="3.5353">
        <ele>161.5</ele>
        <time>2014-10-15T08:32:54.589Z</time>
      </trkpt>
      <trkpt lat="49.52553" lon="3.53531">
        <ele>161.5</ele>
        <time>2014-10-15T08:32:55.588Z</time>
      </trkpt>
      <trkpt lat="49.52561" lon="3.53537">
        <ele>162.7</ele>
        <time>2014-10-15T08:33:00.523Z</time>
      </trkpt>
      <trkpt lat="49.52562" lon="3.53538">
        <ele>162.7</ele>
        <time>2014-10-15T08:33:01.528Z</time>
      </trkpt>
      <trkpt lat="49.52569" lon="3.53545">
        <ele>163.6</ele>
        <time>2014-10-15T08:33:07.644Z</time>
      </trkpt>
      <trkpt lat="49.52571" lon="3.53547">
        <ele>163.8</ele>
        <time>2014-10-15T08:33:08.617Z</time>
      </trkpt>
      <trkpt lat="49.52577" lon="3.53556">
        <ele>165</ele>
        <time>2014-10-15T08:33:13.545Z</time>
      </trkpt>
      <trkpt lat="49.52579" lon="3.53558">
        <ele>165.2</ele>
        <time>2014-10-15T08:33:14.556Z</time>
      </trkpt>
      <trkpt lat="49.52585" lon="3.53567">
        <ele>165.6</ele>
        <time>2014-10-15T08:33:19.523Z</time>
      </trkpt>
      <trkpt lat="49.52587" lon="3.53568">
        <ele>165.6</ele>
        <time>2014-10-15T08:33:20.624Z</time>
      </trkpt>
      <trkpt lat="49.52593" lon="3.53577">
        <ele>166.3</ele>
        <time>2014-10-15T08:33:24.546Z</time>
      </trkpt>
      <trkpt lat="49.52594" lon="3.53579">
        <ele>166.3</ele>
        <time>2014-10-15T08:33:25.549Z</time>
      </trkpt>
      <trkpt lat="49.52598" lon="3.5359">
        <ele>166.6</ele>
        <time>2014-10-15T08:33:30.594Z</time>
      </trkpt>
      <trkpt lat="49.526" lon="3.53591">
        <ele>166.3</ele>
        <time>2014-10-15T08:33:31.586Z</time>
      </trkpt>
      <trkpt lat="49.52607" lon="3.53597">
        <ele>165.2</ele>
        <time>2014-10-15T08:33:36.523Z</time>
      </trkpt>
      <trkpt lat="49.52608" lon="3.53599">
        <ele>164.6</ele>
        <time>2014-10-15T08:33:37.520Z</time>
      </trkpt>
      <trkpt lat="49.52614" lon="3.53608">
        <ele>163.8</ele>
        <time>2014-10-15T08:33:43.597Z</time>
      </trkpt>
      <trkpt lat="49.52615" lon="3.53609">
        <ele>163.5</ele>
        <time>2014-10-15T08:33:44.600Z</time>
      </trkpt>
      <trkpt lat="49.52623" lon="3.53615">
        <ele>163.8</ele>
        <time>2014-10-15T08:33:49.546Z</time>
      </trkpt>
      <trkpt lat="49.52625" lon="3.53617">
        <ele>163.8</ele>
        <time>2014-10-15T08:33:50.577Z</time>
      </trkpt>
      <trkpt lat="49.52631" lon="3.53624">
        <ele>163.6</ele>
        <time>2014-10-15T08:33:56.565Z</time>
      </trkpt>
      <trkpt lat="49.52633" lon="3.53626">
        <ele>163.7</ele>
        <time>2014-10-15T08:33:57.577Z</time>
      </trkpt>
      <trkpt lat="49.52639" lon="3.53634">
        <ele>163.5</ele>
        <time>2014-10-15T08:34:02.639Z</time>
      </trkpt>
      <trkpt lat="49.5264" lon="3.53636">
        <ele>163.5</ele>
        <time>2014-10-15T08:34:03.523Z</time>
      </trkpt>
      <trkpt lat="49.52646" lon="3.53645">
        <ele>163.6</ele>
        <time>2014-10-15T08:34:08.559Z</time>
      </trkpt>
      <trkpt lat="49.52647" lon="3.53646">
        <ele>163.7</ele>
        <time>2014-10-15T08:34:09.572Z</time>
      </trkpt>
      <trkpt lat="49.52653" lon="3.53654">
        <ele>163.7</ele>
        <time>2014-10-15T08:34:14.597Z</time>
      </trkpt>
      <trkpt lat="49.52655" lon="3.53656">
        <ele>163.8</ele>
        <time>2014-10-15T08:34:15.602Z</time>
      </trkpt>
      <trkpt lat="49.52661" lon="3.53663">
        <ele>164.2</ele>
        <time>2014-10-15T08:34:20.557Z</time>
      </trkpt>
      <trkpt lat="49.52662" lon="3.53665">
        <ele>164.3</ele>
        <time>2014-10-15T08:34:21.560Z</time>
      </trkpt>
      <trkpt lat="49.52668" lon="3.53674">
        <ele>164.6</ele>
        <time>2014-10-15T08:34:27.715Z</time>
      </trkpt>
      <trkpt lat="49.52668" lon="3.53676">
        <ele>164.7</ele>
        <time>2014-10-15T08:34:28.608Z</time>
      </trkpt>
      <trkpt lat="49.52675" lon="3.53685">
        <ele>164.2</ele>
        <time>2014-10-15T08:34:34.574Z</time>
      </trkpt>
      <trkpt lat="49.52675" lon="3.53688">
        <ele>164.2</ele>
        <time>2014-10-15T08:34:35.586Z</time>
      </trkpt>
      <trkpt lat="49.52679" lon="3.53699">
        <ele>164.3</ele>
        <time>2014-10-15T08:34:40.522Z</time>
      </trkpt>
      <trkpt lat="49.5268" lon="3.53701">
        <ele>164.3</ele>
        <time>2014-10-15T08:34:41.526Z</time>
      </trkpt>
      <trkpt lat="49.52685" lon="3.53711">
        <ele>164.3</ele>
        <time>2014-10-15T08:34:46.565Z</time>
      </trkpt>
      <trkpt lat="49.52686" lon="3.53713">
        <ele>164.1</ele>
        <time>2014-10-15T08:34:47.572Z</time>
      </trkpt>
      <trkpt lat="49.5269" lon="3.53722">
        <ele>164.1</ele>
        <time>2014-10-15T08:34:51.546Z</time>
      </trkpt>
      <trkpt lat="49.52691" lon="3.53724">
        <ele>164.3</ele>
        <time>2014-10-15T08:34:52.635Z</time>
      </trkpt>
      <trkpt lat="49.52696" lon="3.53735">
        <ele>163.3</ele>
        <time>2014-10-15T08:35:02.194Z</time>
      </trkpt>
      <trkpt lat="49.52697" lon="3.53737">
        <ele>163.3</ele>
        <time>2014-10-15T08:35:02.656Z</time>
      </trkpt>
      <trkpt lat="49.52701" lon="3.53747">
        <ele>163.2</ele>
        <time>2014-10-15T08:35:08.069Z</time>
      </trkpt>
      <trkpt lat="49.52703" lon="3.53749">
        <ele>163.5</ele>
        <time>2014-10-15T08:35:08.568Z</time>
      </trkpt>
      <trkpt lat="49.52707" lon="3.53759">
        <ele>164.1</ele>
        <time>2014-10-15T08:35:14.564Z</time>
      </trkpt>
      <trkpt lat="49.52708" lon="3.53761">
        <ele>164.3</ele>
        <time>2014-10-15T08:35:15.560Z</time>
      </trkpt>
      <trkpt lat="49.52713" lon="3.53771">
        <ele>164.6</ele>
        <time>2014-10-15T08:35:21.597Z</time>
      </trkpt>
      <trkpt lat="49.52715" lon="3.53773">
        <ele>164.6</ele>
        <time>2014-10-15T08:35:22.522Z</time>
      </trkpt>
      <trkpt lat="49.52719" lon="3.53784">
        <ele>163.1</ele>
        <time>2014-10-15T08:35:28.149Z</time>
      </trkpt>
      <trkpt lat="49.5272" lon="3.53785">
        <ele>163</ele>
        <time>2014-10-15T08:35:28.585Z</time>
      </trkpt>
      <trkpt lat="49.52724" lon="3.53797">
        <ele>161.9</ele>
        <time>2014-10-15T08:35:34.527Z</time>
      </trkpt>
      <trkpt lat="49.52724" lon="3.53798">
        <ele>161.8</ele>
        <time>2014-10-15T08:35:35.538Z</time>
      </trkpt>
      <trkpt lat="49.52729" lon="3.53809">
        <ele>161.1</ele>
        <time>2014-10-15T08:35:40.571Z</time>
      </trkpt>
      <trkpt lat="49.5273" lon="3.53811">
        <ele>161</ele>
        <time>2014-10-15T08:35:41.591Z</time>
      </trkpt>
      <trkpt lat="49.52736" lon="3.5382">
        <ele>161.4</ele>
        <time>2014-10-15T08:35:46.526Z</time>
      </trkpt>
      <trkpt lat="49.52737" lon="3.53822">
        <ele>161.5</ele>
        <time>2014-10-15T08:35:47.526Z</time>
      </trkpt>
      <trkpt lat="49.52744" lon="3.5383">
        <ele>161.7</ele>
        <time>2014-10-15T08:35:54.556Z</time>
      </trkpt>
      <trkpt lat="49.52744" lon="3.53831">
        <ele>161.9</ele>
        <time>2014-10-15T08:35:55.580Z</time>
      </trkpt>
      <trkpt lat="49.52751" lon="3.53833">
        <ele>160.5</ele>
        <time>2014-10-15T08:36:03.520Z</time>
      </trkpt>
      <trkpt lat="49.52751" lon="3.53833">
        <ele>160.4</ele>
        <time>2014-10-15T08:36:04.522Z</time>
      </trkpt>
      <trkpt lat="49.52751" lon="3.53833">
        <ele>160.3</ele>
        <time>2014-10-15T08:36:05.538Z</time>
      </trkpt>
      <trkpt lat="49.52759" lon="3.53839">
        <ele>159.4</ele>
        <time>2014-10-15T08:36:12.507Z</time>
      </trkpt>
      <trkpt lat="49.5276" lon="3.53839">
        <ele>159.2</ele>
        <time>2014-10-15T08:36:13.535Z</time>
      </trkpt>
      <trkpt lat="49.52769" lon="3.53843">
        <ele>157.8</ele>
        <time>2014-10-15T08:36:19.311Z</time>
      </trkpt>
      <trkpt lat="49.5277" lon="3.53844">
        <ele>157.6</ele>
        <time>2014-10-15T08:36:19.608Z</time>
      </trkpt>
      <trkpt lat="49.52778" lon="3.53847">
        <ele>157.2</ele>
        <time>2014-10-15T08:36:23.523Z</time>
      </trkpt>
      <trkpt lat="49.5278" lon="3.53848">
        <ele>157.5</ele>
        <time>2014-10-15T08:36:24.529Z</time>
      </trkpt>
      <trkpt lat="49.52788" lon="3.53851">
        <ele>157.5</ele>
        <time>2014-10-15T08:36:29.577Z</time>
      </trkpt>
      <trkpt lat="49.5279" lon="3.53851">
        <ele>157.7</ele>
        <time>2014-10-15T08:36:30.584Z</time>
      </trkpt>
      <trkpt lat="49.52798" lon="3.53854">
        <ele>158.5</ele>
        <time>2014-10-15T08:36:37.541Z</time>
      </trkpt>
      <trkpt lat="49.52799" lon="3.53854">
        <ele>158.4</ele>
        <time>2014-10-15T08:36:38.552Z</time>
      </trkpt>
      <trkpt lat="49.52808" lon="3.53856">
        <ele>158.4</ele>
        <time>2014-10-15T08:36:44.931Z</time>
      </trkpt>
      <trkpt lat="49.5281" lon="3.53856">
        <ele>158.2</ele>
        <time>2014-10-15T08:36:45.520Z</time>
      </trkpt>
      <trkpt lat="49.52818" lon="3.53858">
        <ele>158</ele>
        <time>2014-10-15T08:36:50.562Z</time>
      </trkpt>
      <trkpt lat="49.52819" lon="3.53858">
        <ele>158</ele>
        <time>2014-10-15T08:36:51.566Z</time>
      </trkpt>
      <trkpt lat="49.52828" lon="3.53859">
        <ele>157.9</ele>
        <time>2014-10-15T08:36:59.115Z</time>
      </trkpt>
      <trkpt lat="49.52829" lon="3.5386">
        <ele>157.9</ele>
        <time>2014-10-15T08:36:59.523Z</time>
      </trkpt>
      <trkpt lat="49.52837" lon="3.53864">
        <ele>156.8</ele>
        <time>2014-10-15T08:37:05.599Z</time>
      </trkpt>
      <trkpt lat="49.52838" lon="3.53864">
        <ele>156.9</ele>
        <time>2014-10-15T08:37:06.604Z</time>
      </trkpt>
      <trkpt lat="49.52846" lon="3.53863">
        <ele>157.2</ele>
        <time>2014-10-15T08:37:11.536Z</time>
      </trkpt>
      <trkpt lat="49.52848" lon="3.53863">
        <ele>156.6</ele>
        <time>2014-10-15T08:37:12.553Z</time>
      </trkpt>
      <trkpt lat="49.52855" lon="3.53865">
        <ele>156</ele>
        <time>2014-10-15T08:37:15.585Z</time>
      </trkpt>
      <trkpt lat="49.52857" lon="3.53866">
        <ele>156</ele>
        <time>2014-10-15T08:37:16.594Z</time>
      </trkpt>
      <trkpt lat="49.52865" lon="3.53872">
        <ele>155.7</ele>
        <time>2014-10-15T08:37:20.549Z</time>
      </trkpt>
      <trkpt lat="49.52865" lon="3.53874">
        <ele>155.7</ele>
        <time>2014-10-15T08:37:21.567Z</time>
      </trkpt>
      <trkpt lat="49.52869" lon="3.53886">
        <ele>155.8</ele>
        <time>2014-10-15T08:37:28.520Z</time>
      </trkpt>
      <trkpt lat="49.52869" lon="3.53887">
        <ele>156</ele>
        <time>2014-10-15T08:37:29.521Z</time>
      </trkpt>
      <trkpt lat="49.5287" lon="3.53901">
        <ele>156</ele>
        <time>2014-10-15T08:37:35.600Z</time>
      </trkpt>
      <trkpt lat="49.5287" lon="3.53903">
        <ele>155.9</ele>
        <time>2014-10-15T08:37:36.606Z</time>
      </trkpt>
      <trkpt lat="49.52871" lon="3.53914">
        <ele>155.7</ele>
        <time>2014-10-15T08:37:41.582Z</time>
      </trkpt>
      <trkpt lat="49.52871" lon="3.53917">
        <ele>155.7</ele>
        <time>2014-10-15T08:37:42.688Z</time>
      </trkpt>
      <trkpt lat="49.5287" lon="3.5393">
        <ele>155.8</ele>
        <time>2014-10-15T08:37:47.576Z</time>
      </trkpt>
      <trkpt lat="49.5287" lon="3.53933">
        <ele>155.8</ele>
        <time>2014-10-15T08:37:48.582Z</time>
      </trkpt>
      <trkpt lat="49.52871" lon="3.53946">
        <ele>156.3</ele>
        <time>2014-10-15T08:37:52.608Z</time>
      </trkpt>
      <trkpt lat="49.52871" lon="3.5395">
        <ele>156.7</ele>
        <time>2014-10-15T08:37:53.516Z</time>
      </trkpt>
      <trkpt lat="49.52875" lon="3.53961">
        <ele>157.2</ele>
        <time>2014-10-15T08:37:59.601Z</time>
      </trkpt>
      <trkpt lat="49.52876" lon="3.53961">
        <ele>156.9</ele>
        <time>2014-10-15T08:38:00.526Z</time>
      </trkpt>
      <trkpt lat="49.52885" lon="3.53961">
        <ele>156.5</ele>
        <time>2014-10-15T08:38:06.594Z</time>
      </trkpt>
      <trkpt lat="49.52886" lon="3.53961">
        <ele>156.5</ele>
        <time>2014-10-15T08:38:07.601Z</time>
      </trkpt>
      <trkpt lat="49.52894" lon="3.53959">
        <ele>156.7</ele>
        <time>2014-10-15T08:38:13.542Z</time>
      </trkpt>
      <trkpt lat="49.52896" lon="3.53959">
        <ele>156.8</ele>
        <time>2014-10-15T08:38:14.557Z</time>
      </trkpt>
      <trkpt lat="49.52904" lon="3.53959">
        <ele>156.7</ele>
        <time>2014-10-15T08:38:20.615Z</time>
      </trkpt>
      <trkpt lat="49.52905" lon="3.53959">
        <ele>156.6</ele>
        <time>2014-10-15T08:38:21.619Z</time>
      </trkpt>
      <trkpt lat="49.52914" lon="3.53959">
        <ele>156.8</ele>
        <time>2014-10-15T08:38:27.551Z</time>
      </trkpt>
      <trkpt lat="49.52916" lon="3.5396">
        <ele>156</ele>
        <time>2014-10-15T08:38:28.561Z</time>
      </trkpt>
      <trkpt lat="49.52923" lon="3.53969">
        <ele>156.2</ele>
        <time>2014-10-15T08:38:33.528Z</time>
      </trkpt>
      <trkpt lat="49.52924" lon="3.5397">
        <ele>156.4</ele>
        <time>2014-10-15T08:38:34.519Z</time>
      </trkpt>
      <trkpt lat="49.52931" lon="3.53978">
        <ele>156.8</ele>
        <time>2014-10-15T08:38:40.571Z</time>
      </trkpt>
      <trkpt lat="49.52932" lon="3.5398">
        <ele>156.8</ele>
        <time>2014-10-15T08:38:41.576Z</time>
      </trkpt>
      <trkpt lat="49.52941" lon="3.53984">
        <ele>156.5</ele>
        <time>2014-10-15T08:38:51.148Z</time>
      </trkpt>
      <trkpt lat="49.52942" lon="3.53984">
        <ele>156.7</ele>
        <time>2014-10-15T08:38:51.565Z</time>
      </trkpt>
      <trkpt lat="49.52949" lon="3.53991">
        <ele>157.3</ele>
        <time>2014-10-15T08:38:56.611Z</time>
      </trkpt>
      <trkpt lat="49.52951" lon="3.53994">
        <ele>157.1</ele>
        <time>2014-10-15T08:38:57.521Z</time>
      </trkpt>
      <trkpt lat="49.52956" lon="3.53999">
        <ele>157.2</ele>
        <time>2014-10-15T08:39:00.546Z</time>
      </trkpt>
      <trkpt lat="49.52958" lon="3.54001">
        <ele>157.3</ele>
        <time>2014-10-15T08:39:01.546Z</time>
      </trkpt>
      <trkpt lat="49.52964" lon="3.5401">
        <ele>157.4</ele>
        <time>2014-10-15T08:39:05.582Z</time>
      </trkpt>
      <trkpt lat="49.52965" lon="3.54012">
        <ele>157.7</ele>
        <time>2014-10-15T08:39:06.589Z</time>
      </trkpt>
      <trkpt lat="49.52972" lon="3.5402">
        <ele>158.1</ele>
        <time>2014-10-15T08:39:10.520Z</time>
      </trkpt>
      <trkpt lat="49.52973" lon="3.54023">
        <ele>158.1</ele>
        <time>2014-10-15T08:39:11.521Z</time>
      </trkpt>
      <trkpt lat="49.52978" lon="3.54031">
        <ele>157.9</ele>
        <time>2014-10-15T08:39:16.572Z</time>
      </trkpt>
      <trkpt lat="49.52979" lon="3.54033">
        <ele>157.9</ele>
        <time>2014-10-15T08:39:17.601Z</time>
      </trkpt>
      <trkpt lat="49.52983" lon="3.54044">
        <ele>157.6</ele>
        <time>2014-10-15T08:39:24.221Z</time>
      </trkpt>
      <trkpt lat="49.52984" lon="3.54046">
        <ele>157.4</ele>
        <time>2014-10-15T08:39:24.522Z</time>
      </trkpt>
      <trkpt lat="49.52991" lon="3.54055">
        <ele>157.4</ele>
        <time>2014-10-15T08:39:30.566Z</time>
      </trkpt>
      <trkpt lat="49.52991" lon="3.54056">
        <ele>157.2</ele>
        <time>2014-10-15T08:39:31.574Z</time>
      </trkpt>
      <trkpt lat="49.52997" lon="3.54066">
        <ele>156.3</ele>
        <time>2014-10-15T08:39:37.918Z</time>
      </trkpt>
      <trkpt lat="49.52998" lon="3.54068">
        <ele>156.3</ele>
        <time>2014-10-15T08:39:38.527Z</time>
      </trkpt>
      <trkpt lat="49.53004" lon="3.54078">
        <ele>156</ele>
        <time>2014-10-15T08:39:44.561Z</time>
      </trkpt>
      <trkpt lat="49.53005" lon="3.54079">
        <ele>156</ele>
        <time>2014-10-15T08:39:45.559Z</time>
      </trkpt>
      <trkpt lat="49.53013" lon="3.54083">
        <ele>157.5</ele>
        <time>2014-10-15T08:39:54.548Z</time>
      </trkpt>
      <trkpt lat="49.53014" lon="3.54083">
        <ele>157.7</ele>
        <time>2014-10-15T08:39:55.554Z</time>
      </trkpt>
      <trkpt lat="49.53018" lon="3.54083">
        <ele>158.7</ele>
        <time>2014-10-15T08:39:59.584Z</time>
      </trkpt>
      <trkpt lat="49.53019" lon="3.54083">
        <ele>158.9</ele>
        <time>2014-10-15T08:40:00.492Z</time>
      </trkpt>
      <trkpt lat="49.53021" lon="3.54083">
        <ele>159.4</ele>
        <time>2014-10-15T08:40:08.561Z</time>
      </trkpt>
      <trkpt lat="49.53028" lon="3.54085">
        <ele>160</ele>
        <time>2014-10-15T08:40:09.576Z</time>
      </trkpt>
      <trkpt lat="49.53036" lon="3.54088">
        <ele>160.6</ele>
        <time>2014-10-15T08:40:14.526Z</time>
      </trkpt>
      <trkpt lat="49.53038" lon="3.54089">
        <ele>160.9</ele>
        <time>2014-10-15T08:40:15.528Z</time>
      </trkpt>
      <trkpt lat="49.53046" lon="3.54094">
        <ele>161.1</ele>
        <time>2014-10-15T08:40:21.579Z</time>
      </trkpt>
      <trkpt lat="49.53047" lon="3.54095">
        <ele>161.4</ele>
        <time>2014-10-15T08:40:22.589Z</time>
      </trkpt>
      <trkpt lat="49.53056" lon="3.54098">
        <ele>162.2</ele>
        <time>2014-10-15T08:40:29.554Z</time>
      </trkpt>
      <trkpt lat="49.53057" lon="3.54098">
        <ele>162.6</ele>
        <time>2014-10-15T08:40:30.562Z</time>
      </trkpt>
      <trkpt lat="49.53065" lon="3.54102">
        <ele>164.9</ele>
        <time>2014-10-15T08:40:38.613Z</time>
      </trkpt>
      <trkpt lat="49.53066" lon="3.54102">
        <ele>165.5</ele>
        <time>2014-10-15T08:40:39.506Z</time>
      </trkpt>
      <trkpt lat="49.53074" lon="3.54107">
        <ele>165.9</ele>
        <time>2014-10-15T08:40:45.563Z</time>
      </trkpt>
      <trkpt lat="49.53076" lon="3.54108">
        <ele>166.2</ele>
        <time>2014-10-15T08:40:46.565Z</time>
      </trkpt>
      <trkpt lat="49.53084" lon="3.54112">
        <ele>167.4</ele>
        <time>2014-10-15T08:40:50.604Z</time>
      </trkpt>
      <trkpt lat="49.53086" lon="3.54112">
        <ele>167.6</ele>
        <time>2014-10-15T08:40:51.495Z</time>
      </trkpt>
      <trkpt lat="49.53093" lon="3.54115">
        <ele>169.1</ele>
        <time>2014-10-15T08:40:57.556Z</time>
      </trkpt>
      <trkpt lat="49.53094" lon="3.54116">
        <ele>169.4</ele>
        <time>2014-10-15T08:40:58.563Z</time>
      </trkpt>
      <trkpt lat="49.53103" lon="3.5412">
        <ele>170.1</ele>
        <time>2014-10-15T08:41:05.567Z</time>
      </trkpt>
      <trkpt lat="49.53104" lon="3.54121">
        <ele>170</ele>
        <time>2014-10-15T08:41:06.579Z</time>
      </trkpt>
      <trkpt lat="49.53112" lon="3.54124">
        <ele>171.5</ele>
        <time>2014-10-15T08:41:13.535Z</time>
      </trkpt>
      <trkpt lat="49.53113" lon="3.54125">
        <ele>171.8</ele>
        <time>2014-10-15T08:41:14.555Z</time>
      </trkpt>
      <trkpt lat="49.53121" lon="3.54127">
        <ele>173.4</ele>
        <time>2014-10-15T08:41:23.574Z</time>
      </trkpt>
      <trkpt lat="49.53122" lon="3.54127">
        <ele>173.5</ele>
        <time>2014-10-15T08:41:24.583Z</time>
      </trkpt>
      <trkpt lat="49.53126" lon="3.5413">
        <ele>174.4</ele>
        <time>2014-10-15T08:41:27.868Z</time>
      </trkpt>
      <trkpt lat="49.53127" lon="3.54131">
        <ele>174.6</ele>
        <time>2014-10-15T08:41:28.513Z</time>
      </trkpt>
      <trkpt lat="49.53128" lon="3.54131">
        <ele>174.9</ele>
        <time>2014-10-15T08:41:30.515Z</time>
      </trkpt>
      <trkpt lat="49.5313" lon="3.54131">
        <ele>175.3</ele>
        <time>2014-10-15T08:41:31.522Z</time>
      </trkpt>
      <trkpt lat="49.53137" lon="3.54135">
        <ele>176.5</ele>
        <time>2014-10-15T08:41:36.588Z</time>
      </trkpt>
      <trkpt lat="49.53139" lon="3.54136">
        <ele>176.9</ele>
        <time>2014-10-15T08:41:37.591Z</time>
      </trkpt>
      <trkpt lat="49.53145" lon="3.54141">
        <ele>177.7</ele>
        <time>2014-10-15T08:41:41.517Z</time>
      </trkpt>
      <trkpt lat="49.53146" lon="3.54142">
        <ele>177.8</ele>
        <time>2014-10-15T08:41:42.523Z</time>
      </trkpt>
      <trkpt lat="49.53148" lon="3.54144">
        <ele>178.2</ele>
        <time>2014-10-15T08:41:44.552Z</time>
      </trkpt>
      <trkpt lat="49.53149" lon="3.54145">
        <ele>178.3</ele>
        <time>2014-10-15T08:41:45.551Z</time>
      </trkpt>
      <trkpt lat="49.53156" lon="3.54147">
        <ele>178.8</ele>
        <time>2014-10-15T08:41:50.597Z</time>
      </trkpt>
      <trkpt lat="49.53158" lon="3.54147">
        <ele>179.1</ele>
        <time>2014-10-15T08:41:51.504Z</time>
      </trkpt>
      <trkpt lat="49.53165" lon="3.54152">
        <ele>179.5</ele>
        <time>2014-10-15T08:41:56.554Z</time>
      </trkpt>
      <trkpt lat="49.53167" lon="3.54153">
        <ele>179.6</ele>
        <time>2014-10-15T08:41:57.560Z</time>
      </trkpt>
      <trkpt lat="49.53174" lon="3.54158">
        <ele>179.8</ele>
        <time>2014-10-15T08:42:01.502Z</time>
      </trkpt>
      <trkpt lat="49.53175" lon="3.54159">
        <ele>179.8</ele>
        <time>2014-10-15T08:42:02.538Z</time>
      </trkpt>
      <trkpt lat="49.53178" lon="3.54161">
        <ele>179.7</ele>
        <time>2014-10-15T08:42:04.563Z</time>
      </trkpt>
      <trkpt lat="49.53179" lon="3.54162">
        <ele>180.1</ele>
        <time>2014-10-15T08:42:05.568Z</time>
      </trkpt>
      <trkpt lat="49.53181" lon="3.54163">
        <ele>180.7</ele>
        <time>2014-10-15T08:42:08.596Z</time>
      </trkpt>
      <trkpt lat="49.53183" lon="3.54163">
        <ele>181.2</ele>
        <time>2014-10-15T08:42:09.502Z</time>
      </trkpt>
      <trkpt lat="49.53186" lon="3.54165">
        <ele>181.4</ele>
        <time>2014-10-15T08:42:11.521Z</time>
      </trkpt>
      <trkpt lat="49.53187" lon="3.54165">
        <ele>181.4</ele>
        <time>2014-10-15T08:42:12.532Z</time>
      </trkpt>
      <trkpt lat="49.53189" lon="3.54166">
        <ele>181.7</ele>
        <time>2014-10-15T08:42:14.556Z</time>
      </trkpt>
      <trkpt lat="49.5319" lon="3.54166">
        <ele>181.7</ele>
        <time>2014-10-15T08:42:15.564Z</time>
      </trkpt>
      <trkpt lat="49.53197" lon="3.54171">
        <ele>181.6</ele>
        <time>2014-10-15T08:42:21.503Z</time>
      </trkpt>
      <trkpt lat="49.53199" lon="3.54172">
        <ele>181.6</ele>
        <time>2014-10-15T08:42:22.502Z</time>
      </trkpt>
      <trkpt lat="49.53207" lon="3.54176">
        <ele>180.9</ele>
        <time>2014-10-15T08:42:27.528Z</time>
      </trkpt>
      <trkpt lat="49.53208" lon="3.54177">
        <ele>180.8</ele>
        <time>2014-10-15T08:42:28.540Z</time>
      </trkpt>
      <trkpt lat="49.53217" lon="3.54176">
        <ele>181.6</ele>
        <time>2014-10-15T08:42:34.769Z</time>
      </trkpt>
      <trkpt lat="49.53218" lon="3.54176">
        <ele>181.8</ele>
        <time>2014-10-15T08:42:35.563Z</time>
      </trkpt>
      <trkpt lat="49.53226" lon="3.54173">
        <ele>179.6</ele>
        <time>2014-10-15T08:42:39.592Z</time>
      </trkpt>
      <trkpt lat="49.53227" lon="3.54173">
        <ele>179.6</ele>
        <time>2014-10-15T08:42:40.505Z</time>
      </trkpt>
      <trkpt lat="49.53236" lon="3.54169">
        <ele>176.6</ele>
        <time>2014-10-15T08:42:44.814Z</time>
      </trkpt>
      <trkpt lat="49.53238" lon="3.54168">
        <ele>176.4</ele>
        <time>2014-10-15T08:42:45.563Z</time>
      </trkpt>
      <trkpt lat="49.53246" lon="3.54165">
        <ele>174.7</ele>
        <time>2014-10-15T08:42:50.609Z</time>
      </trkpt>
      <trkpt lat="49.53248" lon="3.54165">
        <ele>174.4</ele>
        <time>2014-10-15T08:42:51.502Z</time>
      </trkpt>
      <trkpt lat="49.53256" lon="3.54163">
        <ele>173.2</ele>
        <time>2014-10-15T08:42:55.526Z</time>
      </trkpt>
      <trkpt lat="49.53257" lon="3.54162">
        <ele>173.4</ele>
        <time>2014-10-15T08:42:56.536Z</time>
      </trkpt>
      <trkpt lat="49.53265" lon="3.5416">
        <ele>172.5</ele>
        <time>2014-10-15T08:43:02.569Z</time>
      </trkpt>
      <trkpt lat="49.53266" lon="3.5416">
        <ele>172.4</ele>
        <time>2014-10-15T08:43:02.598Z</time>
      </trkpt>
      <trkpt lat="49.53274" lon="3.54165">
        <ele>171</ele>
        <time>2014-10-15T08:43:06.536Z</time>
      </trkpt>
      <trkpt lat="49.53276" lon="3.54166">
        <ele>170.9</ele>
        <time>2014-10-15T08:43:07.547Z</time>
      </trkpt>
      <trkpt lat="49.53283" lon="3.54172">
        <ele>171</ele>
        <time>2014-10-15T08:43:11.604Z</time>
      </trkpt>
      <trkpt lat="49.53285" lon="3.54173">
        <ele>170.9</ele>
        <time>2014-10-15T08:43:12.502Z</time>
      </trkpt>
      <trkpt lat="49.53291" lon="3.54183">
        <ele>171</ele>
        <time>2014-10-15T08:43:17.560Z</time>
      </trkpt>
      <trkpt lat="49.53292" lon="3.54185">
        <ele>170.9</ele>
        <time>2014-10-15T08:43:18.568Z</time>
      </trkpt>
      <trkpt lat="49.53296" lon="3.54195">
        <ele>170.9</ele>
        <time>2014-10-15T08:43:23.503Z</time>
      </trkpt>
      <trkpt lat="49.53297" lon="3.54197">
        <ele>171</ele>
        <time>2014-10-15T08:43:24.507Z</time>
      </trkpt>
      <trkpt lat="49.53301" lon="3.54208">
        <ele>171.1</ele>
        <time>2014-10-15T08:43:29.572Z</time>
      </trkpt>
      <trkpt lat="49.53302" lon="3.5421">
        <ele>171.2</ele>
        <time>2014-10-15T08:43:30.586Z</time>
      </trkpt>
      <trkpt lat="49.53306" lon="3.54222">
        <ele>171.4</ele>
        <time>2014-10-15T08:43:36.528Z</time>
      </trkpt>
      <trkpt lat="49.53307" lon="3.54224">
        <ele>171.5</ele>
        <time>2014-10-15T08:43:37.541Z</time>
      </trkpt>
      <trkpt lat="49.53311" lon="3.54234">
        <ele>171.9</ele>
        <time>2014-10-15T08:43:41.571Z</time>
      </trkpt>
      <trkpt lat="49.53311" lon="3.54236">
        <ele>171.9</ele>
        <time>2014-10-15T08:43:42.576Z</time>
      </trkpt>
      <trkpt lat="49.53317" lon="3.54247">
        <ele>171.7</ele>
        <time>2014-10-15T08:43:48.604Z</time>
      </trkpt>
      <trkpt lat="49.53318" lon="3.54249">
        <ele>171.7</ele>
        <time>2014-10-15T08:43:49.612Z</time>
      </trkpt>
      <trkpt lat="49.53323" lon="3.54258">
        <ele>171.7</ele>
        <time>2014-10-15T08:43:54.542Z</time>
      </trkpt>
      <trkpt lat="49.53325" lon="3.5426">
        <ele>171.7</ele>
        <time>2014-10-15T08:43:55.549Z</time>
      </trkpt>
      <trkpt lat="49.53329" lon="3.5427">
        <ele>171.8</ele>
        <time>2014-10-15T08:44:00.589Z</time>
      </trkpt>
      <trkpt lat="49.5333" lon="3.54273">
        <ele>172</ele>
        <time>2014-10-15T08:44:01.603Z</time>
      </trkpt>
      <trkpt lat="49.53333" lon="3.54283">
        <ele>172.2</ele>
        <time>2014-10-15T08:44:05.536Z</time>
      </trkpt>
      <trkpt lat="49.53334" lon="3.54286">
        <ele>172.2</ele>
        <time>2014-10-15T08:44:06.539Z</time>
      </trkpt>
      <trkpt lat="49.53335" lon="3.54299">
        <ele>172.9</ele>
        <time>2014-10-15T08:44:11.586Z</time>
      </trkpt>
      <trkpt lat="49.53336" lon="3.54301">
        <ele>173</ele>
        <time>2014-10-15T08:44:12.592Z</time>
      </trkpt>
      <trkpt lat="49.53337" lon="3.54313">
        <ele>171.9</ele>
        <time>2014-10-15T08:44:17.522Z</time>
      </trkpt>
      <trkpt lat="49.53337" lon="3.54315">
        <ele>171.6</ele>
        <time>2014-10-15T08:44:18.533Z</time>
      </trkpt>
      <trkpt lat="49.5334" lon="3.54328">
        <ele>170.1</ele>
        <time>2014-10-15T08:44:24.578Z</time>
      </trkpt>
      <trkpt lat="49.5334" lon="3.54331">
        <ele>169.7</ele>
        <time>2014-10-15T08:44:25.607Z</time>
      </trkpt>
      <trkpt lat="49.53342" lon="3.5434">
        <ele>168.2</ele>
        <time>2014-10-15T08:44:28.517Z</time>
      </trkpt>
      <trkpt lat="49.53343" lon="3.54345">
        <ele>168.1</ele>
        <time>2014-10-15T08:44:29.524Z</time>
      </trkpt>
      <trkpt lat="49.53345" lon="3.54353">
        <ele>167.9</ele>
        <time>2014-10-15T08:44:31.543Z</time>
      </trkpt>
      <trkpt lat="49.53345" lon="3.54358">
        <ele>167.5</ele>
        <time>2014-10-15T08:44:32.554Z</time>
      </trkpt>
      <trkpt lat="49.53347" lon="3.54368">
        <ele>166.7</ele>
        <time>2014-10-15T08:44:35.365Z</time>
      </trkpt>
      <trkpt lat="49.53348" lon="3.54374">
        <ele>166.5</ele>
        <time>2014-10-15T08:44:35.576Z</time>
      </trkpt>
      <trkpt lat="49.5335" lon="3.54384">
        <ele>165.7</ele>
        <time>2014-10-15T08:44:37.586Z</time>
      </trkpt>
      <trkpt lat="49.53351" lon="3.5439">
        <ele>165.4</ele>
        <time>2014-10-15T08:44:38.595Z</time>
      </trkpt>
      <trkpt lat="49.53352" lon="3.54401">
        <ele>164.8</ele>
        <time>2014-10-15T08:44:40.816Z</time>
      </trkpt>
      <trkpt lat="49.53353" lon="3.54407">
        <ele>164.6</ele>
        <time>2014-10-15T08:44:41.516Z</time>
      </trkpt>
      <trkpt lat="49.53355" lon="3.54418">
        <ele>164</ele>
        <time>2014-10-15T08:44:43.528Z</time>
      </trkpt>
      <trkpt lat="49.53356" lon="3.54423">
        <ele>163.7</ele>
        <time>2014-10-15T08:44:44.550Z</time>
      </trkpt>
      <trkpt lat="49.53357" lon="3.54434">
        <ele>163</ele>
        <time>2014-10-15T08:44:46.564Z</time>
      </trkpt>
      <trkpt lat="49.53358" lon="3.54439">
        <ele>162.8</ele>
        <time>2014-10-15T08:44:47.573Z</time>
      </trkpt>
      <trkpt lat="49.5336" lon="3.5445">
        <ele>162.4</ele>
        <time>2014-10-15T08:44:49.594Z</time>
      </trkpt>
      <trkpt lat="49.53361" lon="3.54456">
        <ele>162.4</ele>
        <time>2014-10-15T08:44:50.599Z</time>
      </trkpt>
      <trkpt lat="49.53364" lon="3.54467">
        <ele>161.9</ele>
        <time>2014-10-15T08:44:52.517Z</time>
      </trkpt>
      <trkpt lat="49.53365" lon="3.54473">
        <ele>161.6</ele>
        <time>2014-10-15T08:44:53.522Z</time>
      </trkpt>
      <trkpt lat="49.53368" lon="3.54483">
        <ele>161.4</ele>
        <time>2014-10-15T08:44:55.541Z</time>
      </trkpt>
      <trkpt lat="49.53369" lon="3.54487">
        <ele>161.4</ele>
        <time>2014-10-15T08:44:56.569Z</time>
      </trkpt>
      <trkpt lat="49.53372" lon="3.54498">
        <ele>161.4</ele>
        <time>2014-10-15T08:44:59.592Z</time>
      </trkpt>
      <trkpt lat="49.53372" lon="3.54501">
        <ele>161.7</ele>
        <time>2014-10-15T08:45:00.598Z</time>
      </trkpt>
      <trkpt lat="49.53372" lon="3.54514">
        <ele>159.8</ele>
        <time>2014-10-15T08:45:05.513Z</time>
      </trkpt>
      <trkpt lat="49.53371" lon="3.54517">
        <ele>159.6</ele>
        <time>2014-10-15T08:45:06.525Z</time>
      </trkpt>
      <trkpt lat="49.53365" lon="3.54527">
        <ele>158.9</ele>
        <time>2014-10-15T08:45:10.576Z</time>
      </trkpt>
      <trkpt lat="49.53364" lon="3.54528">
        <ele>158.6</ele>
        <time>2014-10-15T08:45:11.586Z</time>
      </trkpt>
      <trkpt lat="49.53355" lon="3.54531">
        <ele>155</ele>
        <time>2014-10-15T08:45:20.569Z</time>
      </trkpt>
      <trkpt lat="49.53354" lon="3.54531">
        <ele>154.8</ele>
        <time>2014-10-15T08:45:21.573Z</time>
      </trkpt>
      <trkpt lat="49.53352" lon="3.54535">
        <ele>153.9</ele>
        <time>2014-10-15T08:45:24.507Z</time>
      </trkpt>
      <trkpt lat="49.53351" lon="3.54536">
        <ele>153.8</ele>
        <time>2014-10-15T08:45:25.525Z</time>
      </trkpt>
      <trkpt lat="49.53351" lon="3.54537">
        <ele>153.5</ele>
        <time>2014-10-15T08:45:28.514Z</time>
      </trkpt>
      <trkpt lat="49.53349" lon="3.54541">
        <ele>153.7</ele>
        <time>2014-10-15T08:45:29.518Z</time>
      </trkpt>
      <trkpt lat="49.53343" lon="3.5455">
        <ele>154.9</ele>
        <time>2014-10-15T08:45:36.565Z</time>
      </trkpt>
      <trkpt lat="49.53342" lon="3.54551">
        <ele>155.2</ele>
        <time>2014-10-15T08:45:37.583Z</time>
      </trkpt>
      <trkpt lat="49.53341" lon="3.54551">
        <ele>155.3</ele>
        <time>2014-10-15T08:45:38.600Z</time>
      </trkpt>
      <trkpt lat="49.53341" lon="3.54552">
        <ele>155.3</ele>
        <time>2014-10-15T08:45:45.576Z</time>
      </trkpt>
      <trkpt lat="49.53334" lon="3.5456">
        <ele>155.5</ele>
        <time>2014-10-15T08:45:46.599Z</time>
      </trkpt>
      <trkpt lat="49.53326" lon="3.54565">
        <ele>157.4</ele>
        <time>2014-10-15T08:45:51.565Z</time>
      </trkpt>
      <trkpt lat="49.53325" lon="3.54566">
        <ele>157.7</ele>
        <time>2014-10-15T08:45:52.574Z</time>
      </trkpt>
      <trkpt lat="49.53321" lon="3.5457">
        <ele>158.2</ele>
        <time>2014-10-15T08:45:55.600Z</time>
      </trkpt>
      <trkpt lat="49.5332" lon="3.54571">
        <ele>158.4</ele>
        <time>2014-10-15T08:45:56.608Z</time>
      </trkpt>
      <trkpt lat="49.53318" lon="3.54573">
        <ele>159</ele>
        <time>2014-10-15T08:45:59.541Z</time>
      </trkpt>
      <trkpt lat="49.53316" lon="3.54577">
        <ele>159.3</ele>
        <time>2014-10-15T08:46:00.544Z</time>
      </trkpt>
      <trkpt lat="49.53312" lon="3.54586">
        <ele>160.3</ele>
        <time>2014-10-15T08:46:04.571Z</time>
      </trkpt>
      <trkpt lat="49.53311" lon="3.54588">
        <ele>160.2</ele>
        <time>2014-10-15T08:46:05.574Z</time>
      </trkpt>
      <trkpt lat="49.53307" lon="3.546">
        <ele>160.5</ele>
        <time>2014-10-15T08:46:10.602Z</time>
      </trkpt>
      <trkpt lat="49.53306" lon="3.54602">
        <ele>160.3</ele>
        <time>2014-10-15T08:46:11.509Z</time>
      </trkpt>
      <trkpt lat="49.53304" lon="3.54614">
        <ele>160</ele>
        <time>2014-10-15T08:46:16.619Z</time>
      </trkpt>
      <trkpt lat="49.53304" lon="3.54616">
        <ele>159.9</ele>
        <time>2014-10-15T08:46:17.620Z</time>
      </trkpt>
      <trkpt lat="49.53304" lon="3.5462">
        <ele>159.8</ele>
        <time>2014-10-15T08:46:19.647Z</time>
      </trkpt>
      <trkpt lat="49.53304" lon="3.54621">
        <ele>159.7</ele>
        <time>2014-10-15T08:46:20.654Z</time>
      </trkpt>
      <trkpt lat="49.53304" lon="3.54622">
        <ele>159.6</ele>
        <time>2014-10-15T08:46:21.656Z</time>
      </trkpt>
      <trkpt lat="49.53297" lon="3.54631">
        <ele>159.4</ele>
        <time>2014-10-15T08:46:27.696Z</time>
      </trkpt>
      <trkpt lat="49.53296" lon="3.54633">
        <ele>159.4</ele>
        <time>2014-10-15T08:46:28.603Z</time>
      </trkpt>
      <trkpt lat="49.5329" lon="3.54641">
        <ele>159.9</ele>
        <time>2014-10-15T08:46:33.656Z</time>
      </trkpt>
      <trkpt lat="49.53289" lon="3.54643">
        <ele>160.1</ele>
        <time>2014-10-15T08:46:34.657Z</time>
      </trkpt>
      <trkpt lat="49.53283" lon="3.54653">
        <ele>160.2</ele>
        <time>2014-10-15T08:46:41.697Z</time>
      </trkpt>
      <trkpt lat="49.53283" lon="3.54655">
        <ele>160.4</ele>
        <time>2014-10-15T08:46:42.700Z</time>
      </trkpt>
      <trkpt lat="49.5328" lon="3.54667">
        <ele>161.9</ele>
        <time>2014-10-15T08:46:51.609Z</time>
      </trkpt>
      <trkpt lat="49.53279" lon="3.54668">
        <ele>161.9</ele>
        <time>2014-10-15T08:46:52.654Z</time>
      </trkpt>
      <trkpt lat="49.53274" lon="3.54678">
        <ele>162.4</ele>
        <time>2014-10-15T08:46:58.837Z</time>
      </trkpt>
      <trkpt lat="49.53273" lon="3.5468">
        <ele>162.7</ele>
        <time>2014-10-15T08:46:59.637Z</time>
      </trkpt>
      <trkpt lat="49.53267" lon="3.54689">
        <ele>163.5</ele>
        <time>2014-10-15T08:47:03.607Z</time>
      </trkpt>
      <trkpt lat="49.53266" lon="3.54692">
        <ele>163.6</ele>
        <time>2014-10-15T08:47:04.611Z</time>
      </trkpt>
      <trkpt lat="49.53264" lon="3.54695">
        <ele>163.6</ele>
        <time>2014-10-15T08:47:05.617Z</time>
      </trkpt>
      <trkpt lat="49.53263" lon="3.54697">
        <ele>163.7</ele>
        <time>2014-10-15T08:47:06.634Z</time>
      </trkpt>
      <trkpt lat="49.53262" lon="3.54699">
        <ele>164</ele>
        <time>2014-10-15T08:47:07.641Z</time>
      </trkpt>
      <trkpt lat="49.53261" lon="3.54701">
        <ele>164.3</ele>
        <time>2014-10-15T08:47:14.720Z</time>
      </trkpt>
      <trkpt lat="49.53254" lon="3.54712">
        <ele>165.2</ele>
        <time>2014-10-15T08:47:15.610Z</time>
      </trkpt>
      <trkpt lat="49.53251" lon="3.54715">
        <ele>165.7</ele>
        <time>2014-10-15T08:47:18.636Z</time>
      </trkpt>
      <trkpt lat="49.5325" lon="3.54716">
        <ele>165.9</ele>
        <time>2014-10-15T08:47:19.644Z</time>
      </trkpt>
      <trkpt lat="49.53248" lon="3.54719">
        <ele>166.2</ele>
        <time>2014-10-15T08:47:25.599Z</time>
      </trkpt>
      <trkpt lat="49.53246" lon="3.54726">
        <ele>166.2</ele>
        <time>2014-10-15T08:47:26.711Z</time>
      </trkpt>
      <trkpt lat="49.53242" lon="3.54737">
        <ele>167</ele>
        <time>2014-10-15T08:47:33.042Z</time>
      </trkpt>
      <trkpt lat="49.53242" lon="3.54739">
        <ele>167</ele>
        <time>2014-10-15T08:47:33.698Z</time>
      </trkpt>
      <trkpt lat="49.53239" lon="3.54743">
        <ele>167.5</ele>
        <time>2014-10-15T08:47:38.115Z</time>
      </trkpt>
      <trkpt lat="49.53238" lon="3.54743">
        <ele>167.5</ele>
        <time>2014-10-15T08:47:38.671Z</time>
      </trkpt>
      <trkpt lat="49.53237" lon="3.54745">
        <ele>167.7</ele>
        <time>2014-10-15T08:47:43.132Z</time>
      </trkpt>
      <trkpt lat="49.53236" lon="3.5475">
        <ele>167.6</ele>
        <time>2014-10-15T08:47:43.701Z</time>
      </trkpt>
      <trkpt lat="49.53236" lon="3.54751">
        <ele>167.7</ele>
        <time>2014-10-15T08:47:44.710Z</time>
      </trkpt>
      <trkpt lat="49.53235" lon="3.54753">
        <ele>168</ele>
        <time>2014-10-15T08:47:45.628Z</time>
      </trkpt>
      <trkpt lat="49.53234" lon="3.54754">
        <ele>168.3</ele>
        <time>2014-10-15T08:47:46.627Z</time>
      </trkpt>
      <trkpt lat="49.53234" lon="3.54754">
        <ele>168.5</ele>
        <time>2014-10-15T08:47:48.174Z</time>
      </trkpt>
      <trkpt lat="49.53234" lon="3.54755">
        <ele>168.7</ele>
        <time>2014-10-15T08:47:48.656Z</time>
      </trkpt>
      <trkpt lat="49.53233" lon="3.54755">
        <ele>168.9</ele>
        <time>2014-10-15T08:47:49.714Z</time>
      </trkpt>
      <trkpt lat="49.53229" lon="3.54763">
        <ele>170</ele>
        <time>2014-10-15T08:47:57.652Z</time>
      </trkpt>
      <trkpt lat="49.53227" lon="3.54765">
        <ele>170.1</ele>
        <time>2014-10-15T08:47:57.695Z</time>
      </trkpt>
      <trkpt lat="49.53219" lon="3.54768">
        <ele>168.4</ele>
        <time>2014-10-15T08:47:59.706Z</time>
      </trkpt>
      <trkpt lat="49.53217" lon="3.54769">
        <ele>168.7</ele>
        <time>2014-10-15T08:48:00.608Z</time>
      </trkpt>
      <trkpt lat="49.53212" lon="3.54773">
        <ele>169.6</ele>
        <time>2014-10-15T08:48:03.618Z</time>
      </trkpt>
      <trkpt lat="49.53211" lon="3.54774">
        <ele>170</ele>
        <time>2014-10-15T08:48:04.624Z</time>
      </trkpt>
      <trkpt lat="49.53209" lon="3.54775">
        <ele>169.9</ele>
        <time>2014-10-15T08:48:05.647Z</time>
      </trkpt>
      <trkpt lat="49.53207" lon="3.54775">
        <ele>170.1</ele>
        <time>2014-10-15T08:48:13.698Z</time>
      </trkpt>
      <trkpt lat="49.53198" lon="3.54786">
        <ele>172.3</ele>
        <time>2014-10-15T08:48:14.701Z</time>
      </trkpt>
      <trkpt lat="49.53191" lon="3.54791">
        <ele>173.3</ele>
        <time>2014-10-15T08:48:19.630Z</time>
      </trkpt>
      <trkpt lat="49.5319" lon="3.54792">
        <ele>173.5</ele>
        <time>2014-10-15T08:48:20.669Z</time>
      </trkpt>
      <trkpt lat="49.53182" lon="3.54797">
        <ele>175.1</ele>
        <time>2014-10-15T08:48:27.613Z</time>
      </trkpt>
      <trkpt lat="49.53181" lon="3.54798">
        <ele>175.5</ele>
        <time>2014-10-15T08:48:28.613Z</time>
      </trkpt>
      <trkpt lat="49.5318" lon="3.54799">
        <ele>175.8</ele>
        <time>2014-10-15T08:48:29.612Z</time>
      </trkpt>
      <trkpt lat="49.53178" lon="3.54801">
        <ele>176.1</ele>
        <time>2014-10-15T08:48:30.630Z</time>
      </trkpt>
      <trkpt lat="49.53177" lon="3.54802">
        <ele>176.2</ele>
        <time>2014-10-15T08:48:31.640Z</time>
      </trkpt>
      <trkpt lat="49.53175" lon="3.54803">
        <ele>176.3</ele>
        <time>2014-10-15T08:48:34.597Z</time>
      </trkpt>
      <trkpt lat="49.53171" lon="3.54805">
        <ele>174.7</ele>
        <time>2014-10-15T08:48:35.602Z</time>
      </trkpt>
      <trkpt lat="49.53164" lon="3.54807">
        <ele>172.9</ele>
        <time>2014-10-15T08:48:38.637Z</time>
      </trkpt>
      <trkpt lat="49.53161" lon="3.54807">
        <ele>172</ele>
        <time>2014-10-15T08:48:39.640Z</time>
      </trkpt>
      <trkpt lat="49.53154" lon="3.54809">
        <ele>172.3</ele>
        <time>2014-10-15T08:48:44.714Z</time>
      </trkpt>
      <trkpt lat="49.53152" lon="3.5481">
        <ele>172.6</ele>
        <time>2014-10-15T08:48:45.601Z</time>
      </trkpt>
      <trkpt lat="49.53151" lon="3.54811">
        <ele>172.7</ele>
        <time>2014-10-15T08:48:46.609Z</time>
      </trkpt>
      <trkpt lat="49.53151" lon="3.54811">
        <ele>172.7</ele>
        <time>2014-10-15T08:48:47.159Z</time>
      </trkpt>
      <trkpt lat="49.5315" lon="3.54812">
        <ele>172.7</ele>
        <time>2014-10-15T08:48:47.610Z</time>
      </trkpt>
      <trkpt lat="49.53148" lon="3.54825">
        <ele>172.8</ele>
        <time>2014-10-15T08:48:54.682Z</time>
      </trkpt>
      <trkpt lat="49.53148" lon="3.54827">
        <ele>173</ele>
        <time>2014-10-15T08:48:55.685Z</time>
      </trkpt>
      <trkpt lat="49.53147" lon="3.54838">
        <ele>172.8</ele>
        <time>2014-10-15T08:49:01.630Z</time>
      </trkpt>
      <trkpt lat="49.53146" lon="3.5484">
        <ele>172.6</ele>
        <time>2014-10-15T08:49:02.663Z</time>
      </trkpt>
      <trkpt lat="49.53149" lon="3.54852">
        <ele>171.5</ele>
        <time>2014-10-15T08:49:08.702Z</time>
      </trkpt>
      <trkpt lat="49.53149" lon="3.54854">
        <ele>171.4</ele>
        <time>2014-10-15T08:49:09.597Z</time>
      </trkpt>
      <trkpt lat="49.53153" lon="3.54867">
        <ele>171.5</ele>
        <time>2014-10-15T08:49:14.640Z</time>
      </trkpt>
      <trkpt lat="49.53154" lon="3.54869">
        <ele>171.5</ele>
        <time>2014-10-15T08:49:15.645Z</time>
      </trkpt>
      <trkpt lat="49.53157" lon="3.54878">
        <ele>171.1</ele>
        <time>2014-10-15T08:49:21.602Z</time>
      </trkpt>
      <trkpt lat="49.53159" lon="3.5488">
        <ele>170.4</ele>
        <time>2014-10-15T08:49:22.607Z</time>
      </trkpt>
      <trkpt lat="49.53163" lon="3.54888">
        <ele>170.6</ele>
        <time>2014-10-15T08:49:25.627Z</time>
      </trkpt>
      <trkpt lat="49.53165" lon="3.54891">
        <ele>170.5</ele>
        <time>2014-10-15T08:49:26.635Z</time>
      </trkpt>
      <trkpt lat="49.5317" lon="3.54899">
        <ele>169.7</ele>
        <time>2014-10-15T08:49:30.675Z</time>
      </trkpt>
      <trkpt lat="49.53172" lon="3.54901">
        <ele>169.5</ele>
        <time>2014-10-15T08:49:31.597Z</time>
      </trkpt>
      <trkpt lat="49.53177" lon="3.5491">
        <ele>169.4</ele>
        <time>2014-10-15T08:49:35.622Z</time>
      </trkpt>
      <trkpt lat="49.53179" lon="3.54912">
        <ele>169.8</ele>
        <time>2014-10-15T08:49:36.634Z</time>
      </trkpt>
      <trkpt lat="49.53182" lon="3.54921">
        <ele>170.7</ele>
        <time>2014-10-15T08:49:39.663Z</time>
      </trkpt>
      <trkpt lat="49.53184" lon="3.54924">
        <ele>171.1</ele>
        <time>2014-10-15T08:49:40.679Z</time>
      </trkpt>
      <trkpt lat="49.53187" lon="3.54933">
        <ele>172</ele>
        <time>2014-10-15T08:49:43.698Z</time>
      </trkpt>
      <trkpt lat="49.53188" lon="3.54936">
        <ele>172.5</ele>
        <time>2014-10-15T08:49:44.708Z</time>
      </trkpt>
      <trkpt lat="49.53192" lon="3.54946">
        <ele>174.2</ele>
        <time>2014-10-15T08:49:48.623Z</time>
      </trkpt>
      <trkpt lat="49.53193" lon="3.54948">
        <ele>174.5</ele>
        <time>2014-10-15T08:49:49.643Z</time>
      </trkpt>
      <trkpt lat="49.53194" lon="3.5496">
        <ele>175.7</ele>
        <time>2014-10-15T08:49:54.682Z</time>
      </trkpt>
      <trkpt lat="49.53194" lon="3.54962">
        <ele>175.8</ele>
        <time>2014-10-15T08:49:55.688Z</time>
      </trkpt>
      <trkpt lat="49.53197" lon="3.54974">
        <ele>176.8</ele>
        <time>2014-10-15T08:50:00.625Z</time>
      </trkpt>
      <trkpt lat="49.53197" lon="3.54977">
        <ele>177</ele>
        <time>2014-10-15T08:50:01.628Z</time>
      </trkpt>
      <trkpt lat="49.53198" lon="3.5499">
        <ele>178.5</ele>
        <time>2014-10-15T08:50:06.700Z</time>
      </trkpt>
      <trkpt lat="49.53198" lon="3.54993">
        <ele>178.8</ele>
        <time>2014-10-15T08:50:07.618Z</time>
      </trkpt>
      <trkpt lat="49.53197" lon="3.55005">
        <ele>178.5</ele>
        <time>2014-10-15T08:50:12.638Z</time>
      </trkpt>
      <trkpt lat="49.53198" lon="3.55008">
        <ele>178.3</ele>
        <time>2014-10-15T08:50:13.645Z</time>
      </trkpt>
      <trkpt lat="49.53202" lon="3.55016">
        <ele>176.3</ele>
        <time>2014-10-15T08:50:19.704Z</time>
      </trkpt>
      <trkpt lat="49.53203" lon="3.5502">
        <ele>175.9</ele>
        <time>2014-10-15T08:50:20.713Z</time>
      </trkpt>
      <trkpt lat="49.53209" lon="3.55027">
        <ele>175.4</ele>
        <time>2014-10-15T08:50:22.625Z</time>
      </trkpt>
      <trkpt lat="49.53213" lon="3.55031">
        <ele>175</ele>
        <time>2014-10-15T08:50:23.631Z</time>
      </trkpt>
      <trkpt lat="49.53219" lon="3.55039">
        <ele>174.6</ele>
        <time>2014-10-15T08:50:25.648Z</time>
      </trkpt>
      <trkpt lat="49.53222" lon="3.55043">
        <ele>174.1</ele>
        <time>2014-10-15T08:50:26.661Z</time>
      </trkpt>
      <trkpt lat="49.53228" lon="3.55052">
        <ele>173.5</ele>
        <time>2014-10-15T08:50:28.685Z</time>
      </trkpt>
      <trkpt lat="49.53231" lon="3.55056">
        <ele>173.3</ele>
        <time>2014-10-15T08:50:29.698Z</time>
      </trkpt>
      <trkpt lat="49.53238" lon="3.55063">
        <ele>171.8</ele>
        <time>2014-10-15T08:50:32.720Z</time>
      </trkpt>
      <trkpt lat="49.53239" lon="3.55062">
        <ele>170.3</ele>
        <time>2014-10-15T08:50:33.613Z</time>
      </trkpt>
      <trkpt lat="49.53247" lon="3.55057">
        <ele>168.8</ele>
        <time>2014-10-15T08:50:36.633Z</time>
      </trkpt>
      <trkpt lat="49.53249" lon="3.55053">
        <ele>167.3</ele>
        <time>2014-10-15T08:50:37.641Z</time>
      </trkpt>
      <trkpt lat="49.53254" lon="3.55046">
        <ele>165.8</ele>
        <time>2014-10-15T08:50:39.651Z</time>
      </trkpt>
      <trkpt lat="49.53257" lon="3.55043">
        <ele>165.4</ele>
        <time>2014-10-15T08:50:40.662Z</time>
      </trkpt>
      <trkpt lat="49.53264" lon="3.55038">
        <ele>164.7</ele>
        <time>2014-10-15T08:50:42.676Z</time>
      </trkpt>
      <trkpt lat="49.53267" lon="3.55035">
        <ele>164.4</ele>
        <time>2014-10-15T08:50:43.686Z</time>
      </trkpt>
      <trkpt lat="49.53275" lon="3.55029">
        <ele>163.2</ele>
        <time>2014-10-15T08:50:46.826Z</time>
      </trkpt>
      <trkpt lat="49.53278" lon="3.55029">
        <ele>163.1</ele>
        <time>2014-10-15T08:50:47.608Z</time>
      </trkpt>
      <trkpt lat="49.53284" lon="3.55035">
        <ele>163.3</ele>
        <time>2014-10-15T08:50:50.646Z</time>
      </trkpt>
      <trkpt lat="49.53286" lon="3.55038">
        <ele>163.3</ele>
        <time>2014-10-15T08:50:51.647Z</time>
      </trkpt>
      <trkpt lat="49.53291" lon="3.55048">
        <ele>163.6</ele>
        <time>2014-10-15T08:50:53.695Z</time>
      </trkpt>
      <trkpt lat="49.53294" lon="3.55053">
        <ele>163.6</ele>
        <time>2014-10-15T08:50:54.703Z</time>
      </trkpt>
      <trkpt lat="49.53299" lon="3.55064">
        <ele>163.9</ele>
        <time>2014-10-15T08:50:56.893Z</time>
      </trkpt>
      <trkpt lat="49.53301" lon="3.5507">
        <ele>164.1</ele>
        <time>2014-10-15T08:50:57.606Z</time>
      </trkpt>
      <trkpt lat="49.53303" lon="3.55076">
        <ele>164.3</ele>
        <time>2014-10-15T08:50:58.613Z</time>
      </trkpt>
      <trkpt lat="49.53306" lon="3.55082">
        <ele>164.6</ele>
        <time>2014-10-15T08:50:59.616Z</time>
      </trkpt>
      <trkpt lat="49.5331" lon="3.55093">
        <ele>164.7</ele>
        <time>2014-10-15T08:51:01.643Z</time>
      </trkpt>
      <trkpt lat="49.53312" lon="3.55097">
        <ele>164.6</ele>
        <time>2014-10-15T08:51:02.651Z</time>
      </trkpt>
      <trkpt lat="49.53318" lon="3.55108">
        <ele>164.2</ele>
        <time>2014-10-15T08:51:05.685Z</time>
      </trkpt>
      <trkpt lat="49.53319" lon="3.55111">
        <ele>164.1</ele>
        <time>2014-10-15T08:51:06.696Z</time>
      </trkpt>
      <trkpt lat="49.53321" lon="3.55123">
        <ele>163.8</ele>
        <time>2014-10-15T08:51:11.690Z</time>
      </trkpt>
      <trkpt lat="49.53321" lon="3.55125">
        <ele>163.6</ele>
        <time>2014-10-15T08:51:12.613Z</time>
      </trkpt>
      <trkpt lat="49.53316" lon="3.55134">
        <ele>162</ele>
        <time>2014-10-15T08:51:21.680Z</time>
      </trkpt>
      <trkpt lat="49.53314" lon="3.55136">
        <ele>161.6</ele>
        <time>2014-10-15T08:51:22.689Z</time>
      </trkpt>
      <trkpt lat="49.53307" lon="3.55143">
        <ele>160</ele>
        <time>2014-10-15T08:51:27.647Z</time>
      </trkpt>
      <trkpt lat="49.53306" lon="3.55144">
        <ele>159.8</ele>
        <time>2014-10-15T08:51:28.656Z</time>
      </trkpt>
      <trkpt lat="49.53298" lon="3.55152">
        <ele>159.1</ele>
        <time>2014-10-15T08:51:33.698Z</time>
      </trkpt>
      <trkpt lat="49.53296" lon="3.55154">
        <ele>158.9</ele>
        <time>2014-10-15T08:51:34.701Z</time>
      </trkpt>
      <trkpt lat="49.53289" lon="3.5516">
        <ele>159.1</ele>
        <time>2014-10-15T08:51:38.668Z</time>
      </trkpt>
      <trkpt lat="49.53288" lon="3.55161">
        <ele>159.2</ele>
        <time>2014-10-15T08:51:39.668Z</time>
      </trkpt>
      <trkpt lat="49.53281" lon="3.55167">
        <ele>159.4</ele>
        <time>2014-10-15T08:51:45.529Z</time>
      </trkpt>
      <trkpt lat="49.53279" lon="3.55169">
        <ele>159.2</ele>
        <time>2014-10-15T08:51:45.628Z</time>
      </trkpt>
      <trkpt lat="49.53273" lon="3.55176">
        <ele>159.2</ele>
        <time>2014-10-15T08:51:51.669Z</time>
      </trkpt>
      <trkpt lat="49.53272" lon="3.55177">
        <ele>159.3</ele>
        <time>2014-10-15T08:51:52.682Z</time>
      </trkpt>
      <trkpt lat="49.53268" lon="3.55188">
        <ele>159.3</ele>
        <time>2014-10-15T08:52:00.650Z</time>
      </trkpt>
      <trkpt lat="49.53267" lon="3.55189">
        <ele>159.1</ele>
        <time>2014-10-15T08:52:01.662Z</time>
      </trkpt>
      <trkpt lat="49.53267" lon="3.55194">
        <ele>158.9</ele>
        <time>2014-10-15T08:52:03.687Z</time>
      </trkpt>
      <trkpt lat="49.53267" lon="3.55195">
        <ele>158.6</ele>
        <time>2014-10-15T08:52:04.713Z</time>
      </trkpt>
      <trkpt lat="49.53266" lon="3.55199">
        <ele>158.3</ele>
        <time>2014-10-15T08:52:06.619Z</time>
      </trkpt>
      <trkpt lat="49.53266" lon="3.55201">
        <ele>158.1</ele>
        <time>2014-10-15T08:52:07.623Z</time>
      </trkpt>
      <trkpt lat="49.5326" lon="3.55209">
        <ele>156.2</ele>
        <time>2014-10-15T08:52:11.683Z</time>
      </trkpt>
      <trkpt lat="49.53258" lon="3.55211">
        <ele>155.7</ele>
        <time>2014-10-15T08:52:12.688Z</time>
      </trkpt>
      <trkpt lat="49.53251" lon="3.55218">
        <ele>154.6</ele>
        <time>2014-10-15T08:52:16.621Z</time>
      </trkpt>
      <trkpt lat="49.5325" lon="3.55219">
        <ele>154.4</ele>
        <time>2014-10-15T08:52:17.634Z</time>
      </trkpt>
      <trkpt lat="49.53242" lon="3.55226">
        <ele>154.2</ele>
        <time>2014-10-15T08:52:23.673Z</time>
      </trkpt>
      <trkpt lat="49.53241" lon="3.55227">
        <ele>154.2</ele>
        <time>2014-10-15T08:52:24.681Z</time>
      </trkpt>
      <trkpt lat="49.53234" lon="3.55233">
        <ele>153.8</ele>
        <time>2014-10-15T08:52:29.618Z</time>
      </trkpt>
      <trkpt lat="49.53232" lon="3.55233">
        <ele>153.9</ele>
        <time>2014-10-15T08:52:30.619Z</time>
      </trkpt>
      <trkpt lat="49.53225" lon="3.55241">
        <ele>155.5</ele>
        <time>2014-10-15T08:52:37.637Z</time>
      </trkpt>
      <trkpt lat="49.53225" lon="3.55243">
        <ele>155.8</ele>
        <time>2014-10-15T08:52:38.670Z</time>
      </trkpt>
      <trkpt lat="49.53225" lon="3.55247">
        <ele>156.4</ele>
        <time>2014-10-15T08:52:41.685Z</time>
      </trkpt>
      <trkpt lat="49.53224" lon="3.55248">
        <ele>156.1</ele>
        <time>2014-10-15T08:52:42.694Z</time>
      </trkpt>
      <trkpt lat="49.53224" lon="3.55249">
        <ele>155.9</ele>
        <time>2014-10-15T08:52:45.620Z</time>
      </trkpt>
      <trkpt lat="49.53223" lon="3.55254">
        <ele>156.5</ele>
        <time>2014-10-15T08:52:46.621Z</time>
      </trkpt>
      <trkpt lat="49.53223" lon="3.55265">
        <ele>157.6</ele>
        <time>2014-10-15T08:52:51.681Z</time>
      </trkpt>
      <trkpt lat="49.53223" lon="3.55268">
        <ele>157.3</ele>
        <time>2014-10-15T08:52:52.684Z</time>
      </trkpt>
      <trkpt lat="49.53223" lon="3.55279">
        <ele>156.9</ele>
        <time>2014-10-15T08:52:56.707Z</time>
      </trkpt>
      <trkpt lat="49.53223" lon="3.55282">
        <ele>157</ele>
        <time>2014-10-15T08:52:57.617Z</time>
      </trkpt>
      <trkpt lat="49.53223" lon="3.55294">
        <ele>156</ele>
        <time>2014-10-15T08:53:02.692Z</time>
      </trkpt>
      <trkpt lat="49.53223" lon="3.55296">
        <ele>155.9</ele>
        <time>2014-10-15T08:53:03.620Z</time>
      </trkpt>
      <trkpt lat="49.53222" lon="3.553">
        <ele>155.5</ele>
        <time>2014-10-15T08:53:05.634Z</time>
      </trkpt>
      <trkpt lat="49.53222" lon="3.55302">
        <ele>155.4</ele>
        <time>2014-10-15T08:53:06.646Z</time>
      </trkpt>
      <trkpt lat="49.53222" lon="3.55303">
        <ele>155.3</ele>
        <time>2014-10-15T08:53:07.989Z</time>
      </trkpt>
      <trkpt lat="49.53222" lon="3.55305">
        <ele>155.2</ele>
        <time>2014-10-15T08:53:08.658Z</time>
      </trkpt>
      <trkpt lat="49.53225" lon="3.55317">
        <ele>155</ele>
        <time>2014-10-15T08:53:13.599Z</time>
      </trkpt>
      <trkpt lat="49.53225" lon="3.5532">
        <ele>154.8</ele>
        <time>2014-10-15T08:53:14.662Z</time>
      </trkpt>
      <trkpt lat="49.53227" lon="3.5533">
        <ele>155.6</ele>
        <time>2014-10-15T08:53:18.173Z</time>
      </trkpt>
      <trkpt lat="49.53227" lon="3.55333">
        <ele>155.7</ele>
        <time>2014-10-15T08:53:18.628Z</time>
      </trkpt>
      <trkpt lat="49.53228" lon="3.55346">
        <ele>156.6</ele>
        <time>2014-10-15T08:53:22.665Z</time>
      </trkpt>
      <trkpt lat="49.53229" lon="3.55349">
        <ele>157.1</ele>
        <time>2014-10-15T08:53:23.674Z</time>
      </trkpt>
      <trkpt lat="49.5323" lon="3.55361">
        <ele>156.3</ele>
        <time>2014-10-15T08:53:28.607Z</time>
      </trkpt>
      <trkpt lat="49.5323" lon="3.55363">
        <ele>156.4</ele>
        <time>2014-10-15T08:53:29.623Z</time>
      </trkpt>
      <trkpt lat="49.5323" lon="3.55377">
        <ele>156.9</ele>
        <time>2014-10-15T08:53:35.686Z</time>
      </trkpt>
      <trkpt lat="49.5323" lon="3.5538">
        <ele>156.8</ele>
        <time>2014-10-15T08:53:36.698Z</time>
      </trkpt>
      <trkpt lat="49.53229" lon="3.55386">
        <ele>156.3</ele>
        <time>2014-10-15T08:53:39.610Z</time>
      </trkpt>
      <trkpt lat="49.53229" lon="3.55388">
        <ele>156.1</ele>
        <time>2014-10-15T08:53:40.621Z</time>
      </trkpt>
      <trkpt lat="49.53228" lon="3.55389">
        <ele>155.5</ele>
        <time>2014-10-15T08:53:41.623Z</time>
      </trkpt>
      <trkpt lat="49.53228" lon="3.55392">
        <ele>155.1</ele>
        <time>2014-10-15T08:53:42.635Z</time>
      </trkpt>
      <trkpt lat="49.53229" lon="3.55403">
        <ele>154</ele>
        <time>2014-10-15T08:53:48.696Z</time>
      </trkpt>
      <trkpt lat="49.53229" lon="3.55404">
        <ele>153.6</ele>
        <time>2014-10-15T08:53:49.703Z</time>
      </trkpt>
      <trkpt lat="49.53228" lon="3.55406">
        <ele>153.8</ele>
        <time>2014-10-15T08:53:50.714Z</time>
      </trkpt>
      <trkpt lat="49.53229" lon="3.55408">
        <ele>154.1</ele>
        <time>2014-10-15T08:53:51.625Z</time>
      </trkpt>
      <trkpt lat="49.53231" lon="3.55421">
        <ele>154.3</ele>
        <time>2014-10-15T08:53:57.675Z</time>
      </trkpt>
      <trkpt lat="49.53231" lon="3.55422">
        <ele>153.8</ele>
        <time>2014-10-15T08:53:58.681Z</time>
      </trkpt>
      <trkpt lat="49.53233" lon="3.55434">
        <ele>153.2</ele>
        <time>2014-10-15T08:54:04.622Z</time>
      </trkpt>
      <trkpt lat="49.53234" lon="3.55436">
        <ele>153.2</ele>
        <time>2014-10-15T08:54:05.626Z</time>
      </trkpt>
      <trkpt lat="49.53232" lon="3.55449">
        <ele>149.7</ele>
        <time>2014-10-15T08:54:12.685Z</time>
      </trkpt>
      <trkpt lat="49.53232" lon="3.5545">
        <ele>149.5</ele>
        <time>2014-10-15T08:54:13.692Z</time>
      </trkpt>
      <trkpt lat="49.53233" lon="3.55462">
        <ele>148.1</ele>
        <time>2014-10-15T08:54:17.628Z</time>
      </trkpt>
      <trkpt lat="49.53232" lon="3.55465">
        <ele>147.6</ele>
        <time>2014-10-15T08:54:18.634Z</time>
      </trkpt>
      <trkpt lat="49.53231" lon="3.55477">
        <ele>146.1</ele>
        <time>2014-10-15T08:54:22.678Z</time>
      </trkpt>
      <trkpt lat="49.53231" lon="3.55481">
        <ele>145.7</ele>
        <time>2014-10-15T08:54:23.685Z</time>
      </trkpt>
      <trkpt lat="49.53229" lon="3.55493">
        <ele>144.7</ele>
        <time>2014-10-15T08:54:27.646Z</time>
      </trkpt>
      <trkpt lat="49.53228" lon="3.55496">
        <ele>144.6</ele>
        <time>2014-10-15T08:54:28.653Z</time>
      </trkpt>
      <trkpt lat="49.53225" lon="3.55508">
        <ele>143.6</ele>
        <time>2014-10-15T08:54:33.707Z</time>
      </trkpt>
      <trkpt lat="49.53224" lon="3.5551">
        <ele>143.5</ele>
        <time>2014-10-15T08:54:34.624Z</time>
      </trkpt>
      <trkpt lat="49.53222" lon="3.55522">
        <ele>142.2</ele>
        <time>2014-10-15T08:54:39.659Z</time>
      </trkpt>
      <trkpt lat="49.53221" lon="3.55525">
        <ele>142</ele>
        <time>2014-10-15T08:54:40.664Z</time>
      </trkpt>
      <trkpt lat="49.53218" lon="3.55536">
        <ele>140.8</ele>
        <time>2014-10-15T08:54:46.614Z</time>
      </trkpt>
      <trkpt lat="49.53217" lon="3.55538">
        <ele>140.5</ele>
        <time>2014-10-15T08:54:46.700Z</time>
      </trkpt>
      <trkpt lat="49.53213" lon="3.55549">
        <ele>139.8</ele>
        <time>2014-10-15T08:54:52.607Z</time>
      </trkpt>
      <trkpt lat="49.53213" lon="3.55551">
        <ele>139.8</ele>
        <time>2014-10-15T08:54:53.617Z</time>
      </trkpt>
      <trkpt lat="49.5321" lon="3.55563">
        <ele>139.5</ele>
        <time>2014-10-15T08:54:59.203Z</time>
      </trkpt>
      <trkpt lat="49.53209" lon="3.55566">
        <ele>139.3</ele>
        <time>2014-10-15T08:54:59.677Z</time>
      </trkpt>
      <trkpt lat="49.53206" lon="3.55577">
        <ele>138.2</ele>
        <time>2014-10-15T08:55:04.733Z</time>
      </trkpt>
      <trkpt lat="49.53205" lon="3.55579">
        <ele>138.1</ele>
        <time>2014-10-15T08:55:05.605Z</time>
      </trkpt>
      <trkpt lat="49.53201" lon="3.55591">
        <ele>137</ele>
        <time>2014-10-15T08:55:11.663Z</time>
      </trkpt>
      <trkpt lat="49.53201" lon="3.55593">
        <ele>136.8</ele>
        <time>2014-10-15T08:55:12.674Z</time>
      </trkpt>
      <trkpt lat="49.53196" lon="3.55603">
        <ele>135.9</ele>
        <time>2014-10-15T08:55:19.619Z</time>
      </trkpt>
      <trkpt lat="49.53195" lon="3.55605">
        <ele>135.6</ele>
        <time>2014-10-15T08:55:20.660Z</time>
      </trkpt>
      <trkpt lat="49.53189" lon="3.55613">
        <ele>134.8</ele>
        <time>2014-10-15T08:55:25.610Z</time>
      </trkpt>
      <trkpt lat="49.53188" lon="3.55614">
        <ele>134.6</ele>
        <time>2014-10-15T08:55:26.708Z</time>
      </trkpt>
      <trkpt lat="49.53183" lon="3.55623">
        <ele>133.2</ele>
        <time>2014-10-15T08:55:31.675Z</time>
      </trkpt>
      <trkpt lat="49.53182" lon="3.55626">
        <ele>133.1</ele>
        <time>2014-10-15T08:55:32.678Z</time>
      </trkpt>
      <trkpt lat="49.53181" lon="3.55637">
        <ele>132.5</ele>
        <time>2014-10-15T08:55:35.699Z</time>
      </trkpt>
      <trkpt lat="49.53181" lon="3.55642">
        <ele>132.5</ele>
        <time>2014-10-15T08:55:36.610Z</time>
      </trkpt>
      <trkpt lat="49.5318" lon="3.55651">
        <ele>132.2</ele>
        <time>2014-10-15T08:55:38.666Z</time>
      </trkpt>
      <trkpt lat="49.53179" lon="3.55655">
        <ele>132.1</ele>
        <time>2014-10-15T08:55:39.665Z</time>
      </trkpt>
      <trkpt lat="49.53178" lon="3.55665">
        <ele>132</ele>
        <time>2014-10-15T08:55:41.676Z</time>
      </trkpt>
      <trkpt lat="49.53177" lon="3.5567">
        <ele>131.9</ele>
        <time>2014-10-15T08:55:42.680Z</time>
      </trkpt>
      <trkpt lat="49.53175" lon="3.55681">
        <ele>132</ele>
        <time>2014-10-15T08:55:44.688Z</time>
      </trkpt>
      <trkpt lat="49.53173" lon="3.55687">
        <ele>131.9</ele>
        <time>2014-10-15T08:55:45.690Z</time>
      </trkpt>
      <trkpt lat="49.53171" lon="3.55698">
        <ele>131.8</ele>
        <time>2014-10-15T08:55:47.611Z</time>
      </trkpt>
      <trkpt lat="49.5317" lon="3.55704">
        <ele>131.5</ele>
        <time>2014-10-15T08:55:48.610Z</time>
      </trkpt>
      <trkpt lat="49.53168" lon="3.55716">
        <ele>131</ele>
        <time>2014-10-15T08:55:51.308Z</time>
      </trkpt>
      <trkpt lat="49.53166" lon="3.55721">
        <ele>130.8</ele>
        <time>2014-10-15T08:55:51.646Z</time>
      </trkpt>
      <trkpt lat="49.53164" lon="3.55733">
        <ele>130.2</ele>
        <time>2014-10-15T08:55:53.659Z</time>
      </trkpt>
      <trkpt lat="49.53162" lon="3.55739">
        <ele>129.9</ele>
        <time>2014-10-15T08:55:54.664Z</time>
      </trkpt>
      <trkpt lat="49.5316" lon="3.55751">
        <ele>129.8</ele>
        <time>2014-10-15T08:55:56.688Z</time>
      </trkpt>
      <trkpt lat="49.53158" lon="3.55757">
        <ele>129.6</ele>
        <time>2014-10-15T08:55:57.700Z</time>
      </trkpt>
      <trkpt lat="49.53155" lon="3.55768">
        <ele>129.2</ele>
        <time>2014-10-15T08:55:59.612Z</time>
      </trkpt>
      <trkpt lat="49.53154" lon="3.55774">
        <ele>129.1</ele>
        <time>2014-10-15T08:56:00.613Z</time>
      </trkpt>
      <trkpt lat="49.5315" lon="3.55784">
        <ele>128.8</ele>
        <time>2014-10-15T08:56:02.667Z</time>
      </trkpt>
      <trkpt lat="49.53147" lon="3.55789">
        <ele>128.6</ele>
        <time>2014-10-15T08:56:03.670Z</time>
      </trkpt>
      <trkpt lat="49.53142" lon="3.55798">
        <ele>128</ele>
        <time>2014-10-15T08:56:05.682Z</time>
      </trkpt>
      <trkpt lat="49.53139" lon="3.55802">
        <ele>127.9</ele>
        <time>2014-10-15T08:56:06.694Z</time>
      </trkpt>
      <trkpt lat="49.53133" lon="3.55809">
        <ele>127.7</ele>
        <time>2014-10-15T08:56:08.712Z</time>
      </trkpt>
      <trkpt lat="49.53131" lon="3.55813">
        <ele>127.6</ele>
        <time>2014-10-15T08:56:09.610Z</time>
      </trkpt>
      <trkpt lat="49.53125" lon="3.5582">
        <ele>127.2</ele>
        <time>2014-10-15T08:56:11.623Z</time>
      </trkpt>
      <trkpt lat="49.53123" lon="3.55824">
        <ele>127</ele>
        <time>2014-10-15T08:56:12.639Z</time>
      </trkpt>
      <trkpt lat="49.53116" lon="3.55832">
        <ele>126</ele>
        <time>2014-10-15T08:56:15.667Z</time>
      </trkpt>
      <trkpt lat="49.53113" lon="3.55835">
        <ele>125.9</ele>
        <time>2014-10-15T08:56:16.673Z</time>
      </trkpt>
      <trkpt lat="49.53108" lon="3.5584">
        <ele>125.2</ele>
        <time>2014-10-15T08:56:18.686Z</time>
      </trkpt>
      <trkpt lat="49.53106" lon="3.55843">
        <ele>125.1</ele>
        <time>2014-10-15T08:56:19.692Z</time>
      </trkpt>
      <trkpt lat="49.53099" lon="3.55852">
        <ele>124.4</ele>
        <time>2014-10-15T08:56:22.612Z</time>
      </trkpt>
      <trkpt lat="49.53097" lon="3.55855">
        <ele>124.2</ele>
        <time>2014-10-15T08:56:23.618Z</time>
      </trkpt>
      <trkpt lat="49.53091" lon="3.55861">
        <ele>123.9</ele>
        <time>2014-10-15T08:56:25.638Z</time>
      </trkpt>
      <trkpt lat="49.53089" lon="3.55864">
        <ele>123.9</ele>
        <time>2014-10-15T08:56:26.650Z</time>
      </trkpt>
      <trkpt lat="49.53083" lon="3.55871">
        <ele>123.4</ele>
        <time>2014-10-15T08:56:28.665Z</time>
      </trkpt>
      <trkpt lat="49.5308" lon="3.55874">
        <ele>122.9</ele>
        <time>2014-10-15T08:56:29.675Z</time>
      </trkpt>
      <trkpt lat="49.53074" lon="3.55881">
        <ele>122.8</ele>
        <time>2014-10-15T08:56:31.688Z</time>
      </trkpt>
      <trkpt lat="49.53071" lon="3.55885">
        <ele>122.7</ele>
        <time>2014-10-15T08:56:32.692Z</time>
      </trkpt>
      <trkpt lat="49.53064" lon="3.55892">
        <ele>122.7</ele>
        <time>2014-10-15T08:56:34.611Z</time>
      </trkpt>
      <trkpt lat="49.53062" lon="3.55895">
        <ele>122.5</ele>
        <time>2014-10-15T08:56:35.612Z</time>
      </trkpt>
      <trkpt lat="49.53057" lon="3.55902">
        <ele>122.6</ele>
        <time>2014-10-15T08:56:37.620Z</time>
      </trkpt>
      <trkpt lat="49.53054" lon="3.55905">
        <ele>122.5</ele>
        <time>2014-10-15T08:56:38.657Z</time>
      </trkpt>
      <trkpt lat="49.53048" lon="3.5591">
        <ele>122.4</ele>
        <time>2014-10-15T08:56:40.662Z</time>
      </trkpt>
      <trkpt lat="49.53045" lon="3.55912">
        <ele>122.2</ele>
        <time>2014-10-15T08:56:41.666Z</time>
      </trkpt>
      <trkpt lat="49.53037" lon="3.55918">
        <ele>122.1</ele>
        <time>2014-10-15T08:56:44.684Z</time>
      </trkpt>
      <trkpt lat="49.53035" lon="3.55919">
        <ele>122</ele>
        <time>2014-10-15T08:56:45.609Z</time>
      </trkpt>
      <trkpt lat="49.53027" lon="3.55926">
        <ele>122.1</ele>
        <time>2014-10-15T08:56:50.712Z</time>
      </trkpt>
      <trkpt lat="49.53026" lon="3.55926">
        <ele>122</ele>
        <time>2014-10-15T08:56:51.610Z</time>
      </trkpt>
      <trkpt lat="49.53018" lon="3.55935">
        <ele>121.1</ele>
        <time>2014-10-15T08:56:58.811Z</time>
      </trkpt>
      <trkpt lat="49.53017" lon="3.55935">
        <ele>121.2</ele>
        <time>2014-10-15T08:56:59.618Z</time>
      </trkpt>
      <trkpt lat="49.53009" lon="3.55942">
        <ele>120.2</ele>
        <time>2014-10-15T08:57:05.677Z</time>
      </trkpt>
      <trkpt lat="49.53008" lon="3.55944">
        <ele>119.9</ele>
        <time>2014-10-15T08:57:06.683Z</time>
      </trkpt>
      <trkpt lat="49.53001" lon="3.55951">
        <ele>118.7</ele>
        <time>2014-10-15T08:57:11.616Z</time>
      </trkpt>
      <trkpt lat="49.52999" lon="3.55952">
        <ele>118.8</ele>
        <time>2014-10-15T08:57:12.623Z</time>
      </trkpt>
      <trkpt lat="49.52992" lon="3.55957">
        <ele>117.9</ele>
        <time>2014-10-15T08:57:17.662Z</time>
      </trkpt>
      <trkpt lat="49.52991" lon="3.55959">
        <ele>117.6</ele>
        <time>2014-10-15T08:57:18.664Z</time>
      </trkpt>
      <trkpt lat="49.52984" lon="3.55966">
        <ele>117.4</ele>
        <time>2014-10-15T08:57:24.490Z</time>
      </trkpt>
      <trkpt lat="49.52983" lon="3.55968">
        <ele>117.4</ele>
        <time>2014-10-15T08:57:24.611Z</time>
      </trkpt>
      <trkpt lat="49.52979" lon="3.55978">
        <ele>118</ele>
        <time>2014-10-15T08:57:29.667Z</time>
      </trkpt>
      <trkpt lat="49.52979" lon="3.5598">
        <ele>118.1</ele>
        <time>2014-10-15T08:57:30.737Z</time>
      </trkpt>
      <trkpt lat="49.52979" lon="3.55992">
        <ele>118.8</ele>
        <time>2014-10-15T08:57:36.602Z</time>
      </trkpt>
      <trkpt lat="49.52979" lon="3.55994">
        <ele>118.9</ele>
        <time>2014-10-15T08:57:37.598Z</time>
      </trkpt>
      <trkpt lat="49.52982" lon="3.56006">
        <ele>119.4</ele>
        <time>2014-10-15T08:57:44.700Z</time>
      </trkpt>
      <trkpt lat="49.52983" lon="3.56008">
        <ele>119.8</ele>
        <time>2014-10-15T08:57:45.599Z</time>
      </trkpt>
      <trkpt lat="49.52985" lon="3.56021">
        <ele>118.9</ele>
        <time>2014-10-15T08:57:52.661Z</time>
      </trkpt>
      <trkpt lat="49.52986" lon="3.56024">
        <ele>118.9</ele>
        <time>2014-10-15T08:57:53.666Z</time>
      </trkpt>
      <trkpt lat="49.52987" lon="3.5603">
        <ele>119.5</ele>
        <time>2014-10-15T08:57:59.433Z</time>
      </trkpt>
      <trkpt lat="49.52987" lon="3.56031">
        <ele>119.5</ele>
        <time>2014-10-15T08:57:59.656Z</time>
      </trkpt>
      <trkpt lat="49.52987" lon="3.56032">
        <ele>119.6</ele>
        <time>2014-10-15T08:58:14.665Z</time>
      </trkpt>
      <trkpt lat="49.52987" lon="3.56039">
        <ele>120.8</ele>
        <time>2014-10-15T08:58:15.672Z</time>
      </trkpt>
      <trkpt lat="49.52988" lon="3.5604">
        <ele>120.7</ele>
        <time>2014-10-15T08:58:18.457Z</time>
      </trkpt>
      <trkpt lat="49.52988" lon="3.56041">
        <ele>120.7</ele>
        <time>2014-10-15T08:58:18.597Z</time>
      </trkpt>
      <trkpt lat="49.52988" lon="3.56041">
        <ele>120.7</ele>
        <time>2014-10-15T08:59:33.674Z</time>
      </trkpt>
      <trkpt lat="49.52987" lon="3.5604">
        <ele>123.1</ele>
        <time>2014-10-15T08:59:34.696Z</time>
      </trkpt>
      <trkpt lat="49.52988" lon="3.56053">
        <ele>122.1</ele>
        <time>2014-10-15T09:00:18.627Z</time>
      </trkpt>
      <trkpt lat="49.52989" lon="3.56055">
        <ele>121.7</ele>
        <time>2014-10-15T09:00:19.637Z</time>
      </trkpt>
      <trkpt lat="49.52992" lon="3.56068">
        <ele>120.7</ele>
        <time>2014-10-15T09:00:26.690Z</time>
      </trkpt>
      <trkpt lat="49.52993" lon="3.5607">
        <ele>120.7</ele>
        <time>2014-10-15T09:00:27.696Z</time>
      </trkpt>
      <trkpt lat="49.52996" lon="3.56082">
        <ele>121.2</ele>
        <time>2014-10-15T09:00:31.614Z</time>
      </trkpt>
      <trkpt lat="49.52997" lon="3.56086">
        <ele>121.3</ele>
        <time>2014-10-15T09:00:32.665Z</time>
      </trkpt>
      <trkpt lat="49.52999" lon="3.56097">
        <ele>121.3</ele>
        <time>2014-10-15T09:00:35.675Z</time>
      </trkpt>
      <trkpt lat="49.53" lon="3.561">
        <ele>121.3</ele>
        <time>2014-10-15T09:00:36.691Z</time>
      </trkpt>
      <trkpt lat="49.53003" lon="3.56112">
        <ele>121.6</ele>
        <time>2014-10-15T09:00:40.611Z</time>
      </trkpt>
      <trkpt lat="49.53004" lon="3.56115">
        <ele>121.5</ele>
        <time>2014-10-15T09:00:41.624Z</time>
      </trkpt>
      <trkpt lat="49.53008" lon="3.56126">
        <ele>121.1</ele>
        <time>2014-10-15T09:00:44.649Z</time>
      </trkpt>
      <trkpt lat="49.53008" lon="3.56129">
        <ele>121.1</ele>
        <time>2014-10-15T09:00:45.654Z</time>
      </trkpt>
      <trkpt lat="49.53012" lon="3.56141">
        <ele>121.5</ele>
        <time>2014-10-15T09:00:49.691Z</time>
      </trkpt>
      <trkpt lat="49.53013" lon="3.56145">
        <ele>121.7</ele>
        <time>2014-10-15T09:00:50.698Z</time>
      </trkpt>
      <trkpt lat="49.53015" lon="3.56156">
        <ele>122.1</ele>
        <time>2014-10-15T09:00:53.624Z</time>
      </trkpt>
      <trkpt lat="49.53016" lon="3.56161">
        <ele>122.1</ele>
        <time>2014-10-15T09:00:54.629Z</time>
      </trkpt>
      <trkpt lat="49.53019" lon="3.56172">
        <ele>122.4</ele>
        <time>2014-10-15T09:00:58.668Z</time>
      </trkpt>
      <trkpt lat="49.53018" lon="3.56176">
        <ele>122.1</ele>
        <time>2014-10-15T09:00:59.677Z</time>
      </trkpt>
      <trkpt lat="49.53021" lon="3.56188">
        <ele>122.2</ele>
        <time>2014-10-15T09:01:02.705Z</time>
      </trkpt>
      <trkpt lat="49.53021" lon="3.56193">
        <ele>122.9</ele>
        <time>2014-10-15T09:01:03.605Z</time>
      </trkpt>
      <trkpt lat="49.53023" lon="3.56204">
        <ele>123.4</ele>
        <time>2014-10-15T09:01:05.617Z</time>
      </trkpt>
      <trkpt lat="49.53024" lon="3.56209">
        <ele>123.4</ele>
        <time>2014-10-15T09:01:06.631Z</time>
      </trkpt>
      <trkpt lat="49.53025" lon="3.56218">
        <ele>123.7</ele>
        <time>2014-10-15T09:01:08.645Z</time>
      </trkpt>
      <trkpt lat="49.53026" lon="3.56222">
        <ele>123.7</ele>
        <time>2014-10-15T09:01:09.639Z</time>
      </trkpt>
      <trkpt lat="49.53029" lon="3.56231">
        <ele>123.7</ele>
        <time>2014-10-15T09:01:12.614Z</time>
      </trkpt>
      <trkpt lat="49.53031" lon="3.56236">
        <ele>124</ele>
        <time>2014-10-15T09:01:12.659Z</time>
      </trkpt>
      <trkpt lat="49.53033" lon="3.56248">
        <ele>124.4</ele>
        <time>2014-10-15T09:01:14.673Z</time>
      </trkpt>
      <trkpt lat="49.53034" lon="3.56254">
        <ele>124.2</ele>
        <time>2014-10-15T09:01:15.694Z</time>
      </trkpt>
      <trkpt lat="49.53035" lon="3.56263">
        <ele>125</ele>
        <time>2014-10-15T09:01:17.814Z</time>
      </trkpt>
      <trkpt lat="49.53036" lon="3.56269">
        <ele>125.2</ele>
        <time>2014-10-15T09:01:18.610Z</time>
      </trkpt>
      <trkpt lat="49.53039" lon="3.56281">
        <ele>125.6</ele>
        <time>2014-10-15T09:01:20.641Z</time>
      </trkpt>
      <trkpt lat="49.5304" lon="3.56286">
        <ele>125.7</ele>
        <time>2014-10-15T09:01:21.643Z</time>
      </trkpt>
      <trkpt lat="49.53043" lon="3.56296">
        <ele>125.6</ele>
        <time>2014-10-15T09:01:23.661Z</time>
      </trkpt>
      <trkpt lat="49.53044" lon="3.56301">
        <ele>125.8</ele>
        <time>2014-10-15T09:01:24.672Z</time>
      </trkpt>
      <trkpt lat="49.53044" lon="3.56312">
        <ele>125.6</ele>
        <time>2014-10-15T09:01:27.695Z</time>
      </trkpt>
      <trkpt lat="49.53044" lon="3.56315">
        <ele>125.6</ele>
        <time>2014-10-15T09:01:28.701Z</time>
      </trkpt>
      <trkpt lat="49.53042" lon="3.56328">
        <ele>125.9</ele>
        <time>2014-10-15T09:01:32.657Z</time>
      </trkpt>
      <trkpt lat="49.53042" lon="3.5633">
        <ele>126.1</ele>
        <time>2014-10-15T09:01:33.665Z</time>
      </trkpt>
      <trkpt lat="49.53036" lon="3.5634">
        <ele>124.9</ele>
        <time>2014-10-15T09:01:38.695Z</time>
      </trkpt>
      <trkpt lat="49.53035" lon="3.56341">
        <ele>124.8</ele>
        <time>2014-10-15T09:01:39.610Z</time>
      </trkpt>
      <trkpt lat="49.5303" lon="3.56351">
        <ele>124.3</ele>
        <time>2014-10-15T09:01:45.655Z</time>
      </trkpt>
      <trkpt lat="49.53029" lon="3.56352">
        <ele>123.8</ele>
        <time>2014-10-15T09:01:46.660Z</time>
      </trkpt>
      <trkpt lat="49.53022" lon="3.56359">
        <ele>123.1</ele>
        <time>2014-10-15T09:01:50.698Z</time>
      </trkpt>
      <trkpt lat="49.53021" lon="3.56362">
        <ele>122.9</ele>
        <time>2014-10-15T09:01:51.613Z</time>
      </trkpt>
      <trkpt lat="49.53017" lon="3.56373">
        <ele>122.1</ele>
        <time>2014-10-15T09:01:56.343Z</time>
      </trkpt>
      <trkpt lat="49.53016" lon="3.56375">
        <ele>121.7</ele>
        <time>2014-10-15T09:01:56.647Z</time>
      </trkpt>
      <trkpt lat="49.53007" lon="3.56377">
        <ele>121.6</ele>
        <time>2014-10-15T09:02:03.074Z</time>
      </trkpt>
      <trkpt lat="49.53006" lon="3.56377">
        <ele>121.7</ele>
        <time>2014-10-15T09:02:03.612Z</time>
      </trkpt>
      <trkpt lat="49.52997" lon="3.56373">
        <ele>121.8</ele>
        <time>2014-10-15T09:02:09.655Z</time>
      </trkpt>
      <trkpt lat="49.52996" lon="3.56373">
        <ele>122</ele>
        <time>2014-10-15T09:02:10.662Z</time>
      </trkpt>
      <trkpt lat="49.52989" lon="3.56371">
        <ele>121.7</ele>
        <time>2014-10-15T09:02:15.612Z</time>
      </trkpt>
      <trkpt lat="49.52987" lon="3.5637">
        <ele>121.6</ele>
        <time>2014-10-15T09:02:16.611Z</time>
      </trkpt>
      <trkpt lat="49.52979" lon="3.5637">
        <ele>120.9</ele>
        <time>2014-10-15T09:02:21.658Z</time>
      </trkpt>
      <trkpt lat="49.52978" lon="3.56371">
        <ele>120.9</ele>
        <time>2014-10-15T09:02:22.656Z</time>
      </trkpt>
      <trkpt lat="49.52969" lon="3.56375">
        <ele>121.9</ele>
        <time>2014-10-15T09:02:28.605Z</time>
      </trkpt>
      <trkpt lat="49.52968" lon="3.56375">
        <ele>121.9</ele>
        <time>2014-10-15T09:02:29.612Z</time>
      </trkpt>
      <trkpt lat="49.5296" lon="3.56372">
        <ele>121</ele>
        <time>2014-10-15T09:02:34.674Z</time>
      </trkpt>
      <trkpt lat="49.52959" lon="3.56372">
        <ele>120.7</ele>
        <time>2014-10-15T09:02:35.677Z</time>
      </trkpt>
      <trkpt lat="49.5295" lon="3.5637">
        <ele>120.2</ele>
        <time>2014-10-15T09:02:40.613Z</time>
      </trkpt>
      <trkpt lat="49.52949" lon="3.56369">
        <ele>120.2</ele>
        <time>2014-10-15T09:02:41.616Z</time>
      </trkpt>
      <trkpt lat="49.52941" lon="3.56367">
        <ele>119.5</ele>
        <time>2014-10-15T09:02:46.663Z</time>
      </trkpt>
      <trkpt lat="49.52939" lon="3.56368">
        <ele>119.9</ele>
        <time>2014-10-15T09:02:47.666Z</time>
      </trkpt>
      <trkpt lat="49.52932" lon="3.56366">
        <ele>119.1</ele>
        <time>2014-10-15T09:02:51.696Z</time>
      </trkpt>
      <trkpt lat="49.5293" lon="3.56366">
        <ele>118.8</ele>
        <time>2014-10-15T09:02:52.701Z</time>
      </trkpt>
      <trkpt lat="49.52922" lon="3.56369">
        <ele>118.2</ele>
        <time>2014-10-15T09:02:57.649Z</time>
      </trkpt>
      <trkpt lat="49.5292" lon="3.56369">
        <ele>118.1</ele>
        <time>2014-10-15T09:02:58.656Z</time>
      </trkpt>
      <trkpt lat="49.52912" lon="3.56368">
        <ele>118.3</ele>
        <time>2014-10-15T09:03:04.439Z</time>
      </trkpt>
      <trkpt lat="49.5291" lon="3.56368">
        <ele>118.4</ele>
        <time>2014-10-15T09:03:04.613Z</time>
      </trkpt>
      <trkpt lat="49.52902" lon="3.56366">
        <ele>118.8</ele>
        <time>2014-10-15T09:03:09.752Z</time>
      </trkpt>
      <trkpt lat="49.529" lon="3.56366">
        <ele>119</ele>
        <time>2014-10-15T09:03:10.663Z</time>
      </trkpt>
      <trkpt lat="49.52892" lon="3.56364">
        <ele>119.3</ele>
        <time>2014-10-15T09:03:15.660Z</time>
      </trkpt>
      <trkpt lat="49.5289" lon="3.56364">
        <ele>119.4</ele>
        <time>2014-10-15T09:03:16.656Z</time>
      </trkpt>
      <trkpt lat="49.52882" lon="3.56362">
        <ele>120.2</ele>
        <time>2014-10-15T09:03:21.602Z</time>
      </trkpt>
      <trkpt lat="49.52881" lon="3.56362">
        <ele>120.3</ele>
        <time>2014-10-15T09:03:22.612Z</time>
      </trkpt>
      <trkpt lat="49.52873" lon="3.56361">
        <ele>121.5</ele>
        <time>2014-10-15T09:03:27.648Z</time>
      </trkpt>
      <trkpt lat="49.52871" lon="3.56361">
        <ele>121.8</ele>
        <time>2014-10-15T09:03:28.657Z</time>
      </trkpt>
      <trkpt lat="49.52864" lon="3.56359">
        <ele>121.6</ele>
        <time>2014-10-15T09:03:34.832Z</time>
      </trkpt>
      <trkpt lat="49.52862" lon="3.56359">
        <ele>121.8</ele>
        <time>2014-10-15T09:03:35.614Z</time>
      </trkpt>
      <trkpt lat="49.52854" lon="3.56358">
        <ele>121.8</ele>
        <time>2014-10-15T09:03:41.669Z</time>
      </trkpt>
      <trkpt lat="49.52853" lon="3.56358">
        <ele>121.8</ele>
        <time>2014-10-15T09:03:42.671Z</time>
      </trkpt>
      <trkpt lat="49.52858" lon="3.56348">
        <ele>120.3</ele>
        <time>2014-10-15T09:03:51.648Z</time>
      </trkpt>
      <trkpt lat="49.52859" lon="3.56347">
        <ele>120.2</ele>
        <time>2014-10-15T09:03:52.668Z</time>
      </trkpt>
      <trkpt lat="49.52864" lon="3.56339">
        <ele>119.9</ele>
        <time>2014-10-15T09:03:57.612Z</time>
      </trkpt>
      <trkpt lat="49.52866" lon="3.56338">
        <ele>119.6</ele>
        <time>2014-10-15T09:03:58.612Z</time>
      </trkpt>
      <trkpt lat="49.52872" lon="3.56332">
        <ele>119.2</ele>
        <time>2014-10-15T09:04:04.340Z</time>
      </trkpt>
      <trkpt lat="49.52874" lon="3.56331">
        <ele>118.9</ele>
        <time>2014-10-15T09:04:04.668Z</time>
      </trkpt>
      <trkpt lat="49.52882" lon="3.5633">
        <ele>119.8</ele>
        <time>2014-10-15T09:04:11.610Z</time>
      </trkpt>
      <trkpt lat="49.52884" lon="3.5633">
        <ele>119.8</ele>
        <time>2014-10-15T09:04:12.634Z</time>
      </trkpt>
      <trkpt lat="49.52891" lon="3.56333">
        <ele>119.7</ele>
        <time>2014-10-15T09:04:17.667Z</time>
      </trkpt>
      <trkpt lat="49.52893" lon="3.56335">
        <ele>119.5</ele>
        <time>2014-10-15T09:04:18.667Z</time>
      </trkpt>
      <trkpt lat="49.52899" lon="3.56343">
        <ele>119.6</ele>
        <time>2014-10-15T09:04:22.613Z</time>
      </trkpt>
      <trkpt lat="49.52901" lon="3.56345">
        <ele>119.8</ele>
        <time>2014-10-15T09:04:23.607Z</time>
      </trkpt>
      <trkpt lat="49.52901" lon="3.56349">
        <ele>120.4</ele>
        <time>2014-10-15T09:04:26.652Z</time>
      </trkpt>
      <trkpt lat="49.52901" lon="3.56349">
        <ele>120.6</ele>
        <time>2014-10-15T09:04:27.654Z</time>
      </trkpt>
      <trkpt lat="49.52901" lon="3.5635">
        <ele>120.7</ele>
        <time>2014-10-15T09:04:50.697Z</time>
      </trkpt>
      <trkpt lat="49.52907" lon="3.56352">
        <ele>125.7</ele>
        <time>2014-10-15T09:04:51.608Z</time>
      </trkpt>
      <trkpt lat="49.52902" lon="3.56349">
        <ele>121.5</ele>
        <time>2014-10-15T09:05:45.606Z</time>
      </trkpt>
      <trkpt lat="49.52903" lon="3.5635">
        <ele>121.4</ele>
        <time>2014-10-15T09:05:46.613Z</time>
      </trkpt>
      <trkpt lat="49.52903" lon="3.56351">
        <ele>121.4</ele>
        <time>2014-10-15T09:05:47.624Z</time>
      </trkpt>
      <trkpt lat="49.52903" lon="3.56353">
        <ele>121.1</ele>
        <time>2014-10-15T09:05:49.636Z</time>
      </trkpt>
      <trkpt lat="49.52903" lon="3.56353">
        <ele>121</ele>
        <time>2014-10-15T09:05:50.652Z</time>
      </trkpt>
      <trkpt lat="49.52904" lon="3.56354">
        <ele>121.1</ele>
        <time>2014-10-15T09:06:07.690Z</time>
      </trkpt>
      <trkpt lat="49.52904" lon="3.56354">
        <ele>121.4</ele>
        <time>2014-10-15T09:06:08.704Z</time>
      </trkpt>
      <trkpt lat="49.529" lon="3.56344">
        <ele>119.9</ele>
        <time>2014-10-15T09:06:13.628Z</time>
      </trkpt>
      <trkpt lat="49.52899" lon="3.56341">
        <ele>119.7</ele>
        <time>2014-10-15T09:06:14.654Z</time>
      </trkpt>
      <trkpt lat="49.52892" lon="3.56336">
        <ele>118.7</ele>
        <time>2014-10-15T09:06:18.681Z</time>
      </trkpt>
      <trkpt lat="49.52891" lon="3.56335">
        <ele>118.7</ele>
        <time>2014-10-15T09:06:19.609Z</time>
      </trkpt>
      <trkpt lat="49.52883" lon="3.56333">
        <ele>118.7</ele>
        <time>2014-10-15T09:06:25.688Z</time>
      </trkpt>
      <trkpt lat="49.52881" lon="3.56333">
        <ele>118.8</ele>
        <time>2014-10-15T09:06:26.702Z</time>
      </trkpt>
      <trkpt lat="49.52873" lon="3.56334">
        <ele>119</ele>
        <time>2014-10-15T09:06:31.633Z</time>
      </trkpt>
      <trkpt lat="49.52872" lon="3.56336">
        <ele>119</ele>
        <time>2014-10-15T09:06:32.643Z</time>
      </trkpt>
      <trkpt lat="49.52866" lon="3.56346">
        <ele>118.1</ele>
        <time>2014-10-15T09:06:38.694Z</time>
      </trkpt>
      <trkpt lat="49.52865" lon="3.56347">
        <ele>118</ele>
        <time>2014-10-15T09:06:39.703Z</time>
      </trkpt>
      <trkpt lat="49.52858" lon="3.56354">
        <ele>118.3</ele>
        <time>2014-10-15T09:06:44.655Z</time>
      </trkpt>
      <trkpt lat="49.52857" lon="3.56355">
        <ele>118.5</ele>
        <time>2014-10-15T09:06:45.662Z</time>
      </trkpt>
      <trkpt lat="49.52852" lon="3.56366">
        <ele>118.8</ele>
        <time>2014-10-15T09:06:51.596Z</time>
      </trkpt>
      <trkpt lat="49.52852" lon="3.56368">
        <ele>118.8</ele>
        <time>2014-10-15T09:06:52.617Z</time>
      </trkpt>
      <trkpt lat="49.52851" lon="3.56381">
        <ele>118.4</ele>
        <time>2014-10-15T09:06:57.678Z</time>
      </trkpt>
      <trkpt lat="49.52851" lon="3.56384">
        <ele>118.6</ele>
        <time>2014-10-15T09:06:58.679Z</time>
      </trkpt>
      <trkpt lat="49.52851" lon="3.56398">
        <ele>120</ele>
        <time>2014-10-15T09:07:04.217Z</time>
      </trkpt>
      <trkpt lat="49.52851" lon="3.56401">
        <ele>120.3</ele>
        <time>2014-10-15T09:07:04.665Z</time>
      </trkpt>
      <trkpt lat="49.52853" lon="3.56412">
        <ele>120.9</ele>
        <time>2014-10-15T09:07:09.254Z</time>
      </trkpt>
      <trkpt lat="49.52853" lon="3.56415">
        <ele>120.9</ele>
        <time>2014-10-15T09:07:09.711Z</time>
      </trkpt>
      <trkpt lat="49.52854" lon="3.56427">
        <ele>120.8</ele>
        <time>2014-10-15T09:07:14.652Z</time>
      </trkpt>
      <trkpt lat="49.52854" lon="3.5643">
        <ele>121</ele>
        <time>2014-10-15T09:07:15.651Z</time>
      </trkpt>
      <trkpt lat="49.52855" lon="3.56441">
        <ele>121.7</ele>
        <time>2014-10-15T09:07:20.710Z</time>
      </trkpt>
      <trkpt lat="49.52855" lon="3.56443">
        <ele>121.7</ele>
        <time>2014-10-15T09:07:21.612Z</time>
      </trkpt>
      <trkpt lat="49.52857" lon="3.56456">
        <ele>122.9</ele>
        <time>2014-10-15T09:07:26.654Z</time>
      </trkpt>
      <trkpt lat="49.52857" lon="3.56458">
        <ele>122.8</ele>
        <time>2014-10-15T09:07:27.660Z</time>
      </trkpt>
      <trkpt lat="49.5286" lon="3.56471">
        <ele>123.3</ele>
        <time>2014-10-15T09:07:34.521Z</time>
      </trkpt>
      <trkpt lat="49.5286" lon="3.56473">
        <ele>123.3</ele>
        <time>2014-10-15T09:07:34.614Z</time>
      </trkpt>
      <trkpt lat="49.52858" lon="3.56486">
        <ele>122.3</ele>
        <time>2014-10-15T09:07:40.646Z</time>
      </trkpt>
      <trkpt lat="49.52858" lon="3.56488">
        <ele>122.1</ele>
        <time>2014-10-15T09:07:41.649Z</time>
      </trkpt>
      <trkpt lat="49.52858" lon="3.56501">
        <ele>122.3</ele>
        <time>2014-10-15T09:07:46.679Z</time>
      </trkpt>
      <trkpt lat="49.52859" lon="3.56503">
        <ele>122.2</ele>
        <time>2014-10-15T09:07:47.598Z</time>
      </trkpt>
      <trkpt lat="49.52859" lon="3.56516">
        <ele>122.5</ele>
        <time>2014-10-15T09:07:52.649Z</time>
      </trkpt>
      <trkpt lat="49.5286" lon="3.56518">
        <ele>122.5</ele>
        <time>2014-10-15T09:07:53.652Z</time>
      </trkpt>
      <trkpt lat="49.5286" lon="3.56531">
        <ele>122</ele>
        <time>2014-10-15T09:07:59.602Z</time>
      </trkpt>
      <trkpt lat="49.5286" lon="3.56533">
        <ele>121.7</ele>
        <time>2014-10-15T09:08:00.622Z</time>
      </trkpt>
      <trkpt lat="49.52861" lon="3.56547">
        <ele>120.9</ele>
        <time>2014-10-15T09:08:06.671Z</time>
      </trkpt>
      <trkpt lat="49.52861" lon="3.56549">
        <ele>120.6</ele>
        <time>2014-10-15T09:08:07.683Z</time>
      </trkpt>
      <trkpt lat="49.52862" lon="3.56561">
        <ele>119.8</ele>
        <time>2014-10-15T09:08:14.514Z</time>
      </trkpt>
      <trkpt lat="49.52861" lon="3.56563">
        <ele>119.7</ele>
        <time>2014-10-15T09:08:14.638Z</time>
      </trkpt>
      <trkpt lat="49.52861" lon="3.56576">
        <ele>119.7</ele>
        <time>2014-10-15T09:08:21.676Z</time>
      </trkpt>
      <trkpt lat="49.52861" lon="3.56578">
        <ele>119.4</ele>
        <time>2014-10-15T09:08:22.687Z</time>
      </trkpt>
      <trkpt lat="49.52859" lon="3.56592">
        <ele>118.3</ele>
        <time>2014-10-15T09:08:28.647Z</time>
      </trkpt>
      <trkpt lat="49.52859" lon="3.56594">
        <ele>118.1</ele>
        <time>2014-10-15T09:08:29.651Z</time>
      </trkpt>
      <trkpt lat="49.52858" lon="3.56607">
        <ele>117.3</ele>
        <time>2014-10-15T09:08:35.596Z</time>
      </trkpt>
      <trkpt lat="49.52858" lon="3.5661">
        <ele>117.6</ele>
        <time>2014-10-15T09:08:36.602Z</time>
      </trkpt>
      <trkpt lat="49.52851" lon="3.56618">
        <ele>114.5</ele>
        <time>2014-10-15T09:09:02.653Z</time>
      </trkpt>
      <trkpt lat="49.52851" lon="3.56619">
        <ele>114.6</ele>
        <time>2014-10-15T09:09:03.664Z</time>
      </trkpt>
      <trkpt lat="49.52852" lon="3.56632">
        <ele>114.8</ele>
        <time>2014-10-15T09:09:09.701Z</time>
      </trkpt>
      <trkpt lat="49.52852" lon="3.56634">
        <ele>114.9</ele>
        <time>2014-10-15T09:09:10.614Z</time>
      </trkpt>
      <trkpt lat="49.5285" lon="3.56646">
        <ele>115.2</ele>
        <time>2014-10-15T09:09:15.658Z</time>
      </trkpt>
      <trkpt lat="49.5285" lon="3.56648">
        <ele>115.2</ele>
        <time>2014-10-15T09:09:16.660Z</time>
      </trkpt>
      <trkpt lat="49.52848" lon="3.56661">
        <ele>115.5</ele>
        <time>2014-10-15T09:09:22.960Z</time>
      </trkpt>
      <trkpt lat="49.52848" lon="3.56663">
        <ele>115.5</ele>
        <time>2014-10-15T09:09:23.641Z</time>
      </trkpt>
      <trkpt lat="49.52846" lon="3.56676">
        <ele>116</ele>
        <time>2014-10-15T09:09:29.700Z</time>
      </trkpt>
      <trkpt lat="49.52846" lon="3.56678">
        <ele>116.1</ele>
        <time>2014-10-15T09:09:30.600Z</time>
      </trkpt>
      <trkpt lat="49.52842" lon="3.56689">
        <ele>115.6</ele>
        <time>2014-10-15T09:09:36.629Z</time>
      </trkpt>
      <trkpt lat="49.52842" lon="3.56692">
        <ele>115.5</ele>
        <time>2014-10-15T09:09:37.646Z</time>
      </trkpt>
      <trkpt lat="49.5284" lon="3.56705">
        <ele>115.6</ele>
        <time>2014-10-15T09:09:43.602Z</time>
      </trkpt>
      <trkpt lat="49.5284" lon="3.56707">
        <ele>115.6</ele>
        <time>2014-10-15T09:09:44.641Z</time>
      </trkpt>
      <trkpt lat="49.52837" lon="3.5672">
        <ele>114.9</ele>
        <time>2014-10-15T09:09:50.713Z</time>
      </trkpt>
      <trkpt lat="49.52837" lon="3.56722">
        <ele>114.8</ele>
        <time>2014-10-15T09:09:51.598Z</time>
      </trkpt>
      <trkpt lat="49.52834" lon="3.56734">
        <ele>114.4</ele>
        <time>2014-10-15T09:09:57.656Z</time>
      </trkpt>
      <trkpt lat="49.52834" lon="3.56736">
        <ele>114.5</ele>
        <time>2014-10-15T09:09:58.655Z</time>
      </trkpt>
      <trkpt lat="49.52832" lon="3.56749">
        <ele>115.3</ele>
        <time>2014-10-15T09:10:04.599Z</time>
      </trkpt>
      <trkpt lat="49.52832" lon="3.56751">
        <ele>115.2</ele>
        <time>2014-10-15T09:10:05.614Z</time>
      </trkpt>
      <trkpt lat="49.52828" lon="3.56763">
        <ele>115.3</ele>
        <time>2014-10-15T09:10:11.654Z</time>
      </trkpt>
      <trkpt lat="49.52828" lon="3.56765">
        <ele>115.2</ele>
        <time>2014-10-15T09:10:12.698Z</time>
      </trkpt>
      <trkpt lat="49.52825" lon="3.56778">
        <ele>115.1</ele>
        <time>2014-10-15T09:10:19.683Z</time>
      </trkpt>
      <trkpt lat="49.52825" lon="3.5678">
        <ele>115</ele>
        <time>2014-10-15T09:10:20.689Z</time>
      </trkpt>
      <trkpt lat="49.52823" lon="3.56793">
        <ele>115.5</ele>
        <time>2014-10-15T09:10:28.237Z</time>
      </trkpt>
      <trkpt lat="49.52823" lon="3.56795">
        <ele>115.5</ele>
        <time>2014-10-15T09:10:28.652Z</time>
      </trkpt>
      <trkpt lat="49.52819" lon="3.56807">
        <ele>115.3</ele>
        <time>2014-10-15T09:10:34.682Z</time>
      </trkpt>
      <trkpt lat="49.52818" lon="3.56809">
        <ele>115.3</ele>
        <time>2014-10-15T09:10:35.601Z</time>
      </trkpt>
      <trkpt lat="49.52817" lon="3.56822">
        <ele>115.6</ele>
        <time>2014-10-15T09:10:41.606Z</time>
      </trkpt>
      <trkpt lat="49.52817" lon="3.56824">
        <ele>115.7</ele>
        <time>2014-10-15T09:10:42.617Z</time>
      </trkpt>
      <trkpt lat="49.52821" lon="3.56836">
        <ele>116.3</ele>
        <time>2014-10-15T09:10:48.765Z</time>
      </trkpt>
      <trkpt lat="49.52822" lon="3.56837">
        <ele>116.1</ele>
        <time>2014-10-15T09:10:49.605Z</time>
      </trkpt>
      <trkpt lat="49.52829" lon="3.56842">
        <ele>115.8</ele>
        <time>2014-10-15T09:10:57.737Z</time>
      </trkpt>
      <trkpt lat="49.52831" lon="3.56842">
        <ele>115.6</ele>
        <time>2014-10-15T09:10:58.646Z</time>
      </trkpt>
      <trkpt lat="49.52839" lon="3.56845">
        <ele>115</ele>
        <time>2014-10-15T09:11:05.602Z</time>
      </trkpt>
      <trkpt lat="49.5284" lon="3.56846">
        <ele>115.1</ele>
        <time>2014-10-15T09:11:06.604Z</time>
      </trkpt>
      <trkpt lat="49.52848" lon="3.5685">
        <ele>114.5</ele>
        <time>2014-10-15T09:11:13.672Z</time>
      </trkpt>
      <trkpt lat="49.52849" lon="3.5685">
        <ele>114.4</ele>
        <time>2014-10-15T09:11:14.684Z</time>
      </trkpt>
      <trkpt lat="49.52856" lon="3.56853">
        <ele>114</ele>
        <time>2014-10-15T09:11:19.631Z</time>
      </trkpt>
      <trkpt lat="49.52858" lon="3.56854">
        <ele>114.1</ele>
        <time>2014-10-15T09:11:20.637Z</time>
      </trkpt>
      <trkpt lat="49.52866" lon="3.56857">
        <ele>113.8</ele>
        <time>2014-10-15T09:11:26.692Z</time>
      </trkpt>
      <trkpt lat="49.52867" lon="3.56857">
        <ele>113.9</ele>
        <time>2014-10-15T09:11:27.602Z</time>
      </trkpt>
      <trkpt lat="49.52867" lon="3.56857">
        <ele>113.9</ele>
        <time>2014-10-15T09:11:27.830Z</time>
      </trkpt>
      <trkpt lat="49.52867" lon="3.56858">
        <ele>113.9</ele>
        <time>2014-10-15T09:11:28.604Z</time>
      </trkpt>
      <trkpt lat="49.52868" lon="3.56858">
        <ele>113.8</ele>
        <time>2014-10-15T09:11:29.608Z</time>
      </trkpt>
      <trkpt lat="49.52875" lon="3.56864">
        <ele>114</ele>
        <time>2014-10-15T09:11:38.701Z</time>
      </trkpt>
      <trkpt lat="49.52876" lon="3.56865">
        <ele>113.8</ele>
        <time>2014-10-15T09:11:39.633Z</time>
      </trkpt>
      <trkpt lat="49.52876" lon="3.56875">
        <ele>115.1</ele>
        <time>2014-10-15T09:11:53.307Z</time>
      </trkpt>
      <trkpt lat="49.52876" lon="3.56875">
        <ele>115.4</ele>
        <time>2014-10-15T09:11:53.652Z</time>
      </trkpt>
      <trkpt lat="49.52876" lon="3.56876">
        <ele>115.4</ele>
        <time>2014-10-15T09:12:04.683Z</time>
      </trkpt>
      <trkpt lat="49.52878" lon="3.56876">
        <ele>115.2</ele>
        <time>2014-10-15T09:12:05.587Z</time>
      </trkpt>
      <trkpt lat="49.52877" lon="3.56877">
        <ele>116.1</ele>
        <time>2014-10-15T09:13:04.658Z</time>
      </trkpt>
      <trkpt lat="49.52877" lon="3.56876">
        <ele>115.7</ele>
        <time>2014-10-15T09:13:05.660Z</time>
      </trkpt>
      <trkpt lat="49.52878" lon="3.56877">
        <ele>115.9</ele>
        <time>2014-10-15T09:13:21.701Z</time>
      </trkpt>
      <trkpt lat="49.52877" lon="3.56875">
        <ele>115.9</ele>
        <time>2014-10-15T09:13:22.616Z</time>
      </trkpt>
      <trkpt lat="49.52876" lon="3.56875">
        <ele>116</ele>
        <time>2014-10-15T09:13:23.646Z</time>
      </trkpt>
      <trkpt lat="49.52876" lon="3.56875">
        <ele>116.2</ele>
        <time>2014-10-15T09:13:24.613Z</time>
      </trkpt>
      <trkpt lat="49.52876" lon="3.56875">
        <ele>116.2</ele>
        <time>2014-10-15T09:14:18.089Z</time>
      </trkpt>
      <trkpt lat="49.52876" lon="3.56874">
        <ele>116.6</ele>
        <time>2014-10-15T09:14:18.692Z</time>
      </trkpt>
      <trkpt lat="49.52877" lon="3.56872">
        <ele>115.6</ele>
        <time>2014-10-15T09:14:24.659Z</time>
      </trkpt>
      <trkpt lat="49.52877" lon="3.56872">
        <ele>115.6</ele>
        <time>2014-10-15T09:14:25.669Z</time>
      </trkpt>
      <trkpt lat="49.52877" lon="3.56873">
        <ele>115.5</ele>
        <time>2014-10-15T09:14:33.711Z</time>
      </trkpt>
      <trkpt lat="49.52879" lon="3.56877">
        <ele>114.6</ele>
        <time>2014-10-15T09:14:34.620Z</time>
      </trkpt>
      <trkpt lat="49.52878" lon="3.56878">
        <ele>115.1</ele>
        <time>2014-10-15T09:14:42.695Z</time>
      </trkpt>
      <trkpt lat="49.52878" lon="3.56879">
        <ele>115</ele>
        <time>2014-10-15T09:14:43.703Z</time>
      </trkpt>
      <trkpt lat="49.52878" lon="3.56879">
        <ele>115</ele>
        <time>2014-10-15T09:14:43.788Z</time>
      </trkpt>
      <trkpt lat="49.52878" lon="3.56878">
        <ele>114.9</ele>
        <time>2014-10-15T09:14:44.719Z</time>
      </trkpt>
      <trkpt lat="49.5287" lon="3.5688">
        <ele>114.5</ele>
        <time>2014-10-15T09:14:54.073Z</time>
      </trkpt>
      <trkpt lat="49.52869" lon="3.5688">
        <ele>114.7</ele>
        <time>2014-10-15T09:14:54.718Z</time>
      </trkpt>
      <trkpt lat="49.5287" lon="3.56886">
        <ele>112.1</ele>
        <time>2014-10-15T09:15:08.148Z</time>
      </trkpt>
      <trkpt lat="49.52869" lon="3.56885">
        <ele>112.4</ele>
        <time>2014-10-15T09:15:08.653Z</time>
      </trkpt>
      <trkpt lat="49.52869" lon="3.56884">
        <ele>112.4</ele>
        <time>2014-10-15T09:15:10.678Z</time>
      </trkpt>
      <trkpt lat="49.52869" lon="3.56884">
        <ele>112.5</ele>
        <time>2014-10-15T09:15:11.685Z</time>
      </trkpt>
      <trkpt lat="49.52876" lon="3.56877">
        <ele>115.4</ele>
        <time>2014-10-15T09:15:42.626Z</time>
      </trkpt>
      <trkpt lat="49.52877" lon="3.56877">
        <ele>115.6</ele>
        <time>2014-10-15T09:15:43.633Z</time>
      </trkpt>
      <trkpt lat="49.5288" lon="3.56878">
        <ele>115.7</ele>
        <time>2014-10-15T09:15:46.682Z</time>
      </trkpt>
      <trkpt lat="49.5288" lon="3.56878">
        <ele>115.6</ele>
        <time>2014-10-15T09:15:47.689Z</time>
      </trkpt>
      <trkpt lat="49.52879" lon="3.56877">
        <ele>115.2</ele>
        <time>2014-10-15T09:15:49.745Z</time>
      </trkpt>
      <trkpt lat="49.52878" lon="3.56877">
        <ele>115.1</ele>
        <time>2014-10-15T09:15:50.663Z</time>
      </trkpt>
      <trkpt lat="49.52877" lon="3.56874">
        <ele>115.4</ele>
        <time>2014-10-15T09:16:44.696Z</time>
      </trkpt>
      <trkpt lat="49.52878" lon="3.56874">
        <ele>115.5</ele>
        <time>2014-10-15T09:16:45.707Z</time>
      </trkpt>
      <trkpt lat="49.52878" lon="3.56876">
        <ele>115.2</ele>
        <time>2014-10-15T09:17:08.699Z</time>
      </trkpt>
      <trkpt lat="49.52879" lon="3.56878">
        <ele>115.7</ele>
        <time>2014-10-15T09:17:09.609Z</time>
      </trkpt>
      <trkpt lat="49.52876" lon="3.56878">
        <ele>115.3</ele>
        <time>2014-10-15T09:17:14.662Z</time>
      </trkpt>
      <trkpt lat="49.52876" lon="3.56878">
        <ele>115.3</ele>
        <time>2014-10-15T09:17:15.663Z</time>
      </trkpt>
      <trkpt lat="49.52876" lon="3.56878">
        <ele>115.3</ele>
        <time>2014-10-15T09:17:46.627Z</time>
      </trkpt>
      <trkpt lat="49.52877" lon="3.5688">
        <ele>114.2</ele>
        <time>2014-10-15T09:17:47.636Z</time>
      </trkpt>
      <trkpt lat="49.52877" lon="3.5688">
        <ele>114.1</ele>
        <time>2014-10-15T09:17:48.642Z</time>
      </trkpt>
      <trkpt lat="49.52876" lon="3.56879">
        <ele>114.1</ele>
        <time>2014-10-15T09:17:49.650Z</time>
      </trkpt>
      <trkpt lat="49.52876" lon="3.56879">
        <ele>114.2</ele>
        <time>2014-10-15T09:18:40.621Z</time>
      </trkpt>
      <trkpt lat="49.52877" lon="3.56876">
        <ele>112.8</ele>
        <time>2014-10-15T09:18:41.627Z</time>
      </trkpt>
      <trkpt lat="49.52877" lon="3.56876">
        <ele>112.8</ele>
        <time>2014-10-15T09:18:42.633Z</time>
      </trkpt>
      <trkpt lat="49.52877" lon="3.56875">
        <ele>112.7</ele>
        <time>2014-10-15T09:19:47.705Z</time>
      </trkpt>
      <trkpt lat="49.52875" lon="3.56874">
        <ele>110.7</ele>
        <time>2014-10-15T09:19:48.622Z</time>
      </trkpt>
      <trkpt lat="49.52875" lon="3.56874">
        <ele>110.6</ele>
        <time>2014-10-15T09:19:49.627Z</time>
      </trkpt>
      <trkpt lat="49.52875" lon="3.56874">
        <ele>110.4</ele>
        <time>2014-10-15T09:19:50.667Z</time>
      </trkpt>
      <trkpt lat="49.52874" lon="3.56874">
        <ele>110.3</ele>
        <time>2014-10-15T09:19:56.713Z</time>
      </trkpt>
      <trkpt lat="49.52874" lon="3.56874">
        <ele>110</ele>
        <time>2014-10-15T09:19:57.622Z</time>
      </trkpt>
      <trkpt lat="49.52873" lon="3.56873">
        <ele>110</ele>
        <time>2014-10-15T09:19:59.627Z</time>
      </trkpt>
      <trkpt lat="49.52873" lon="3.56873">
        <ele>110</ele>
        <time>2014-10-15T09:20:00.633Z</time>
      </trkpt>
      <trkpt lat="49.52873" lon="3.56872">
        <ele>110.2</ele>
        <time>2014-10-15T09:20:11.623Z</time>
      </trkpt>
      <trkpt lat="49.52875" lon="3.56872">
        <ele>109.2</ele>
        <time>2014-10-15T09:20:12.628Z</time>
      </trkpt>
      <trkpt lat="49.52876" lon="3.56872">
        <ele>108.8</ele>
        <time>2014-10-15T09:20:13.639Z</time>
      </trkpt>
      <trkpt lat="49.52877" lon="3.56872">
        <ele>108.5</ele>
        <time>2014-10-15T09:20:14.662Z</time>
      </trkpt>
      <trkpt lat="49.52877" lon="3.56871">
        <ele>108.7</ele>
        <time>2014-10-15T09:20:15.664Z</time>
      </trkpt>
      <trkpt lat="49.5288" lon="3.56871">
        <ele>101.7</ele>
        <time>2014-10-15T09:20:37.685Z</time>
      </trkpt>
      <trkpt lat="49.52879" lon="3.56871">
        <ele>102</ele>
        <time>2014-10-15T09:20:38.693Z</time>
      </trkpt>
      <trkpt lat="49.5288" lon="3.56871">
        <ele>102.8</ele>
        <time>2014-10-15T09:20:55.657Z</time>
      </trkpt>
      <trkpt lat="49.5288" lon="3.56873">
        <ele>106.1</ele>
        <time>2014-10-15T09:20:56.664Z</time>
      </trkpt>
      <trkpt lat="49.52881" lon="3.56887">
        <ele>105.8</ele>
        <time>2014-10-15T09:21:05.697Z</time>
      </trkpt>
      <trkpt lat="49.5288" lon="3.56888">
        <ele>105.8</ele>
        <time>2014-10-15T09:21:06.614Z</time>
      </trkpt>
      <trkpt lat="49.52879" lon="3.56889">
        <ele>108.9</ele>
        <time>2014-10-15T09:21:25.690Z</time>
      </trkpt>
      <trkpt lat="49.52878" lon="3.56889">
        <ele>109.3</ele>
        <time>2014-10-15T09:21:26.701Z</time>
      </trkpt>
      <trkpt lat="49.52878" lon="3.56888">
        <ele>109.8</ele>
        <time>2014-10-15T09:21:35.688Z</time>
      </trkpt>
      <trkpt lat="49.52879" lon="3.56885">
        <ele>110.3</ele>
        <time>2014-10-15T09:21:36.692Z</time>
      </trkpt>
      <trkpt lat="49.52879" lon="3.56876">
        <ele>108.7</ele>
        <time>2014-10-15T09:21:42.638Z</time>
      </trkpt>
      <trkpt lat="49.52879" lon="3.56876">
        <ele>108.3</ele>
        <time>2014-10-15T09:21:43.654Z</time>
      </trkpt>
      <trkpt lat="49.52879" lon="3.56876">
        <ele>108.2</ele>
        <time>2014-10-15T09:22:01.692Z</time>
      </trkpt>
      <trkpt lat="49.5288" lon="3.56877">
        <ele>108.2</ele>
        <time>2014-10-15T09:22:02.713Z</time>
      </trkpt>
      <trkpt lat="49.52882" lon="3.56877">
        <ele>108.2</ele>
        <time>2014-10-15T09:22:05.637Z</time>
      </trkpt>
      <trkpt lat="49.52883" lon="3.56878">
        <ele>108.5</ele>
        <time>2014-10-15T09:22:06.678Z</time>
      </trkpt>
      <trkpt lat="49.52883" lon="3.56878">
        <ele>108.5</ele>
        <time>2014-10-15T09:22:19.625Z</time>
      </trkpt>
      <trkpt lat="49.52881" lon="3.56875">
        <ele>110.2</ele>
        <time>2014-10-15T09:22:20.671Z</time>
      </trkpt>
      <trkpt lat="49.5288" lon="3.56874">
        <ele>111.3</ele>
        <time>2014-10-15T09:22:24.747Z</time>
      </trkpt>
      <trkpt lat="49.5288" lon="3.56875">
        <ele>111.3</ele>
        <time>2014-10-15T09:22:25.627Z</time>
      </trkpt>
      <trkpt lat="49.5288" lon="3.56875">
        <ele>111.2</ele>
        <time>2014-10-15T09:22:33.818Z</time>
      </trkpt>
      <trkpt lat="49.52879" lon="3.56876">
        <ele>110.8</ele>
        <time>2014-10-15T09:22:34.620Z</time>
      </trkpt>
      <trkpt lat="49.52872" lon="3.56875">
        <ele>110.7</ele>
        <time>2014-10-15T09:22:44.686Z</time>
      </trkpt>
      <trkpt lat="49.52873" lon="3.56877">
        <ele>110.1</ele>
        <time>2014-10-15T09:22:45.693Z</time>
      </trkpt>
      <trkpt lat="49.52873" lon="3.56877">
        <ele>109.7</ele>
        <time>2014-10-15T09:22:59.625Z</time>
      </trkpt>
      <trkpt lat="49.52874" lon="3.56878">
        <ele>109.4</ele>
        <time>2014-10-15T09:23:00.624Z</time>
      </trkpt>
      <trkpt lat="49.52874" lon="3.56877">
        <ele>109.3</ele>
        <time>2014-10-15T09:23:01.626Z</time>
      </trkpt>
      <trkpt lat="49.52874" lon="3.56877">
        <ele>109.4</ele>
        <time>2014-10-15T09:23:02.677Z</time>
      </trkpt>
      <trkpt lat="49.52874" lon="3.56875">
        <ele>109.5</ele>
        <time>2014-10-15T09:23:08.720Z</time>
      </trkpt>
      <trkpt lat="49.52876" lon="3.56874">
        <ele>109.5</ele>
        <time>2014-10-15T09:23:09.625Z</time>
      </trkpt>
      <trkpt lat="49.52877" lon="3.56874">
        <ele>108.9</ele>
        <time>2014-10-15T09:23:12.910Z</time>
      </trkpt>
      <trkpt lat="49.52878" lon="3.56875">
        <ele>108.7</ele>
        <time>2014-10-15T09:23:13.642Z</time>
      </trkpt>
      <trkpt lat="49.52878" lon="3.56875">
        <ele>108.7</ele>
        <time>2014-10-15T09:23:14.683Z</time>
      </trkpt>
      <trkpt lat="49.52882" lon="3.56873">
        <ele>105.8</ele>
        <time>2014-10-15T09:24:23.701Z</time>
      </trkpt>
      <trkpt lat="49.52887" lon="3.56875">
        <ele>110.3</ele>
        <time>2014-10-15T09:24:24.706Z</time>
      </trkpt>
      <trkpt lat="49.52881" lon="3.56865">
        <ele>109.8</ele>
        <time>2014-10-15T09:24:54.711Z</time>
      </trkpt>
      <trkpt lat="49.5288" lon="3.56864">
        <ele>109.9</ele>
        <time>2014-10-15T09:24:55.721Z</time>
      </trkpt>
      <trkpt lat="49.52872" lon="3.5686">
        <ele>110.2</ele>
        <time>2014-10-15T09:24:59.631Z</time>
      </trkpt>
      <trkpt lat="49.5287" lon="3.56859">
        <ele>110.2</ele>
        <time>2014-10-15T09:25:00.639Z</time>
      </trkpt>
      <trkpt lat="49.52865" lon="3.56856">
        <ele>110.8</ele>
        <time>2014-10-15T09:25:03.694Z</time>
      </trkpt>
      <trkpt lat="49.52861" lon="3.56855">
        <ele>111.1</ele>
        <time>2014-10-15T09:25:04.698Z</time>
      </trkpt>
      <trkpt lat="49.52853" lon="3.56851">
        <ele>111.6</ele>
        <time>2014-10-15T09:25:08.130Z</time>
      </trkpt>
      <trkpt lat="49.52851" lon="3.56849">
        <ele>111.5</ele>
        <time>2014-10-15T09:25:08.678Z</time>
      </trkpt>
      <trkpt lat="49.52844" lon="3.56844">
        <ele>112.3</ele>
        <time>2014-10-15T09:25:13.135Z</time>
      </trkpt>
      <trkpt lat="49.52842" lon="3.56844">
        <ele>112.2</ele>
        <time>2014-10-15T09:25:13.698Z</time>
      </trkpt>
      <trkpt lat="49.52834" lon="3.56842">
        <ele>112.1</ele>
        <time>2014-10-15T09:25:18.143Z</time>
      </trkpt>
      <trkpt lat="49.52832" lon="3.56842">
        <ele>112.1</ele>
        <time>2014-10-15T09:25:18.652Z</time>
      </trkpt>
      <trkpt lat="49.52832" lon="3.56842">
        <ele>112.1</ele>
        <time>2014-10-15T09:25:19.472Z</time>
      </trkpt>
    </trkseg>
  </trk>
</gpx>